[[{"header":{"parameterUnit":"m.s-1","parameterCategory":1,"la1":31.0,"la2":29.5877,"lo1":-88.7671,"lo2":-86.6584,"dy":0.0162,"dx":0.0185,"nx":115,"ny":88,"refTime":"2023-05-16T06:00:00:Z","depth":0,"parameterNumber":2,"parameterNumberName":"U-component_of_WINDS"},"data":[0.0,0.0,0.0,0.0,0.0,0.0,0.0,0.0,0.0,0.0,0.0,0.0,0.0,0.0,0.0,0.0,0.0,0.0,0.0,0.0,0.0,0.0,0.0,0.0,0.0,0.0,0.0,0.0,0.0,0.0,0.0,0.0,0.0,0.0,0.0,0.0,0.0,0.0,0.0,0.0,0.0,0.0,0.0,0.0,0.0,0.0,0.0,0.0,0.0,0.0,0.0,0.0,0.0,0.0,0.0,0.0,0.0,0.0,0.0,0.0,0.0,0.0,0.0,0.0,0.0,0.0,0.0,0.0,0.0,0.0,0.0,0.0,0.0,0.0,0.0,0.0,0.0,0.0,0.0,0.0,0.0,0.0,0.0,0.0,0.0,0.0,0.0,0.0,0.0,0.0,0.0,0.0,0.0,0.0,0.0,0.0,0.0,0.0,0.0,0.0,0.0,0.0,0.0,0.0,0.0,0.0,0.0,0.0,0.0,0.0,0.0,0.0,0.0,0.0,0.0,0.0,0.0,0.0,0.0,0.0,0.0,0.0,0.0,0.0,0.0,0.0,0.0,0.0,0.0,0.0,0.0,0.0,0.0,0.0,0.0,0.0,0.0,0.0,0.0,0.0,0.0,0.0,0.0,0.0,0.0,0.0,0.0,0.0,0.0,0.0,0.0,0.0,0.0,0.0,0.0,0.0,0.0,0.0,0.0,0.0,0.0,0.0,0.0,0.0,0.0,0.0,0.0,0.0,0.0,0.0,0.0,0.0,0.0,0.0,0.0,0.0,0.0,0.0,0.0,0.0,0.0,0.0,0.0,0.0,0.0,0.0,0.0,0.0,0.0,0.0,0.0,0.0,0.0,0.0,0.0,0.0,0.0,0.0,0.0,0.0,0.0,0.0,0.0,0.0,0.0,0.0,0.0,0.0,0.0,0.0,0.0,0.0,0.0,0.0,0.0,0.0,0.0,0.0,0.0,0.0,0.0,0.0,0.0,0.0,0.0,0.0,0.0,0.0,0.0,0.0,0.0,0.0,0.0,0.0,0.0,0.0,0.0,0.0,0.0,0.0,0.0,0.0,0.0,0.0,0.0,0.0,0.0,0.0,0.0,0.0,0.0,0.0,0.0,0.0,0.0,0.0,0.0,0.0,0.0,0.0,0.0,0.0,0.0,0.0,0.0,0.0,0.0,0.0,0.0,0.0,0.0,0.0,0.0,0.0,0.0,0.0,0.0,0.0,0.0,0.0,0.0,0.0,0.0,0.0,0.0,0.0,0.0,0.0,0.0,0.0,0.0,0.0,0.0,0.0,0.0,0.0,0.0,0.0,0.0,0.0,0.0,0.0,0.0,0.0,0.0,0.0,0.0,0.0,0.0,0.0,0.0,0.0,0.0,0.0,0.0,0.0,0.0,0.0,0.0,0.0,0.0,0.0,0.0,0.0,0.0,0.0,0.0,0.0,0.0,0.0,0.0,0.0,0.0,0.0,0.0,0.0,0.0,0.0,0.0,0.0,0.0,0.0,0.0,0.0,0.0,0.0,0.0,0.0,0.0,0.0,0.0,0.0,0.0,0.0,0.0,0.0,0.0,0.0,0.0,0.0,0.0,0.0,0.0,0.0,0.0,0.0,0.0,0.0,0.0,0.0,0.0,0.0,0.0,0.0,0.0,0.0,0.0,0.0,0.0,0.0,0.0,0.0,0.0,0.0,0.0,0.0,0.0,0.0,0.0,0.0,0.0,0.0,0.0,0.0,0.0,0.0,0.0,0.0,0.0,0.0,0.0,0.0,0.0,0.0,0.0,0.0,0.0,0.0,0.0,0.0,0.0,0.0,0.0,0.0,0.0,0.0,0.0,0.0,0.0,0.0,0.0,0.0,0.0,0.0,0.0,0.0,0.0,0.0,0.0,0.0,0.0,0.0,0.0,0.0,0.0,0.0,0.0,0.0,0.0,0.0,0.0,0.0,0.0,0.0,0.0,0.0,0.0,0.0,0.0,0.0,0.0,0.0,0.0,0.0,0.0,0.0,0.0,0.0,0.0,0.0,0.0,0.0,0.0,0.0,0.0,0.0,0.0,0.0,0.0,0.0,0.0,0.0,0.0,0.0,0.0,0.0,0.0,0.0,0.0,0.0,0.0,0.0,0.0,0.0,0.0,0.0,0.0,0.0,0.0,0.0,0.0,0.0,0.0,0.0,0.0,0.0,0.0,0.0,0.0,0.0,0.0,0.0,0.0,0.0,0.0,0.0,0.0,0.0,0.0,0.0,0.0,0.0,0.0,0.0,0.0,0.0,0.0,0.0,0.0,0.0,0.0,0.0,0.0,0.0,0.0,0.0,0.0,0.0,0.0,0.0,0.0,0.0,0.0,0.0,0.0,0.0,0.0,0.0,0.0,0.0,0.0,0.0,0.0,0.0,0.0,0.0,0.0,0.0,0.0,0.0,0.0,0.0,0.0,0.0,0.0,0.0,0.0,0.0,0.0,0.0,0.0,0.0,0.0,0.0,0.0,0.0,0.0,0.0,0.0,0.0,0.0,0.0,0.0,0.0,0.0,0.0,0.0,0.0,0.0,0.0,0.0,0.0,0.0,0.0,0.0,0.0,0.0,0.0,0.0,0.0,0.0,0.0,0.0,0.0,0.0,0.0,0.0,0.0,0.0,0.0,0.0,0.0,0.0,0.0,0.0,0.0,0.0,0.0,0.0,0.0,0.0,0.0,0.0,0.0,0.0,0.0,0.0,0.0,0.0,0.0,0.0,0.0,0.0,0.0,0.0,0.0,0.0,0.0,0.0,0.0,0.0,0.0,0.0,0.0,0.0,0.0,0.0,0.0,0.0,0.0,0.0,0.0,0.0,0.0,0.0,0.0,0.0,0.0,0.0,0.0,0.0,0.0,0.0,0.0,0.0,0.0,0.0,0.0,0.0,0.0,0.0,0.0,0.0,0.0,0.0,0.0,0.0,0.0,0.0,0.0,0.0,0.0,0.0,0.0,0.0,0.0,0.0,0.0,0.0,0.0,0.0,0.0,0.0,0.0,0.0,0.0,0.0,0.0,0.0,0.0,0.0,0.0,0.0,0.0,0.0,0.0,0.0,0.0,0.0,0.0,0.0,0.0,0.0,0.0,0.0,0.0,0.0,0.0,0.0,0.0,0.0,0.0,0.0,0.0,0.0,0.0,0.0,0.0,0.0,0.0,0.0,0.0,0.0,0.0,0.0,0.0,0.0,0.0,0.0,0.0,0.0,0.0,0.0,0.0,0.0,0.0,0.0,0.0,0.0,0.0,0.0,0.0,0.0,0.0,0.0,0.0,0.0,0.0,0.0,0.0,0.0,0.0,0.0,0.0,0.0,0.0,0.0,0.0,0.0,0.0,0.0,0.0,0.0,0.0,0.0,0.0,0.0,0.0,0.0,0.0,0.0,0.0,0.0,0.0,0.0,0.0,0.0,0.0,0.0,0.0,0.0,0.0,0.0,0.0,0.0,0.0,0.0,0.0,0.0,0.0,0.0,0.0,0.0,0.0,0.0,0.0,0.0,0.0,0.0,0.0,0.0,0.0,0.0,0.0,0.0,0.0,0.0,0.0,0.0,0.0,0.0,0.0,0.0,0.0,0.0,0.0,0.0,0.0,0.0,0.0,0.0,0.0,0.0,0.0,0.0,0.0,0.0,0.0,0.0,0.0,0.0,0.0,0.0,0.0,0.0,0.0,0.0,0.0,0.0,0.0,0.0,0.0,0.0,0.0,0.0,0.0,0.0,0.0,0.0,0.0,0.0,0.0,0.0,0.0,0.0,0.0,0.0,0.0,0.0,0.0,0.0,0.0,0.0,0.0,0.0,0.0,0.0,0.0,0.0,0.0,0.0,0.0,0.0,0.0,0.0,0.0,0.0,0.0,0.0,0.0,0.0,0.0,0.0,0.0,0.0,0.0,0.0,0.0,0.0,0.0,0.0,0.0,0.0,0.0,0.0,0.0,0.0,0.0,0.0,0.0,0.0,0.0,0.0,0.0,0.0,0.0,0.0,0.0,0.0,0.0,0.0,0.0,0.0,0.0,0.0,0.0,0.0,0.0,0.0,0.0,0.0,0.0,0.0,0.0,0.0,0.0,0.0,0.0,0.0,0.0,0.0,0.0,0.0,0.0,0.0,0.0,0.0,0.0,0.0,0.0,0.0,0.0,0.0,0.0,0.0,0.0,0.0,0.0,0.0,0.0,0.0,0.0,0.0,0.0,0.0,0.0,0.0,0.0,0.0,0.0,0.0,0.0,0.0,0.0,0.0,0.0,0.6005,0.0,0.0,0.0,0.0,0.0,0.0,0.0,0.0,0.0,0.0,0.0,0.0,0.0,0.0,0.0,0.0,0.0,0.0,0.0,0.0,0.0,0.0,0.0,0.0,0.0,0.0,0.0,0.0,0.0,0.0,0.0,0.0,0.0,0.0,0.0,0.0,0.0,0.0,0.0,0.0,0.0,0.0,0.0,0.0,0.0,0.0,0.0,0.0,0.0,0.0,0.0,0.0,0.0,0.0,0.0,0.0,0.0,0.0,0.0,0.0,0.0,0.0,0.0,0.0,0.0,0.0,0.0,0.0,0.0,0.0,0.0,0.0,0.0,0.0,0.0,0.0,0.0,0.0,0.0,0.0,0.0,0.0,0.0,0.0,0.0,0.0,0.0,0.0,0.0,0.0,0.0,0.0,0.0,0.0,0.0,0.0,0.0,0.0,0.0,0.0,0.0,0.0,0.0,0.0,0.0,0.0,0.0,0.0,0.0,0.0,0.6869,0.6815,0.6663,0.6554,0.6495,0.0,0.0,0.0,0.0,0.0,0.0,0.0,0.0,0.0,0.0,0.0,0.0,0.0,0.0,0.0,0.0,0.0,0.0,0.0,0.0,0.0,0.0,0.0,0.0,0.0,0.0,0.0,0.0,0.0,0.0,0.0,0.0,0.0,0.0,0.0,0.0,0.0,0.0,0.0,0.0,0.0,0.0,0.0,0.0,0.0,0.0,0.0,0.0,0.0,0.0,0.0,0.0,0.0,0.0,0.0,0.0,0.0,0.0,0.0,0.0,0.0,0.0,0.0,0.0,0.0,0.0,0.0,0.0,0.0,0.0,0.0,0.0,0.0,0.0,0.0,0.0,0.0,0.0,0.0,0.0,0.0,0.0,0.0,0.0,0.0,0.0,0.0,0.0,0.0,0.0,0.0,0.0,0.0,0.0,0.0,0.0,0.0,0.0,0.0,0.0,0.0,0.0,0.0,0.0,0.0,0.0,0.0,0.0,0.0,0.0,0.0,0.0,0.7144,0.6987,0.6933,0.0,0.0,0.0,0.0,0.0,0.0,0.0,0.0,0.0,0.0,0.0,0.0,0.0,0.0,0.0,0.0,0.0,0.0,0.0,0.0,0.0,0.0,0.0,0.0,0.0,0.0,0.0,0.0,0.0,0.0,0.0,0.0,0.0,0.0,0.0,0.0,0.0,0.0,0.0,0.0,0.0,0.0,0.0,0.0,0.0,0.0,0.0,0.0,0.0,0.0,0.0,0.0,0.0,0.0,0.0,0.0,0.0,0.0,0.0,0.0,0.0,0.0,0.0,0.0,0.0,0.0,0.0,0.0,0.0,0.0,0.0,0.0,0.0,0.0,0.0,0.0,0.0,0.0,0.0,0.0,0.0,0.0,0.0,0.0,0.0,0.0,0.0,0.0,0.0,0.0,0.0,0.0,0.0,0.0,0.0,0.0,0.0,0.0,0.0,0.0,0.0,0.0,0.0,0.0,0.0,0.0,0.0,0.0,0.0,0.0,0.7818,0.7824,0.7563,0.0,0.7085,0.0,0.0,0.0,0.0,0.0,0.0,0.0,0.0,0.0,0.0,0.0,0.0,0.0,0.0,0.0,0.0,0.0,0.0,0.0,0.0,0.0,0.0,0.0,0.0,0.0,0.0,0.0,0.0,0.0,0.0,0.0,0.0,0.0,0.0,0.0,0.0,0.0,0.0,0.0,0.0,0.0,0.0,0.0,0.0,0.0,0.0,0.0,0.0,0.0,0.0,0.0,0.0,0.0,0.0,0.0,0.0,0.0,0.0,0.0,0.0,0.0,0.0,0.0,0.0,0.0,0.0,0.0,0.0,0.0,0.0,0.0,0.0,0.0,0.0,0.0,0.0,0.0,0.0,0.0,0.0,0.0,0.0,0.0,0.0,0.0,0.0,0.0,0.0,0.0,0.0,0.0,0.0,0.0,0.0,0.0,0.0,0.0,0.0,0.0,0.0,0.0,0.0,0.0,0.0,0.0,0.0,0.0,0.0,0.0,0.0,0.8415,0.8302,0.8049,0.7788,0.0,0.0,0.0,0.0,0.0,0.0,0.0,0.0,0.0,0.0,0.0,0.0,0.0,0.0,0.0,0.0,0.0,0.0,0.0,0.0,0.0,0.0,0.0,0.0,0.0,0.0,0.0,0.0,0.0,0.0,0.0,0.0,0.0,0.0,0.0,0.0,0.0,0.0,0.0,0.0,0.0,0.0,0.0,0.0,0.0,0.0,0.0,0.0,0.0,0.0,0.0,0.0,0.0,0.0,0.0,0.0,0.0,0.0,0.0,0.0,0.0,0.0,0.0,0.0,0.0,0.0,0.0,0.0,0.0,0.0,0.0,0.0,0.0,0.0,0.0,0.0,0.0,0.0,0.0,0.0,0.0,0.0,0.0,0.0,0.0,0.0,0.0,0.0,0.0,0.0,0.0,0.0,0.0,0.0,0.0,0.0,0.0,0.0,0.0,0.0,0.0,0.0,0.0,0.0,0.0,0.0,0.0,0.0,0.0,0.0,0.891,0.885,0.8685,0.848,0.8215,0.7984,0.0,0.0,0.0,0.0,0.0,0.0,0.0,0.0,0.0,0.0,0.0,0.0,0.0,0.0,0.0,0.0,0.0,0.0,0.0,0.0,0.0,0.0,0.0,0.0,0.0,0.0,0.0,0.0,0.0,0.0,0.0,0.0,0.0,0.0,0.0,0.0,0.0,0.0,0.0,0.0,0.0,0.0,0.0,0.0,0.0,0.0,0.0,0.0,0.0,0.0,0.0,0.0,0.0,0.0,0.0,0.0,0.0,0.0,0.0,0.0,0.0,0.0,0.0,0.0,0.0,0.0,0.0,0.0,0.0,0.0,0.0,0.0,0.0,0.0,0.0,0.0,0.0,0.0,0.0,0.0,0.0,0.0,0.0,0.0,0.0,0.0,0.0,0.0,0.0,0.0,0.0,0.0,0.0,0.0,0.0,0.0,0.0,0.0,0.0,0.0,0.0,0.0,0.0,0.0,0.0,0.0,0.0,0.0,0.9159,0.9211,0.9106,0.9008,0.8857,0.8692,0.0,0.0,0.0,0.0,0.0,0.0,0.0,0.0,0.0,0.0,0.0,0.0,0.0,0.0,0.0,0.0,0.0,0.0,0.0,0.0,0.0,0.0,0.0,0.0,0.0,0.0,0.0,0.0,0.0,0.0,0.0,0.0,0.0,0.0,0.0,0.0,0.0,0.0,0.0,0.0,0.0,0.0,0.0,0.0,0.0,0.0,0.0,0.0,0.0,0.0,0.0,0.0,0.0,0.0,0.0,0.0,0.0,0.0,0.0,0.0,0.0,0.0,0.0,0.0,0.0,0.0,0.0,0.0,0.0,0.0,0.0,0.0,0.0,0.0,0.0,0.0,0.0,0.0,0.0,0.0,0.0,0.0,0.0,0.0,0.0,0.0,0.0,0.0,0.0,0.0,0.0,0.0,0.0,0.0,0.0,0.0,0.0,0.0,0.0,0.0,0.0,0.0,0.0,0.0,0.0,0.0,0.0,0.0,0.0,0.9458,0.9354,0.9316,0.9263,0.9106,0.8956,0.0,0.0,0.0,0.0,0.0,0.0,0.0,0.0,0.0,0.0,0.0,0.0,0.0,0.0,0.0,0.0,0.0,0.0,0.0,0.0,0.0,0.0,0.0,0.0,0.0,0.0,0.0,0.0,0.0,0.0,0.0,0.0,0.0,0.0,0.0,0.0,0.0,0.0,0.0,0.0,0.0,0.0,0.0,0.0,0.0,0.0,0.0,0.0,0.0,0.0,0.0,0.0,0.0,0.0,0.0,0.0,0.0,0.0,0.0,0.0,0.0,0.0,0.0,0.0,0.0,0.0,0.0,0.0,0.0,0.0,0.0,0.0,0.0,0.0,0.0,0.0,0.0,0.0,0.0,0.0,0.0,0.0,0.0,0.0,0.0,0.0,0.0,0.0,0.0,0.0,0.0,0.0,0.0,0.0,0.0,0.0,0.0,0.0,0.0,0.0,0.0,0.0,0.0,0.0,0.0,0.0,0.0,0.0,0.0,0.9614,0.0,0.9458,0.9458,0.9361,0.9159,0.0,0.0,0.0,0.0,0.0,0.0,0.0,0.0,0.0,0.0,0.0,0.0,0.0,0.0,0.0,0.0,0.0,0.0,0.0,0.0,0.0,0.0,0.0,0.0,0.0,0.0,0.0,0.0,0.0,0.0,0.0,0.0,0.0,0.0,0.0,0.0,0.0,0.0,0.0,0.0,0.0,0.0,0.0,0.0,0.0,0.0,0.0,0.0,0.0,0.0,0.0,0.0,0.0,0.0,0.0,0.0,0.0,0.0,0.0,0.0,0.0,0.0,0.0,0.0,0.0,0.0,0.0,0.0,0.0,0.0,0.0,0.0,0.0,0.0,0.0,0.0,0.0,0.0,0.0,0.0,0.0,0.0,0.0,0.0,0.0,0.0,0.0,0.0,0.0,0.0,0.0,0.0,0.0,0.0,0.0,0.0,0.0,0.0,0.0,0.0,0.0,0.0,0.0,0.0,0.0,0.0,0.0,0.0,0.9629,0.9629,0.9629,0.9636,0.9621,0.948,0.942,0.0,0.0,0.0,0.0,0.0,0.0,0.0,0.0,0.0,0.0,0.0,0.0,0.0,0.0,0.0,0.0,0.0,0.0,0.0,0.0,0.0,0.0,0.0,0.0,0.0,0.0,0.0,0.0,0.0,0.0,0.0,0.0,0.0,0.0,0.0,0.0,0.0,0.0,0.0,0.0,0.0,0.0,0.0,0.0,0.0,0.0,0.0,0.0,0.0,0.0,0.0,0.0,0.0,0.0,0.0,0.0,0.0,0.0,0.0,0.0,0.0,0.0,0.0,0.0,0.0,0.0,0.0,0.0,0.0,0.0,0.0,0.0,0.0,0.0,0.0,0.0,0.0,0.0,0.0,0.0,0.0,0.0,0.0,0.0,0.0,0.0,0.0,0.0,0.0,0.0,0.0,0.0,0.0,0.0,0.0,0.0,0.0,0.0,0.0,0.0,0.0,0.0,0.0,0.0,0.0,0.0,0.0,0.0,0.0,1.0172,1.0172,1.0172,1.0172,1.0119,0.9909,0.0,0.0,0.0,0.0,0.0,0.0,0.0,0.0,0.0,0.0,0.0,0.0,0.0,0.0,0.0,0.0,0.0,0.0,0.0,0.0,0.0,0.0,0.0,0.0,0.0,0.0,0.0,0.0,0.0,0.0,0.0,0.0,0.0,0.0,0.0,0.0,0.0,0.0,0.0,0.0,0.0,0.0,0.0,0.0,0.0,0.0,0.0,0.0,0.0,0.0,0.0,0.0,0.0,0.0,0.0,0.0,0.0,0.0,0.0,0.0,0.0,0.0,0.0,0.0,0.0,0.0,0.0,0.0,0.0,0.0,0.0,0.0,0.0,0.0,0.0,0.0,0.0,0.0,0.0,0.0,0.0,0.0,0.0,0.0,0.0,0.0,0.0,0.0,0.0,0.0,0.0,0.0,0.0,0.0,0.0,0.0,0.0,0.0,0.0,0.0,0.0,0.0,0.0,0.0,0.0,0.0,0.0,0.0,0.0,1.1081,1.0804,1.0675,1.0667,1.0557,1.029,0.9766,0.0,0.0,0.0,0.0,0.0,0.0,0.0,0.0,0.0,0.0,0.0,0.0,0.0,0.0,0.0,0.0,0.0,0.0,0.0,0.0,0.0,0.0,0.0,0.0,0.0,0.0,0.0,0.0,0.0,0.0,0.0,0.0,0.0,0.0,0.0,0.0,0.0,0.0,0.0,0.0,0.0,0.0,0.0,0.0,0.0,0.0,0.0,0.0,0.0,0.0,0.0,0.0,0.0,0.0,0.0,0.0,0.0,0.0,0.0,0.0,0.0,0.0,0.0,0.0,0.0,0.0,0.0,0.0,0.0,0.0,0.0,0.0,0.0,0.0,0.0,0.0,0.0,0.0,0.0,0.0,0.0,0.0,0.0,0.0,0.0,0.0,0.0,0.0,0.0,0.0,0.0,0.0,0.0,0.0,0.0,0.0,0.0,0.0,0.0,0.0,0.0,0.0,0.0,0.0,0.0,0.0,0.0,0.0,1.2313,1.1654,1.1207,1.1161,1.099,1.0767,0.0,0.0,0.0,0.0,0.0,0.0,0.0,0.0,0.0,0.0,0.0,0.0,0.0,0.0,0.0,0.0,0.0,0.0,0.0,0.0,0.0,0.0,0.0,0.0,0.0,0.0,0.0,0.0,0.0,0.0,0.0,0.0,0.0,0.0,0.0,0.0,0.0,0.0,0.0,0.0,0.0,0.0,0.0,0.0,0.0,0.0,0.0,0.0,0.0,0.0,0.0,0.0,0.0,0.0,0.0,0.0,0.0,0.0,0.0,0.0,0.0,0.0,0.0,0.0,0.0,0.0,0.0,0.0,0.0,0.0,0.0,0.0,0.0,0.0,0.0,0.0,0.0,0.0,0.0,0.0,0.0,0.0,0.0,0.0,0.0,0.0,0.0,0.0,0.0,0.0,0.0,0.0,0.0,0.0,0.0,0.0,0.0,0.0,0.0,0.0,0.0,0.0,0.0,0.0,0.0,0.0,0.0,0.0,0.0,1.2648,1.2877,1.2672,1.1995,1.1851,1.1397,0.0,0.0,0.0,0.0,0.0,0.0,0.0,0.0,0.0,0.0,0.0,0.0,0.0,0.0,0.0,0.0,0.0,0.0,0.0,0.0,0.0,0.0,0.0,0.0,0.0,0.0,0.0,0.0,0.0,0.0,0.0,0.0,0.0,0.0,0.0,0.0,0.0,0.0,0.0,0.0,0.0,0.0,0.0,0.0,0.0,0.0,0.0,0.0,0.0,0.0,0.0,0.0,0.0,0.0,0.0,0.0,0.0,0.0,0.0,0.0,0.0,0.0,0.0,0.0,0.0,0.0,0.0,0.0,0.0,0.0,0.0,0.0,0.0,0.0,0.0,0.0,0.0,0.0,0.0,0.0,0.0,0.0,0.0,0.0,0.0,0.0,0.0,0.0,0.0,0.0,0.0,0.0,0.0,0.0,0.0,0.0,0.0,0.0,0.0,0.0,0.0,0.0,0.0,0.0,0.0,0.0,0.0,0.0,1.2274,1.3079,1.3557,1.3541,1.3081,1.2544,1.2027,0.0,0.0,0.0,0.0,0.0,0.0,0.0,0.0,0.0,0.0,0.0,0.0,0.0,0.0,0.0,0.0,0.0,0.0,0.0,0.0,0.0,0.0,0.0,0.0,0.0,0.0,0.0,0.0,0.0,0.0,0.0,0.0,0.0,0.0,0.0,0.0,0.0,0.0,0.0,0.0,0.0,0.0,0.0,0.0,0.0,0.0,0.0,0.0,0.0,0.0,0.0,0.0,0.0,0.0,0.0,0.0,0.0,0.0,0.0,0.0,0.0,0.0,0.0,0.0,0.0,0.0,0.0,0.0,0.0,0.0,0.0,0.0,0.0,0.0,0.0,0.0,0.0,0.0,0.0,0.0,0.0,0.0,0.0,0.0,0.0,0.0,0.0,0.0,0.0,0.0,0.0,0.0,0.0,0.0,0.0,0.0,0.0,0.0,0.0,0.0,0.0,0.0,0.0,0.0,0.0,0.0,0.0,0.0,1.2814,1.3624,1.3982,1.4164,1.4148,1.324,1.2526,0.0,0.0,0.0,0.0,0.0,0.0,0.0,0.0,0.0,0.0,0.0,0.0,0.0,0.0,0.0,0.0,0.0,0.0,0.0,0.0,0.0,0.0,0.0,0.0,0.0,0.0,0.0,0.0,0.0,0.0,0.0,0.0,0.0,0.0,0.0,0.0,0.0,0.0,0.0,0.0,0.0,0.0,0.0,0.0,0.0,0.0,0.0,0.0,0.0,0.0,0.0,0.0,0.0,0.0,0.0,0.0,0.0,0.0,0.0,0.0,0.0,0.0,0.0,0.0,0.0,0.0,0.0,0.0,0.0,0.0,0.0,0.0,0.0,0.0,0.0,0.0,0.0,0.0,0.0,0.0,0.0,0.0,0.0,0.0,0.0,0.0,0.0,0.0,0.0,0.0,0.0,0.0,0.0,0.0,0.0,0.0,0.0,0.0,0.0,0.0,0.0,0.0,0.0,0.0,0.0,0.0,0.0,0.0,1.3257,1.4195,1.4417,1.4601,1.4743,1.3734,1.3018,0.0,0.0,0.0,0.0,0.0,0.0,0.0,0.0,0.0,0.0,0.0,0.0,0.0,0.0,0.0,0.0,0.0,0.0,0.0,0.0,0.0,0.0,0.0,0.0,0.0,0.0,0.0,0.0,0.0,0.0,0.0,0.0,0.0,0.0,0.0,0.0,0.0,0.0,0.0,0.0,0.0,0.0,0.0,0.0,0.0,0.0,0.0,0.0,1.2676,0.0,0.0,0.0,0.0,0.0,0.0,0.0,0.0,0.0,0.0,0.0,0.0,0.0,0.0,0.0,0.0,0.0,0.0,0.0,0.0,0.0,0.0,0.0,0.0,0.0,0.0,0.0,0.0,0.0,0.0,0.0,0.0,0.0,0.0,0.0,0.0,0.0,0.0,0.0,0.0,0.0,0.0,0.0,0.0,0.0,0.0,0.0,0.0,0.0,0.0,0.0,0.0,0.0,0.0,0.0,0.0,0.0,0.0,0.0,1.3725,1.4385,1.4608,1.4792,1.4848,1.3974,1.3247,0.0,0.0,0.0,0.0,0.0,0.0,0.0,0.0,0.0,0.0,0.0,0.0,0.0,0.0,0.0,0.0,0.0,0.0,0.0,0.0,0.0,0.0,0.0,0.0,0.0,0.0,0.0,0.0,0.0,0.0,0.0,0.0,0.0,0.0,0.0,0.0,0.0,0.0,0.0,0.0,0.0,0.0,0.0,0.0,0.0,0.0,0.0,0.0,0.0,0.0,0.0,0.0,0.0,0.0,0.0,0.0,0.0,0.0,0.0,0.0,0.0,0.0,0.0,0.0,0.0,0.0,0.0,0.0,0.0,0.0,0.0,0.0,0.0,0.0,0.0,0.0,0.0,0.0,0.0,0.0,0.0,0.0,0.0,0.0,0.0,0.0,0.0,0.0,0.0,0.0,0.0,0.0,0.0,0.0,0.0,0.0,0.0,0.0,0.0,0.0,0.0,0.0,0.0,0.0,0.0,0.0,0.0,1.3372,1.4128,1.4535,1.4782,1.4935,1.4927,1.4094,1.3459,1.3124,0.0,0.0,0.0,0.0,0.0,0.0,0.0,0.0,0.0,0.0,0.0,0.0,0.0,0.0,0.0,0.0,0.0,0.0,0.0,0.0,0.0,0.0,0.0,0.0,0.0,0.0,0.0,0.0,0.0,0.0,0.0,0.0,0.0,0.0,0.0,0.0,0.0,0.0,1.2735,1.2626,0.0,0.0,0.0,0.0,0.0,0.0,0.0,0.0,1.397,0.0,0.0,0.0,0.0,0.0,0.0,0.0,0.0,0.0,0.0,0.0,0.0,0.0,0.0,0.0,0.0,0.0,0.0,0.0,0.0,0.0,0.0,0.0,0.0,0.0,0.0,0.0,0.0,0.0,0.0,0.0,0.0,0.0,0.0,0.0,0.0,0.0,0.0,0.0,0.0,0.0,0.0,0.0,0.0,0.0,0.0,0.0,0.0,0.0,0.0,0.0,0.0,0.0,0.0,0.0,0.0,1.3317,1.381,1.4445,1.5317,1.5251,1.5133,1.5117,1.4299,1.3667,1.3302,0.0,0.0,0.0,0.0,0.0,0.0,0.0,0.0,0.0,0.0,0.0,0.0,0.0,0.0,0.0,0.0,0.0,0.0,0.0,0.0,0.0,0.0,0.0,0.0,0.0,0.0,0.0,0.0,0.0,0.0,0.0,0.0,0.0,0.0,0.0,0.0,0.0,0.0,0.0,1.2974,1.3144,0.0,0.0,0.0,0.0,0.0,0.0,0.0,0.0,1.3736,0.0,0.0,0.0,0.0,0.0,0.0,0.0,0.0,0.0,0.0,0.0,0.0,0.0,0.0,0.0,0.0,0.0,0.0,0.0,0.0,0.0,0.0,0.0,0.0,0.0,0.0,0.0,0.0,0.0,0.0,0.0,0.0,0.0,0.0,0.0,0.0,0.0,0.0,0.0,0.0,0.0,0.0,0.0,0.0,0.0,0.0,0.0,0.0,0.0,0.0,0.0,0.0,0.0,0.0,0.0,1.3807,1.451,1.5138,1.5762,1.5638,1.5505,1.5488,1.4511,1.3866,0.0,0.0,0.0,0.0,0.0,0.0,0.0,0.0,0.0,0.0,0.0,0.0,0.0,0.0,0.0,0.0,0.0,0.0,0.0,0.0,0.0,0.0,0.0,0.0,0.0,0.0,0.0,0.0,0.0,0.0,0.0,0.0,0.0,0.0,0.0,0.0,0.0,0.0,0.0,0.0,1.3176,1.3326,1.3389,0.0,0.0,0.0,0.0,0.0,0.0,1.4496,1.4544,0.0,0.0,0.0,0.0,0.0,0.0,0.0,0.0,0.0,0.0,0.0,0.0,0.0,0.0,0.0,0.0,0.0,0.0,0.0,0.0,0.0,0.0,0.0,0.0,0.0,0.0,0.0,0.0,0.0,0.0,0.0,0.0,0.0,0.0,0.0,0.0,0.0,0.0,0.0,0.0,0.0,0.0,0.0,0.0,0.0,0.0,0.0,0.0,0.0,0.0,0.0,0.0,0.0,0.0,0.0,1.4395,1.5252,1.5866,1.6254,1.607,1.5938,1.585,1.4782,1.4057,0.0,0.0,0.0,0.0,0.0,0.0,0.0,0.0,0.0,0.0,0.0,0.0,0.0,0.0,0.0,0.0,0.0,0.0,0.0,0.0,0.0,0.0,0.0,0.0,0.0,0.0,0.0,0.0,0.0,0.0,0.0,0.0,0.0,0.0,0.0,0.0,0.0,0.0,0.0,0.0,0.0,1.358,1.3697,1.3894,0.0,0.0,0.0,0.0,1.4898,1.5308,0.0,0.0,0.0,0.0,0.0,0.0,0.0,0.0,0.0,0.0,0.0,0.0,0.0,0.0,0.0,0.0,0.0,0.0,0.0,0.0,0.0,0.0,0.0,0.0,0.0,0.0,0.0,0.0,0.0,0.0,0.0,0.0,0.0,0.0,0.0,0.0,0.0,0.0,0.0,0.0,0.0,0.0,0.0,0.0,0.0,0.0,0.0,0.0,0.0,0.0,0.0,0.0,0.0,0.0,0.0,0.0,1.5469,1.599,1.641,1.6742,1.6612,1.6412,1.6272,1.5178,1.4518,0.0,0.0,0.0,0.0,0.0,0.0,0.0,0.0,0.0,0.0,0.0,0.0,0.0,0.0,0.0,0.0,0.0,0.0,0.0,0.0,0.0,0.0,0.0,0.0,0.0,0.0,0.0,0.0,0.0,0.0,0.0,0.0,0.0,0.0,0.0,0.0,0.0,0.0,0.0,0.0,0.0,1.4101,1.3931,1.4501,1.497,0.0,0.0,1.5606,1.5606,1.5652,0.0,0.0,0.0,0.0,0.0,0.0,0.0,0.0,0.0,0.0,0.0,0.0,0.0,0.0,0.0,0.0,0.0,0.0,0.0,0.0,0.0,0.0,0.0,0.0,0.0,0.0,0.0,0.0,0.0,0.0,0.0,0.0,0.0,0.0,0.0,0.0,0.0,0.0,0.0,0.0,0.0,0.0,0.0,0.0,0.0,0.0,0.0,0.0,0.0,0.0,0.0,0.0,0.0,0.0,0.0,1.5718,1.6246,1.6911,1.733,1.752,1.7245,1.6968,1.6821,1.5713,1.4967,0.0,0.0,0.0,0.0,0.0,0.0,0.0,0.0,0.0,0.0,0.0,0.0,0.0,0.0,0.0,0.0,0.0,0.0,0.0,0.0,0.0,0.0,0.0,0.0,0.0,0.0,0.0,0.0,0.0,0.0,0.0,0.0,0.0,0.0,0.0,0.0,0.0,0.0,0.0,0.0,0.0,0.0,1.4565,1.475,0.0,0.0,0.0,1.5758,1.5532,0.0,0.0,0.0,0.0,0.0,0.0,0.0,0.0,0.0,0.0,0.0,0.0,0.0,0.0,0.0,0.0,0.0,0.0,0.0,0.0,0.0,0.0,0.0,0.0,0.0,0.0,0.0,0.0,0.0,0.0,0.0,0.0,0.0,0.0,0.0,0.0,0.0,0.0,0.0,0.0,0.0,0.0,0.0,0.0,0.0,0.0,0.0,0.0,0.0,0.0,0.0,0.0,0.0,0.0,0.0,0.0,0.0,1.6898,1.7823,1.8279,1.8212,1.7852,1.7569,1.7364,1.6243,0.0,0.0,0.0,0.0,0.0,0.0,0.0,0.0,0.0,0.0,0.0,0.0,0.0,0.0,0.0,0.0,0.0,0.0,0.0,0.0,0.0,0.0,0.0,0.0,0.0,0.0,0.0,1.2891,0.0,0.0,0.0,0.0,0.0,0.0,0.0,0.0,0.0,0.0,0.0,0.0,0.0,0.0,1.4532,1.4949,1.507,1.5177,0.0,0.0,1.5936,1.5659,1.5999,1.6096,0.0,0.0,0.0,0.0,0.0,0.0,0.0,0.0,0.0,0.0,0.0,0.0,0.0,0.0,0.0,0.0,0.0,0.0,0.0,0.0,0.0,0.0,0.0,0.0,0.0,0.0,0.0,0.0,0.0,0.0,0.0,0.0,0.0,0.0,0.0,0.0,0.0,0.0,0.0,0.0,0.0,0.0,0.0,0.0,0.0,0.0,0.0,0.0,0.0,0.0,0.0,0.0,0.0,0.0,1.744,1.7502,1.8479,1.8942,1.8741,1.8509,1.825,1.793,1.6637,1.5872,0.0,0.0,0.0,0.0,0.0,0.0,0.0,0.0,0.0,0.0,0.0,0.0,0.0,0.0,0.0,0.0,0.0,0.0,0.0,0.0,0.0,0.0,0.0,0.0,0.0,0.0,0.0,0.0,0.0,0.0,0.0,0.0,0.0,0.0,0.0,0.0,0.0,0.0,0.0,0.0,0.0,1.509,1.4889,1.5467,1.5887,0.0,1.604,1.6298,1.6271,1.628,1.6243,1.6008,0.0,0.0,0.0,0.0,0.0,0.0,0.0,0.0,0.0,0.0,0.0,0.0,0.0,0.0,0.0,0.0,0.0,0.0,0.0,0.0,0.0,0.0,0.0,0.0,0.0,0.0,0.0,0.0,0.0,0.0,0.0,0.0,0.0,0.0,0.0,0.0,0.0,0.0,0.0,0.0,0.0,0.0,0.0,0.0,0.0,0.0,0.0,0.0,0.0,0.0,0.0,0.0,0.0,1.7915,1.811,1.9062,1.9539,1.9473,1.9177,1.8854,1.8472,1.7402,1.6577,0.0,0.0,0.0,0.0,0.0,0.0,0.0,0.0,0.0,0.0,0.0,0.0,0.0,0.0,0.0,0.0,0.0,0.0,0.0,0.0,0.0,0.0,0.0,0.0,0.0,0.0,0.0,0.0,1.3496,1.3555,1.3291,0.0,0.0,0.0,0.0,0.0,0.0,0.0,0.0,0.0,0.0,1.5079,1.5355,1.5562,0.0,0.0,1.6105,1.6202,1.6202,1.6281,1.6209,1.5877,1.5757,0.0,0.0,0.0,0.0,0.0,0.0,0.0,0.0,0.0,0.0,0.0,0.0,0.0,0.0,0.0,0.0,0.0,0.0,0.0,0.0,0.0,0.0,0.0,0.0,0.0,0.0,0.0,0.0,0.0,0.0,0.0,0.0,0.0,0.0,0.0,0.0,0.0,0.0,0.0,0.0,0.0,0.0,0.0,0.0,0.0,0.0,0.0,0.0,0.0,0.0,0.0,0.0,1.8358,1.8743,1.9597,2.0064,2.0074,1.9715,1.9375,1.8921,1.8031,1.7139,0.0,0.0,0.0,0.0,0.0,0.0,0.0,0.0,0.0,0.0,0.0,0.0,0.0,0.0,0.0,0.0,0.0,0.0,0.0,0.0,0.0,0.0,0.0,0.0,0.0,0.0,0.0,0.0,1.3806,1.3874,1.3574,0.0,0.0,0.0,0.0,0.0,0.0,0.0,0.0,0.0,0.0,1.5192,1.5601,1.5659,1.5765,1.5965,1.6,1.6,1.6,1.6079,1.6105,1.5824,0.0,0.0,0.0,0.0,0.0,0.0,0.0,0.0,0.0,0.0,0.0,0.0,0.0,0.0,0.0,0.0,0.0,0.0,0.0,0.0,0.0,0.0,0.0,0.0,0.0,0.0,0.0,1.7857,0.0,0.0,1.6873,0.0,0.0,0.0,0.0,0.0,0.0,0.0,0.0,0.0,0.0,0.0,0.0,0.0,0.0,0.0,0.0,0.0,0.0,0.0,0.0,0.0,0.0,1.8765,1.9397,2.0081,2.041,2.041,2.0172,1.9835,1.9288,1.8414,1.7471,1.6494,0.0,0.0,0.0,0.0,0.0,0.0,0.0,0.0,0.0,0.0,0.0,0.0,0.0,0.0,0.0,0.0,0.0,0.0,0.0,0.0,0.0,0.0,0.0,0.0,0.0,0.0,1.3917,1.3774,1.3739,0.0,0.0,0.0,0.0,0.0,0.0,0.0,0.0,0.0,0.0,1.5438,1.5654,1.5504,1.5817,1.5974,1.5797,1.5797,1.5797,1.5797,1.5797,1.5867,0.0,0.0,0.0,0.0,0.0,0.0,0.0,0.0,0.0,0.0,0.0,0.0,0.0,0.0,0.0,0.0,0.0,0.0,0.0,0.0,0.0,0.0,0.0,0.0,0.0,0.0,0.0,1.8395,1.8621,0.0,0.0,0.0,0.0,0.0,0.0,0.0,0.0,0.0,0.0,0.0,2.0407,2.0276,0.0,0.0,0.0,0.0,0.0,0.0,0.0,0.0,0.0,0.0,0.0,0.0,1.9503,1.9918,2.059,2.0839,2.0722,2.0506,2.0183,1.9715,1.8909,1.7919,1.6787,0.0,0.0,0.0,0.0,0.0,0.0,0.0,0.0,0.0,0.0,0.0,0.0,0.0,0.0,0.0,0.0,0.0,0.0,0.0,0.0,0.0,0.0,0.0,0.0,0.0,1.4353,0.0,0.0,0.0,0.0,0.0,0.0,0.0,0.0,0.0,0.0,0.0,1.4711,1.509,1.5254,1.5369,1.5339,1.5404,1.5497,0.0,0.0,0.0,0.0,0.0,0.0,0.0,0.0,0.0,0.0,0.0,0.0,0.0,0.0,1.5627,1.4904,1.4863,1.4967,1.4967,0.0,0.0,0.0,0.0,0.0,0.0,0.0,0.0,0.0,0.0,0.0,0.0,0.0,0.0,1.9935,0.0,2.0019,0.0,0.0,0.0,0.0,0.0,0.0,0.0,0.0,2.1299,2.1758,2.2213,2.2242,2.2092,0.0,2.1389,2.0386,0.0,0.0,0.0,0.0,0.0,0.0,0.0,0.0,2.0172,2.0602,2.1049,2.121,2.1094,2.0828,2.0518,2.0064,1.9052,1.8035,1.7119,1.6438,1.5897,0.0,0.0,0.0,0.0,0.0,0.0,0.0,0.0,0.0,0.0,0.0,0.0,0.0,0.0,0.0,0.0,0.0,0.0,0.0,0.0,0.0,0.0,0.0,1.4494,0.0,0.0,0.0,0.0,0.0,0.0,0.0,0.0,0.0,1.4258,1.4495,1.4815,1.5087,1.5189,1.5219,1.5171,0.0,0.0,0.0,0.0,0.0,0.0,0.0,1.5584,1.5592,1.579,1.5873,1.5873,1.6154,1.6242,1.6089,0.0,0.0,1.5283,1.53,1.5325,1.5246,1.5291,1.5267,1.5322,1.5263,1.5359,0.0,0.0,0.0,0.0,0.0,0.0,0.0,0.0,2.1447,2.1832,0.0,2.2278,0.0,0.0,0.0,0.0,2.1042,2.1625,0.0,0.0,2.3277,2.3659,2.3811,2.4146,2.4112,2.3705,2.3303,2.2777,2.2174,2.0545,0.0,0.0,0.0,0.0,0.0,0.0,2.0754,2.1365,2.1388,2.1388,2.14,2.1083,2.0775,2.0324,1.8781,1.7775,1.7419,1.6661,1.623,1.6201,1.5707,0.0,0.0,0.0,0.0,0.0,0.0,0.0,0.0,0.0,0.0,0.0,0.0,0.0,0.0,0.0,0.0,0.0,0.0,0.0,0.0,1.4461,0.0,0.0,0.0,0.0,0.0,0.0,0.0,0.0,0.0,0.0,1.4323,1.4629,1.4898,1.4907,0.0,0.0,0.0,0.0,1.5221,1.5221,1.5454,1.5692,1.5692,1.5996,1.6226,1.6226,0.0,0.0,1.6275,1.6283,1.6154,1.5753,1.5723,1.5745,1.6239,1.6267,1.6166,1.5928,1.5745,1.5732,1.5777,1.5774,1.5706,2.4806,0.0,0.0,0.0,0.0,2.2937,2.3422,2.3837,2.4418,2.4762,2.4926,2.4758,0.0,0.0,0.0,0.0,0.0,0.0,2.4065,2.4909,2.5103,2.5193,2.5193,2.5165,2.498,2.454,2.4061,2.3719,2.3527,2.2724,2.1807,2.086,0.0,0.0,0.0,0.0,2.1522,2.1612,2.1737,2.1737,2.1624,2.14,2.0816,1.9868,1.9017,1.8348,1.7812,1.7485,1.7073,1.6684,1.6561,0.0,0.0,0.0,0.0,0.0,0.0,0.0,0.0,0.0,0.0,0.0,0.0,0.0,0.0,0.0,0.0,0.0,0.0,0.0,1.5095,1.4962,1.4898,0.0,0.0,0.0,0.0,0.0,0.0,0.0,0.0,0.0,1.4379,1.462,1.4783,0.0,0.0,1.4927,1.4784,1.5001,1.5169,1.5177,1.5458,0.0,1.5547,1.5557,1.562,1.5374,1.5584,1.5913,1.6082,1.6129,1.6207,1.6268,1.6329,1.6399,1.6691,1.6441,1.6064,1.5975,1.6329,1.6607,1.6629,1.6566,1.6597,2.7129,2.5564,2.5022,2.4823,2.4955,2.5426,2.5741,2.5917,2.6408,2.658,2.6536,2.6419,2.601,2.5452,2.5198,0.0,0.0,0.0,2.5665,2.6378,2.6686,2.6703,2.6627,2.6608,2.6396,2.5953,2.5423,2.5043,2.4819,2.4338,2.3537,2.2477,0.0,0.0,2.1874,2.2128,2.2247,2.2135,2.2123,2.2061,2.1886,2.1474,2.07,1.9736,1.9208,1.8674,1.8212,1.793,1.7678,1.7379,1.7073,1.6739,0.0,0.0,0.0,0.0,0.0,0.0,0.0,0.0,0.0,0.0,0.0,1.4033,1.4296,0.0,0.0,0.0,1.5495,1.5432,1.5219,1.5041,0.0,0.0,0.0,0.0,0.0,0.0,0.0,1.4212,1.4453,1.4541,1.4471,1.4741,1.4863,1.4784,1.4921,1.5009,1.4855,0.0,1.5237,1.5312,1.552,1.5584,1.5521,1.563,1.5643,1.5469,1.5629,1.5835,1.6041,1.6095,1.6163,1.624,1.6216,1.6329,1.6481,1.6309,1.6214,1.6222,1.6624,1.6846,1.6981,1.6937,1.6959,2.8871,2.8691,2.7899,2.7451,2.7313,2.7377,2.755,2.7778,2.7826,2.7777,2.7679,2.7637,2.7438,2.7051,2.6832,0.0,2.6891,2.6863,2.704,2.7381,2.7957,2.8202,2.8117,2.8341,2.8217,2.7825,2.721,2.6654,2.6129,2.5647,2.517,2.4744,2.404,2.3419,2.2982,2.3019,2.291,2.2813,2.2616,2.2407,2.2135,2.136,2.0571,1.9933,1.9407,1.8875,1.8482,1.8134,1.794,1.792,1.7417,1.7129,1.7071,0.0,0.0,0.0,0.0,0.0,0.0,0.0,0.0,0.0,0.0,0.0,0.0,0.0,0.0,0.0,1.5724,0.0,1.5085,1.4896,0.0,0.0,0.0,1.4229,1.4296,1.461,1.4747,1.4522,0.0,0.0,1.4728,1.5014,1.5094,1.4768,1.5014,1.5221,1.5221,1.537,1.5436,1.5436,1.5558,1.5614,1.5622,1.5851,1.5944,1.5944,1.6004,1.5997,1.5997,1.6012,1.5914,1.5868,1.5747,1.5888,1.5979,1.6294,1.6536,1.6721,1.6736,1.6825,1.6919,1.6894,1.6974,3.1067,3.1087,3.081,2.9736,2.8268,2.8814,2.9118,2.932,2.9836,3.0011,2.9987,2.9889,2.9387,2.8558,2.7817,2.7881,2.8466,2.8339,2.8646,2.9281,2.9383,2.9576,2.9876,2.9754,2.9713,2.972,2.9162,2.8606,2.8024,2.7739,2.7243,2.6687,2.634,2.5276,2.3488,2.387,2.3901,2.3468,2.333,2.2759,2.1835,2.136,2.0764,2.0042,1.9452,1.8865,1.8337,1.7988,1.7725,1.7598,1.7512,1.7244,1.6855,1.6515,0.0,0.0,0.0,0.0,0.0,0.0,0.0,0.0,0.0,1.5106,1.5629,0.0,1.603,0.0,1.667,1.6663,1.6452,1.6224,0.0,0.0,1.5799,1.5716,1.5568,1.5642,1.5616,1.5383,1.5455,1.5511,1.5427,1.5507,1.5531,1.5443,1.5507,1.557,1.5357,1.5568,1.5707,1.5571,1.5736,1.5875,1.5703,1.5613,1.5597,1.559,1.5597,1.5597,1.559,1.5597,1.5738,1.6102,1.6227,1.6448,1.685,1.7062,1.6992,1.6928,1.7021,1.7213,1.7201,1.7037,1.6973,3.2161,3.2161,3.2144,3.1373,3.0204,3.0479,3.059,3.0696,3.1087,3.1201,3.1123,3.0988,3.0587,3.0002,2.9466,2.9476,2.988,2.9758,3.0112,3.0879,3.0734,3.0952,3.1426,3.1068,3.0894,3.0709,3.021,2.9689,2.9085,2.8761,2.8282,2.7782,2.7516,2.6708,2.5302,2.5145,2.4882,2.4507,2.4115,2.3481,2.2521,2.2097,2.1506,2.0762,2.0086,1.9479,1.9004,1.8584,1.8283,1.8293,1.8232,1.7961,1.7619,1.7282,1.693,0.0,0.0,0.0,0.0,0.0,0.0,0.0,0.0,0.0,0.0,0.0,1.656,1.7081,1.7172,1.7052,1.6758,1.6607,1.6387,1.6158,1.6081,1.5996,1.5912,1.5843,1.5835,1.575,1.5674,1.5674,1.5674,1.5817,1.592,1.5772,1.589,1.5937,1.5677,1.5839,1.5894,1.565,1.5718,1.5756,1.5582,1.5506,1.5431,1.5431,1.5431,1.5431,1.5431,1.5431,1.5515,1.5872,1.5987,1.619,1.6699,1.6743,1.6786,1.6835,1.6965,1.6958,1.6958,1.6871,1.6784,3.2639,3.259,3.2557,3.2506,3.2352,3.2073,3.1893,3.1856,3.1873,3.1783,3.1654,3.1466,3.1351,3.1308,3.1134,3.1095,3.1095,3.1066,3.1388,3.206,3.2035,3.2297,3.2788,3.239,3.1983,3.1528,3.1041,3.0486,2.9952,2.95,2.9053,2.8656,2.8338,2.7987,2.7603,2.6679,2.6018,2.5714,2.4999,2.4312,2.3549,2.3012,2.24,2.1651,2.0868,2.0288,1.9877,1.937,1.9068,1.9214,1.9068,1.8831,1.8589,1.816,1.7666,0.0,1.6618,0.0,0.0,0.0,0.0,0.0,0.0,0.0,0.0,1.704,1.7144,1.7539,1.7401,1.7123,1.6741,1.6528,1.6382,1.6134,1.5971,1.5809,1.5817,1.5817,1.5817,1.5817,1.5817,1.5817,1.5848,1.6087,1.6118,1.5989,1.6184,1.6157,1.5978,1.597,1.5884,1.565,1.5499,1.5423,1.5431,1.5431,1.5431,1.5431,1.5431,1.5431,1.534,1.5347,1.538,1.554,1.5568,1.568,1.6071,1.6197,1.6288,1.6539,1.6595,1.6588,1.6581,1.6588,1.6588,3.3055,3.3068,3.2943,3.2898,3.2848,3.2719,3.2472,3.2108,3.2108,3.2073,3.1984,3.1875,3.1785,3.1765,3.1671,3.1634,3.1668,3.2098,3.2361,3.2474,3.2923,3.3345,3.3846,3.3591,3.3514,3.3514,3.2986,3.2476,3.1848,3.1531,3.112,3.0514,3.0161,2.9757,2.9346,0.0,0.0,0.0,2.5803,2.4983,2.4025,2.3404,2.273,2.2056,2.1269,0.0,1.9929,1.9495,1.9141,1.8829,1.8765,0.0,0.0,0.0,0.0,0.0,0.0,0.0,0.0,0.0,0.0,0.0,1.7825,1.7652,1.7651,1.7658,1.7687,1.776,1.7804,1.7738,1.7481,1.7338,1.7105,1.6936,1.6693,1.6532,1.654,1.6524,1.6532,1.6532,1.6532,1.6524,1.6427,1.6424,1.6374,1.6285,1.6206,1.6057,1.5816,1.5779,1.5658,1.5506,1.5431,1.5431,1.5431,1.5431,1.5431,1.5431,1.5431,1.5347,1.5173,1.5173,1.5304,1.5535,1.5669,1.5852,1.6364,1.6497,1.6404,1.6298,1.6319,1.6312,1.6588,1.6407,1.6312,3.3712,3.4029,3.3597,3.3563,0.0,3.3388,3.3225,3.3204,3.2716,3.2439,3.2284,3.2232,3.2161,3.2126,3.2492,3.2647,3.2609,3.3225,3.3662,3.3962,3.412,3.4465,3.4992,3.466,3.4488,3.4399,3.3848,3.333,3.285,3.2398,3.1951,3.1522,3.0999,3.0658,3.0358,2.9713,2.863,2.7157,2.6629,2.59,2.5019,2.4312,2.3607,2.2842,2.2197,0.0,0.0,0.0,0.0,0.0,0.0,0.0,0.0,1.9609,0.0,1.9141,1.9131,1.9049,1.8902,1.8765,1.8703,1.8686,1.8519,1.8326,1.8118,1.8082,1.8074,1.8074,1.8009,1.7878,1.7546,1.7473,1.731,1.6976,1.6812,1.673,1.673,1.673,1.673,1.6648,1.6648,1.6558,1.6566,1.6402,1.6237,1.6064,1.5989,1.5831,1.5582,1.5658,1.5658,1.5431,1.5431,1.5431,1.5431,1.5431,1.5431,1.5431,1.5347,1.5173,1.509,1.4999,1.5029,1.5429,1.55,1.5687,1.6053,1.6211,1.6109,1.6028,1.6028,1.6028,1.6211,1.6116,1.6021,3.4602,3.5257,3.4679,3.4687,3.4984,3.4298,3.4243,3.4524,3.3627,0.0,0.0,3.2981,3.2929,3.2844,3.3459,3.374,3.3739,3.4364,3.4987,3.5456,3.5359,3.553,3.5888,3.5549,3.5228,3.4787,3.425,3.3781,3.3382,3.2834,3.2398,3.2094,3.1495,3.1131,3.097,3.0129,2.9198,2.8157,2.7497,2.6769,2.6107,2.537,2.4647,2.3875,2.3298,2.2703,2.2111,2.1655,2.1436,2.1359,2.1185,2.0948,2.0852,2.0822,2.0575,2.0056,1.9942,1.9796,1.9492,1.9354,1.9286,1.9086,1.8876,1.8709,1.8404,1.8338,1.8353,1.8362,1.8112,1.7878,1.7473,1.7392,1.7229,1.682,1.6738,1.673,1.673,1.673,1.673,1.6656,1.6476,1.6394,1.6312,1.6162,1.5914,1.5741,1.5658,1.5582,1.5423,1.5582,1.5582,1.5423,1.5431,1.5431,1.5431,1.5431,1.5431,1.5347,1.5173,1.509,1.4999,1.4874,1.4877,1.5219,1.5266,1.5454,1.5698,1.5825,1.5825,1.5825,1.5825,1.5825,1.5825,1.5737,1.5737,3.5969,3.657,3.6846,3.6737,3.6305,3.6095,3.5915,3.5733,3.5169,3.4918,3.4918,3.4902,3.485,3.4711,3.4817,3.4818,3.48,3.5469,3.5761,3.577,3.63,3.6405,3.6216,3.6019,3.565,3.5224,3.4675,3.4202,3.3802,3.3403,3.2958,3.2547,3.2176,3.1667,3.1029,3.0507,2.9946,2.9498,2.8287,2.7377,2.6837,2.6289,2.5581,2.4802,2.425,2.3751,2.3075,2.2553,2.2101,2.1949,2.1807,2.1624,2.1649,2.1628,2.1607,2.146,2.1318,2.1242,2.1156,2.0698,2.0101,1.9307,1.9192,1.8929,1.8479,1.8167,1.804,1.8031,1.804,1.787,1.77,1.7473,1.731,1.7049,1.6804,1.673,1.6648,1.6648,1.6648,1.6476,1.6394,1.6319,1.6162,1.5906,1.5741,1.5658,1.5582,1.5431,1.5431,1.5423,1.5431,1.5431,1.5431,1.5431,1.5431,1.5431,1.534,1.518,1.509,1.4922,1.4657,1.4675,1.487,1.4993,1.5214,1.551,1.5765,1.5825,1.5825,1.5825,1.5825,1.5825,1.5825,1.5635,1.554,3.7431,3.7765,3.7807,3.7692,3.7524,3.7291,3.7119,3.6956,3.7137,3.6544,3.5562,3.5508,3.5457,3.5341,3.5771,3.5916,3.5918,3.6541,3.6785,3.669,3.6872,3.6834,3.655,3.6301,3.5958,3.556,3.5071,3.4675,3.4284,3.3832,3.3435,3.3049,3.2617,3.212,3.1567,3.1248,3.0837,3.0283,2.9044,2.8157,2.7696,2.7095,2.6402,2.5767,2.5276,2.4719,2.407,2.3779,2.3486,2.3043,2.2968,2.2905,2.2777,2.2703,2.2735,2.2972,2.2709,2.2516,2.26,2.165,2.0847,2.0207,1.9805,1.9424,1.899,1.8616,1.8254,1.7985,1.787,1.7789,1.7546,1.7383,1.7147,1.6894,1.6738,1.6648,1.6558,1.6566,1.6484,1.6245,1.6072,1.5989,1.5906,1.5658,1.5582,1.5582,1.5423,1.5431,1.5431,1.5431,1.5431,1.5431,1.5431,1.5431,1.5347,1.5257,1.5173,1.509,1.4915,1.4657,1.4405,1.4477,1.4642,1.4952,1.5084,1.5337,1.5725,1.5825,1.5825,1.5825,1.5825,1.573,1.5635,1.535,1.5166,3.8816,3.8906,3.8672,3.8622,3.8639,3.8396,3.8234,3.8164,3.8876,3.826,3.6812,3.6458,3.6254,3.6182,3.6762,3.6964,3.7021,3.7596,3.7755,3.7466,3.7476,3.7302,3.6908,3.655,3.6216,3.5922,3.5609,3.5321,3.5051,3.4707,3.4381,3.3985,3.3347,3.2795,3.2435,3.2053,3.1622,3.1029,2.9964,2.9107,2.8532,2.7815,2.7204,2.6705,2.6308,2.5755,2.5146,2.4992,2.4707,2.4288,2.4143,2.407,2.3886,2.3779,2.3843,2.4178,2.3963,2.3649,2.3412,2.2319,2.1422,2.095,2.0274,1.9856,1.9486,1.9065,1.8562,1.8147,1.784,1.7619,1.7383,1.7229,1.6976,1.6648,1.6656,1.6566,1.6394,1.6312,1.6237,1.5997,1.5824,1.5741,1.5658,1.5506,1.5431,1.5431,1.5431,1.5431,1.5431,1.5347,1.5347,1.5347,1.5347,1.534,1.534,1.5166,1.4999,1.5006,1.465,1.4482,1.4334,1.4213,1.4329,1.4763,1.493,1.517,1.5605,1.5725,1.5651,1.5697,1.573,1.5642,1.535,1.4975,1.479,3.9986,3.9966,3.9945,3.9901,3.9719,3.9584,3.94,3.935,4.0074,4.0178,3.9552,3.8664,3.8164,3.8038,3.8011,3.798,3.7984,3.8654,3.8528,3.7882,3.8345,3.814,3.7344,3.6965,3.6574,3.6354,3.648,3.6481,3.6248,3.6339,3.6153,3.5556,3.4619,3.3975,3.3652,3.2927,3.2342,3.1868,3.1495,3.0569,2.9296,2.8675,2.813,2.7604,2.7271,2.6824,2.6264,2.5894,2.5557,2.5229,2.5028,2.4814,2.4706,2.4885,2.4952,2.4871,2.4889,2.4445,2.3395,2.2564,2.1792,2.0969,2.0621,2.0139,1.9659,1.9307,1.8956,1.8579,1.8065,1.7627,1.7383,1.7229,1.6886,1.6476,1.6484,1.6319,1.6162,1.617,1.5997,1.5733,1.5658,1.5658,1.5506,1.5431,1.5431,1.5431,1.5431,1.5431,1.5347,1.5264,1.5173,1.509,1.509,1.5082,1.5082,1.4908,1.4741,1.4566,1.4398,1.4321,1.42,1.4269,1.4522,1.4589,1.4783,1.505,1.5297,1.5444,1.5451,1.5435,1.5406,1.5356,1.4975,1.4688,1.4694,4.0353,4.0317,4.0323,4.0215,4.008,3.9981,4.0116,4.0429,4.0704,4.0982,4.112,4.0661,4.0253,3.9908,3.9805,3.9738,3.9688,3.9823,3.9752,3.9373,3.9607,3.9421,3.889,3.8699,3.8362,3.7972,3.7878,3.7689,3.7354,3.702,3.6626,3.6296,3.5755,3.5304,3.4967,3.4279,3.3677,3.3125,3.2486,3.1751,3.0881,3.004,2.9359,2.898,2.8532,2.8091,2.7723,2.765,2.7503,2.7208,2.7193,2.7095,2.6952,2.6871,2.6843,2.6856,2.6503,2.5912,2.4852,2.4023,2.3267,2.2456,2.1907,2.1392,2.0799,2.0214,1.9604,1.9065,1.8135,1.7465,1.7221,1.6894,1.6632,1.6394,1.6319,1.6079,1.5733,1.565,1.5575,1.5409,1.5333,1.5423,1.5431,1.5431,1.5431,1.5431,1.5431,1.534,1.5257,1.5173,1.4999,1.4908,1.4734,1.4741,1.4831,1.4657,1.4482,1.4398,1.4321,1.4166,1.4186,1.4155,1.4309,1.4476,1.4609,1.4714,1.4896,1.5107,1.5166,1.5123,1.4994,1.4975,1.4783,1.4592,1.4496,4.0582,4.0574,4.0519,4.0556,4.0647,4.0557,4.0921,4.1559,4.1711,4.2019,4.2326,4.2508,4.2321,4.1839,4.1342,4.0991,4.0876,4.0957,4.0798,4.0617,4.0673,4.0544,4.0159,4.0027,3.9718,3.9329,3.9147,3.8974,3.8717,3.8153,3.7683,3.7477,3.7105,3.6674,3.6309,3.5658,3.5038,3.4431,3.3779,3.327,3.2741,3.178,3.0878,3.0129,2.9699,2.9331,2.9049,2.9263,2.9255,2.8953,2.9127,2.9054,2.8866,2.8707,2.861,2.8684,2.8076,2.7255,2.6268,2.5337,2.4584,2.3831,2.3135,2.2511,2.2045,2.1262,2.0489,1.9689,1.8562,1.7843,1.7229,1.6722,1.6394,1.6229,1.5997,1.5741,1.5318,1.5228,1.5151,1.4999,1.509,1.5173,1.534,1.5431,1.5431,1.5431,1.5347,1.5257,1.509,1.4999,1.4831,1.4657,1.4398,1.4398,1.4566,1.4489,1.4314,1.4321,1.4166,1.4088,1.4088,1.4088,1.4017,1.421,1.4283,1.4322,1.4395,1.4559,1.4714,1.4651,1.4521,1.45,1.4573,1.4388,1.4298,4.0804,4.0776,4.0713,4.1079,4.1769,4.1655,4.2002,4.268,4.3403,4.3631,4.3553,4.4171,4.4336,4.3863,4.2217,4.1267,4.1222,4.1818,4.1695,4.1045,4.154,4.1342,4.0528,4.0347,4.0157,4.0002,4.0246,4.0321,4.0343,4.0067,3.9902,3.9493,3.867,3.8096,3.7682,3.6954,3.6316,3.5764,3.5527,3.5324,3.4789,3.3945,3.2631,3.1102,3.0539,3.0477,3.0425,3.0474,3.0429,3.0324,3.0351,3.0227,2.992,3.0188,3.0207,2.9859,2.9213,2.8303,2.7232,2.6307,2.5484,2.4563,2.4059,2.3367,2.3153,2.2571,2.174,2.0361,1.9677,1.8792,1.7638,1.691,1.6229,1.5816,1.5567,1.5228,1.481,1.4734,1.4734,1.4741,1.4915,1.5173,1.5347,1.5431,1.5431,1.5347,1.5264,1.509,1.4999,1.4741,1.4482,1.4405,1.4237,1.4166,1.4321,1.4321,1.4166,1.4173,1.4166,1.4088,1.4088,1.4088,1.3932,1.3848,1.3809,1.3827,1.3835,1.3957,1.4013,1.4097,1.4099,1.4072,1.4169,1.4333,1.4256,4.0904,4.0859,4.084,4.1003,4.13,4.1699,4.2319,4.3096,4.3824,4.4345,4.4639,4.4871,4.4857,4.4591,4.382,4.3263,4.2931,4.3096,4.2923,4.2616,4.2754,4.2576,4.2268,4.2141,4.1915,4.1658,4.1658,4.1531,4.1174,4.0772,4.0466,4.0269,3.9867,3.9429,3.8935,3.8197,3.7557,3.7069,3.6534,3.6007,3.5586,3.5189,3.4588,3.3602,3.2435,3.1928,3.2265,3.2341,3.2348,3.235,3.2328,3.2346,3.2166,3.2022,3.164,3.1154,3.0519,2.9756,2.8809,2.7936,2.7116,2.6449,2.5891,2.5378,2.4872,2.4367,2.3608,2.2433,2.1361,2.0273,1.9011,1.7499,1.6229,1.5733,1.5409,1.5075,1.465,1.4482,1.4482,1.4573,1.4831,1.5173,1.5347,1.5431,1.5431,1.5431,1.5347,1.5173,1.4908,1.4657,1.4482,1.4237,1.4166,1.4082,1.4166,1.4166,1.4088,1.4088,1.4088,1.3997,1.3913,1.3828,1.375,1.358,1.3483,1.3417,1.3441,1.3392,1.3514,1.3664,1.3652,1.3701,1.3779,1.3948,1.4026,4.0983,4.0935,4.0928,4.1093,4.138,4.1849,4.2687,4.3666,4.4187,4.4754,4.5285,4.5283,4.5135,4.4995,4.49,4.4629,4.4199,4.3999,4.3809,4.3716,4.3563,4.3426,4.3322,4.3251,4.3067,4.2763,4.2552,4.2234,4.1788,4.1356,4.11,4.0913,4.071,4.0419,3.9919,3.9362,3.8873,3.8394,3.7804,3.7294,3.6815,3.6567,3.6348,3.5998,3.4732,3.3935,3.4,3.3999,3.4006,3.4097,3.4161,3.4192,3.4109,3.3644,3.3157,3.2635,3.2046,3.1315,3.0493,2.9782,2.9061,2.8354,2.8036,2.7624,2.7082,2.6726,2.6005,2.4949,2.3668,2.2511,2.0956,1.9119,1.7398,1.6206,1.5575,1.5075,1.4573,1.4475,1.4566,1.4734,1.4992,1.5173,1.5423,1.5431,1.5431,1.5431,1.534,1.5173,1.4824,1.465,1.4489,1.4173,1.4088,1.4088,1.4166,1.4082,1.3997,1.3997,1.3913,1.3822,1.3737,1.3652,1.3568,1.3398,1.3228,1.3137,1.3107,1.2972,1.3079,1.3326,1.3399,1.3435,1.3544,1.367,1.3743,4.0991,4.0988,4.0992,4.1418,4.2011,4.2156,4.3128,4.4355,4.4587,4.4968,4.5545,4.553,4.5381,4.5243,4.5203,4.5071,4.4833,4.4457,4.4151,4.3942,4.3897,4.3749,4.3513,4.3532,4.3358,4.3104,4.2765,4.2494,4.2216,4.1984,4.1744,4.1587,4.13,4.096,4.0563,4.0366,4.017,3.9698,3.946,3.9196,3.8816,3.8105,3.784,3.7939,3.7239,3.6435,3.5548,3.5339,3.5337,3.5601,3.5642,3.5608,3.5335,3.5059,3.4728,3.423,3.3754,3.3045,3.2164,3.1675,3.1048,3.0452,3.0213,2.9961,2.9631,2.944,2.8986,2.7819,2.6693,2.5279,2.3558,2.2043,1.9877,1.7017,1.6221,1.5636,1.5061,1.4734,1.4901,1.5318,1.5325,1.5325,1.5575,1.5665,1.559,1.5506,1.534,1.5159,1.4908,1.465,1.4405,1.4159,1.4166,1.4166,1.4166,1.4088,1.3913,1.3737,1.3737,1.3652,1.3483,1.3398,1.3307,1.3137,1.3052,1.2966,1.2875,1.2813,1.2868,1.3055,1.3103,1.3169,1.3266,1.3369,1.3471,4.0949,4.0984,4.0995,4.1132,4.1482,4.2012,4.2934,4.3962,4.4483,4.5172,4.5782,4.58,4.5708,4.5603,4.5505,4.5418,4.5303,4.5055,4.472,4.4345,4.417,4.4017,4.3878,4.3781,4.3634,4.3393,4.3124,4.2958,4.2788,4.2534,4.2269,4.2026,4.177,4.148,4.1053,4.0819,4.0531,4.0288,3.9986,3.9677,3.9451,3.9146,3.8933,3.8832,3.8559,3.8209,3.7858,3.7128,3.6718,3.6754,3.66,3.6477,3.629,3.6228,3.5897,3.5449,3.5145,3.4655,3.4023,3.3571,3.3198,3.2835,3.2596,3.2441,3.2129,3.2129,3.1721,3.0908,3.0058,2.8873,2.7133,2.5792,2.3147,1.8665,1.7641,1.7074,1.6347,1.5876,1.5809,1.5982,1.6064,1.6064,1.6147,1.6154,1.6072,1.5922,1.5665,1.5484,1.5235,1.4992,1.4734,1.4405,1.4321,1.4243,1.4159,1.4082,1.399,1.3737,1.3652,1.3483,1.3307,1.3137,1.3052,1.296,1.2881,1.2796,1.2705,1.2729,1.2795,1.2801,1.2862,1.2922,1.2964,1.3067,1.3105,4.0781,4.0855,4.0894,4.0953,4.1007,4.1574,4.248,4.3544,4.4114,4.4972,4.5842,4.5988,4.5933,4.5871,4.5796,4.5731,4.5645,4.5522,4.5246,4.4849,4.4549,4.4327,4.4121,4.3974,4.3832,4.3649,4.3477,4.3336,4.3286,4.2957,4.2691,4.2516,4.2292,4.1959,4.1569,4.1283,4.1007,4.0693,4.0436,4.0138,3.9935,3.9833,3.9729,3.954,3.9398,3.9292,3.9239,3.8606,3.81,3.7828,3.7695,3.7546,3.7488,3.7429,3.7175,3.6859,3.6569,3.6276,3.5791,3.5507,3.525,3.4976,3.4866,3.4771,3.4625,3.4625,3.4369,3.3906,3.3105,3.1971,3.0211,2.9026,2.6465,2.2754,2.0787,1.9412,1.8364,1.7688,1.7471,1.7568,1.7342,1.7107,1.7107,1.696,1.6796,1.6484,1.6312,1.5982,1.5733,1.5582,1.5242,1.4901,1.4741,1.458,1.4237,1.4159,1.399,1.3822,1.3568,1.3307,1.3052,1.296,1.2875,1.279,1.279,1.279,1.2705,1.2705,1.2735,1.2705,1.2705,1.2759,1.2837,1.2781,1.279,4.0519,4.0584,4.0818,4.1014,4.1054,4.1188,4.2217,4.3534,4.3746,4.4668,4.5846,4.6072,4.6041,4.6002,4.5975,4.5935,4.5901,4.5769,4.5631,4.5391,4.5063,4.472,4.4393,4.4199,4.4036,4.391,4.3777,4.3679,4.356,4.3356,4.316,4.2976,4.2691,4.2432,4.2086,4.1892,4.1542,4.1088,4.0901,4.068,4.0355,4.0305,4.0238,4.007,3.9986,3.9884,3.9764,3.9609,3.9398,3.8898,3.8717,3.8717,3.8788,3.8629,3.8446,3.8262,3.8117,3.7815,3.7467,3.7275,3.7112,3.6751,3.6886,3.7081,3.687,3.6839,3.6779,3.6474,3.5766,3.4592,3.2986,3.1784,3.012,2.7975,2.4644,2.2377,2.1035,2.0255,1.9907,1.9643,1.9061,1.8523,1.8665,1.8292,1.7908,1.7432,1.7269,1.6952,1.6558,1.6312,1.5914,1.5575,1.5325,1.5082,1.4824,1.465,1.4482,1.4153,1.3815,1.3476,1.3045,1.2875,1.279,1.2705,1.2705,1.2705,1.2705,1.2705,1.2705,1.2705,1.2705,1.2705,1.2643,1.2599,1.2457,4.0383,4.0234,4.1506,4.195,4.1866,4.2252,4.3092,4.4197,4.4285,4.489,4.5855,4.6035,4.603,4.6074,4.6013,4.6016,4.5991,4.5943,4.5879,4.5783,4.5631,4.5227,4.4789,4.4513,4.4345,4.4199,4.414,4.398,4.3818,4.366,4.3442,4.3232,4.3014,4.2711,4.2356,4.2145,4.1805,4.1453,4.1226,4.0995,4.0776,4.0648,4.0534,4.0419,4.0337,4.0337,4.0288,4.0271,4.002,3.9454,3.9401,3.9401,3.9401,3.9332,3.9209,3.9102,3.9049,3.887,3.8668,3.8613,3.8557,3.8446,3.8469,3.858,3.8596,3.8596,3.858,3.8437,3.8114,3.7415,3.6198,3.5005,3.328,3.0764,2.7402,2.4749,2.3849,2.3262,2.2736,2.2359,2.1977,2.1484,2.0841,2.043,1.9915,1.9298,1.8762,1.8301,1.79,1.7359,1.7115,1.6468,1.6139,1.5733,1.5492,1.5235,1.4985,1.4573,1.4237,1.3893,1.3385,1.2875,1.279,1.2705,1.2705,1.2705,1.2705,1.2705,1.2705,1.2705,1.2705,1.2705,1.2534,1.2392,1.2312,4.0272,4.0221,4.1393,4.1874,4.1901,4.2313,4.3099,4.3971,4.4192,4.477,4.5526,4.5741,4.5793,4.585,4.5851,4.5913,4.5963,4.5971,4.5953,4.5933,4.586,4.5568,4.5165,4.491,4.4714,4.4557,4.4495,4.4336,4.4162,4.398,4.3758,4.3545,4.3338,4.3032,4.2655,4.2414,4.2145,4.1805,4.1542,4.1272,4.1105,4.0948,4.0871,4.0776,4.0697,4.0631,4.0583,4.06,4.037,4.0037,3.9986,3.9986,3.9986,3.9969,3.9935,3.9868,3.9868,3.9782,3.9627,3.9644,3.9592,3.954,3.9592,3.9644,3.9627,3.9696,3.9731,3.961,3.9592,3.9035,3.8044,3.6705,3.4973,3.2904,3.0353,2.8242,2.7066,2.6286,2.5772,2.5261,2.48,2.4189,2.3363,2.2834,2.2136,2.1329,2.0748,2.0071,1.9464,1.893,1.8381,1.7971,1.7415,1.7172,1.6854,1.6609,1.6198,1.5711,1.5137,1.4636,1.3802,1.3209,1.296,1.2875,1.279,1.2705,1.2705,1.2705,1.2705,1.2705,1.2705,1.2619,1.2454,1.2283,1.2118,4.0004,4.0398,4.0811,4.1182,4.1473,4.1763,4.2502,4.3327,4.3589,4.4149,4.4863,4.5143,4.5186,4.5368,4.5351,4.5568,4.5653,4.5657,4.5839,4.5887,4.5893,4.5706,4.5491,4.5247,4.5101,4.4966,4.4881,4.4726,4.4541,4.4355,4.4151,4.3923,4.373,4.3408,4.305,4.2768,4.2472,4.2145,4.1866,4.1587,4.1408,4.1272,4.118,4.1076,4.0935,4.084,4.0745,4.0697,4.0648,4.0534,4.0534,4.0534,4.0517,4.0517,4.0517,4.0468,4.0468,4.0419,4.0355,4.0288,4.0288,4.0171,4.0238,4.0337,4.0337,4.037,4.0419,4.0288,4.0337,3.9765,3.874,3.7186,3.5877,3.459,3.3726,3.2509,3.0792,2.9454,2.8657,2.8293,2.751,2.6788,2.6076,2.5347,2.4543,2.3758,2.3054,2.236,2.1707,2.1034,2.0439,1.9837,1.9298,1.8762,1.8364,1.8052,1.7488,1.7009,1.6281,1.5621,1.4545,1.388,1.347,1.3137,1.3045,1.2875,1.279,1.279,1.2705,1.2705,1.2705,1.2534,1.2369,1.2203,1.2037,3.8883,3.9495,4.0665,4.1127,4.1151,4.1851,4.2422,4.2838,4.3036,4.3341,4.3802,4.3984,4.4166,4.4388,4.448,4.4738,4.4897,4.503,4.5336,4.5764,4.5867,4.5897,4.578,4.558,4.5445,4.5342,4.5244,4.5071,4.4862,4.4714,4.4541,4.4221,4.4017,4.373,4.341,4.3069,4.2711,4.2396,4.2187,4.1952,4.1648,4.1542,4.1408,4.1226,4.1076,4.0982,4.0888,4.084,4.084,4.084,4.0776,4.0776,4.0776,4.0776,4.0776,4.0823,4.084,4.0728,4.0631,4.0697,4.0697,4.0583,4.0697,4.0793,4.0776,4.0776,4.0776,4.0745,4.068,4.0095,3.9056,3.8521,3.7285,3.6058,3.5366,3.4772,3.3662,3.2369,3.1309,3.0777,3.0293,2.9754,2.883,2.812,2.7262,2.6274,2.5477,2.4743,2.3971,2.3172,2.2583,2.1976,2.1404,2.0938,2.0574,2.0042,1.921,1.8665,1.7865,1.7001,1.5928,1.4873,1.4461,1.3886,1.3222,1.3137,1.3052,1.2875,1.2784,1.2784,1.2705,1.254,1.2375,1.2209,1.1957,3.7367,3.8107,3.9143,3.9674,3.9937,4.0631,4.1086,4.1336,4.1648,4.1985,4.2264,4.2432,4.2697,4.3008,4.3177,4.337,4.3745,4.4159,4.4607,4.504,4.5336,4.5601,4.5777,4.5733,4.5675,4.566,4.558,4.5396,4.5207,4.5058,4.4849,4.4565,4.4336,4.406,4.3749,4.3391,4.305,4.2711,4.2454,4.2187,4.1995,4.1841,4.1648,4.1363,4.1215,4.1064,4.1,4.0918,4.0871,4.0871,4.0871,4.0935,4.0982,4.1,4.1029,4.1041,4.1041,4.1012,4.0965,4.0995,4.0995,4.0965,4.0965,4.1,4.0982,4.0935,4.0871,4.0871,4.0724,4.034,3.935,3.902,3.8147,3.6925,3.6332,3.5854,3.5065,3.407,3.3323,3.2839,3.2524,3.1931,3.1282,3.0455,2.9675,2.8573,2.7835,2.7117,2.6269,2.5546,2.4955,2.4377,2.3743,2.3245,2.2826,2.2093,2.1141,2.0449,1.975,1.8815,1.7865,1.674,1.5606,1.4789,1.3893,1.3392,1.3222,1.3045,1.3045,1.3052,1.2966,1.2711,1.254,1.2369,1.2118,3.5362,3.6121,3.6766,3.7406,3.7961,3.8477,3.8825,3.9142,3.9594,3.9851,4.0306,4.0544,4.0771,4.118,4.1381,4.1707,4.2249,4.2897,4.3426,4.4014,4.4472,4.4872,4.5183,4.5432,4.5617,4.5802,4.5803,4.5673,4.5534,4.543,4.5188,4.4905,4.4682,4.4411,4.4091,4.3763,4.3426,4.3105,4.2711,4.2436,4.2269,4.2097,4.1884,4.156,4.129,4.114,4.1047,4.0953,4.0871,4.0871,4.0888,4.0953,4.1047,4.1093,4.1076,4.1134,4.1117,4.1088,4.1088,4.1117,4.1134,4.118,4.1169,4.114,4.1076,4.1029,4.0982,4.0918,4.0819,4.0569,3.9679,3.9552,3.8744,3.7567,3.7,3.6447,3.5799,3.5077,3.4545,3.4317,3.3853,3.338,3.2982,3.2385,3.1637,3.0952,3.0218,2.9478,2.8557,2.7864,2.7302,2.6863,2.6287,2.5477,2.5071,2.4448,2.3441,2.2583,2.1847,2.0881,1.9965,1.8797,1.751,1.553,1.4552,1.4139,1.373,1.3568,1.3568,1.3483,1.3398,1.3228,1.2966,1.2705,1.2369,3.2317,3.2917,3.3787,3.4448,3.506,3.5518,3.5999,3.6484,3.6801,3.7229,3.7657,3.8062,3.8377,3.8764,3.9159,3.9725,4.0297,4.1025,4.1841,4.2569,4.315,4.3686,4.4303,4.4671,4.5032,4.5432,4.5618,4.5733,4.5764,4.5685,4.5495,4.5303,4.5101,4.48,4.4457,4.4132,4.3795,4.3391,4.305,4.2711,4.2436,4.2269,4.2055,4.1648,4.1363,4.1198,4.1047,4.0905,4.0793,4.0888,4.0793,4.0905,4.1,4.0982,4.0982,4.1012,4.0995,4.1059,4.1059,4.1076,4.1123,4.1123,4.1169,4.118,4.1198,4.1123,4.1047,4.1047,4.0935,4.0707,4.038,4.0195,3.9725,3.8814,3.7922,3.733,3.6591,3.5891,3.5274,3.5024,3.4818,3.461,3.4202,3.3788,3.3212,3.2585,3.2026,3.1381,3.0675,3.0098,2.969,2.926,2.8774,2.7994,2.7222,2.6675,2.5834,2.5071,2.4282,2.3212,2.2254,2.1024,1.9556,1.7806,1.6078,1.5047,1.4643,1.4405,1.4159,1.4237,1.399,1.3828,1.3568,1.3385,1.296,2.9148,2.9997,3.0877,3.1604,3.2189,3.2654,3.3123,3.3479,3.3854,3.4237,3.4693,3.5063,3.5489,3.5922,3.6166,3.6859,3.7812,3.8667,3.9504,4.0401,4.1268,4.2085,4.2885,4.3417,4.402,4.4457,4.4896,4.544,4.5831,4.5825,4.5716,4.5601,4.5395,4.512,4.4757,4.4411,4.4053,4.366,4.3303,4.2957,4.2634,4.2432,4.2121,4.1823,4.1453,4.1272,4.1134,4.0935,4.084,4.0888,4.0823,4.0953,4.1,4.1047,4.1029,4.1041,4.1041,4.1105,4.1152,4.1215,4.1307,4.1353,4.1335,4.1318,4.1272,4.1244,4.1169,4.1093,4.0905,4.0745,4.0566,4.0534,4.0061,3.9299,3.852,3.7789,3.7024,3.6293,3.5881,3.5583,3.5441,3.5287,3.5241,3.4847,3.4592,3.417,3.3738,3.3192,3.2562,3.2167,3.1693,3.1255,3.069,3.0098,2.9341,2.8781,2.8211,2.7485,2.6637,2.5647,2.4578,2.339,2.2062,2.0505,1.8725,1.6814,1.5876,1.5636,1.5311,1.4985,1.4901,1.4734,1.4405,1.4068,1.3802,2.6057,2.7036,2.7826,2.8524,2.921,2.9656,3.0022,3.041,3.0729,3.1156,3.1591,3.1935,3.2346,3.282,3.3149,3.3715,3.4733,3.56,3.66,3.766,3.8738,3.9774,4.0822,4.1662,4.2357,4.307,4.3705,4.4595,4.5553,4.5772,4.5821,4.5765,4.5628,4.543,4.5109,4.4768,4.4327,4.3943,4.3545,4.3214,4.2882,4.2512,4.2205,4.2012,4.1648,4.1363,4.1209,4.1012,4.0888,4.0871,4.0888,4.0953,4.1064,4.1111,4.1123,4.1163,4.1209,4.1272,4.138,4.1426,4.1488,4.156,4.156,4.1515,4.1471,4.1426,4.1226,4.1123,4.0982,4.084,4.0793,4.068,4.0309,3.9812,3.9012,3.8208,3.7541,3.6874,3.6353,3.6112,3.6027,3.5888,3.5739,3.5694,3.5357,3.5186,3.4764,3.451,3.3957,3.3774,3.3387,3.3003,3.2493,3.1986,3.1381,3.0908,3.0352,2.98,2.9004,2.8079,2.696,2.5815,2.4377,2.2844,2.0956,1.9203,1.8057,1.7001,1.6772,1.6445,1.6131,1.5809,1.5553,1.522,1.4887,2.3172,2.3957,2.4428,2.5082,2.5915,2.6222,2.6723,2.7278,2.7655,2.7973,2.8294,2.8762,2.9046,2.9327,2.9832,3.0477,3.1227,3.2236,3.3312,3.4416,3.5614,3.694,3.8233,3.9326,4.0238,4.1156,4.2066,4.3586,4.4682,4.5235,4.5699,4.5762,4.5738,4.5667,4.5437,4.5112,4.4815,4.4401,4.3943,4.3458,4.2957,4.2534,4.2269,4.2061,4.1762,4.1453,4.1209,4.1041,4.0888,4.0871,4.0793,4.084,4.1047,4.1111,4.1105,4.1163,4.1209,4.1272,4.1408,4.1515,4.1666,4.1754,4.1815,4.1919,4.1815,4.1666,4.1453,4.1209,4.1163,4.1105,4.1029,4.0918,4.0802,4.0427,3.9824,3.9009,3.8305,3.7517,3.6947,3.6498,3.636,3.6276,3.6191,3.6174,3.6156,3.6011,3.5803,3.5548,3.529,3.5044,3.4858,3.4429,3.4088,3.3574,3.3201,3.2751,3.2361,3.187,3.0989,3.0221,2.9128,2.7899,2.6555,2.4946,2.3175,2.1609,2.042,1.942,1.8567,1.8043,1.7874,1.7415,1.687,1.6535,1.6198,1.9538,2.1266,2.1859,2.2368,2.2872,2.3421,2.3841,2.4258,2.4598,2.4903,2.5134,2.5435,2.5661,2.5969,2.6538,2.7082,2.7672,2.8602,2.9629,3.0916,3.2194,3.3564,3.4919,3.6201,3.7501,3.8773,3.9903,4.1049,4.2668,4.4241,4.5156,4.5511,4.5648,4.5685,4.5626,4.5385,4.5093,4.4702,4.4177,4.3623,4.3178,4.2826,4.2555,4.2274,4.1977,4.1631,4.1363,4.1041,4.0888,4.0793,4.0697,4.0793,4.0982,4.1076,4.118,4.1318,4.1453,4.1542,4.156,4.1648,4.1797,4.1902,4.1962,4.1962,4.1945,4.1841,4.1692,4.1542,4.1436,4.1363,4.1307,4.1198,4.1134,4.088,4.0509,3.9666,3.8903,3.8208,3.7585,3.7132,3.6753,3.6713,3.6673,3.6713,3.6673,3.6574,3.6433,3.6274,3.613,3.5985,3.5856,3.5725,3.5425,3.5136,3.4808,3.4475,3.4088,3.3514,3.2546,3.1747,3.099,2.9826,2.8368,2.723,2.5836,2.432,2.2903,2.1605,2.0512,2.011,1.97,1.9298,1.8735,1.806,1.773,1.6163,1.7987,1.909,1.9637,1.9991,2.0541,2.0899,2.1159,2.1514,2.1762,2.2007,2.2174,2.2417,2.2679,2.3095,2.3574,2.3995,2.486,2.5891,2.7137,2.8435,2.9902,3.1351,3.2715,3.4297,3.5859,3.7029,3.845,4.0182,4.185,4.3371,4.4861,4.5176,4.5445,4.5598,4.5527,4.5302,4.4941,4.4371,4.3875,4.3542,4.3249,4.2958,4.2616,4.2274,4.1917,4.1525,4.1226,4.0965,4.084,4.0793,4.0823,4.0995,4.1134,4.1318,4.1471,4.1692,4.1841,4.1823,4.1909,4.197,4.2072,4.2157,4.2181,4.2097,4.1995,4.1952,4.1952,4.1849,4.1719,4.1587,4.1604,4.1587,4.1385,4.1113,4.0227,3.9438,3.8913,3.8144,3.7369,3.7129,3.7206,3.7206,3.7241,3.7203,3.7087,3.7048,3.6992,3.6895,3.6741,3.6684,3.6586,3.6464,3.6246,3.6069,3.584,3.5545,3.4914,3.3927,3.3069,3.2208,3.111,2.9741,2.8823,2.801,2.6988,2.5495,2.3976,2.2457,2.2088,2.1712,2.1308,2.0748,1.9993,1.9237,1.3727,1.3686,1.567,1.6706,1.7174,1.7461,1.7732,1.808,1.8564,1.8732,1.8907,1.9007,1.9165,1.9257,1.9711,2.0082,2.0309,2.1353,2.2428,2.3509,2.4838,2.6242,2.7675,2.9202,3.0798,3.2457,3.3864,3.5584,3.7287,3.8707,4.1109,4.3584,4.4086,4.4901,4.541,4.5506,4.5405,4.509,4.4635,4.4344,4.4009,4.3717,4.3385,4.3087,4.275,4.2351,4.1899,4.1552,4.1272,4.1123,4.1029,4.0995,4.1163,4.1255,4.1453,4.1692,4.1909,4.2097,4.2163,4.2205,4.2305,4.2445,4.2468,4.249,4.2391,4.2391,4.2351,4.2287,4.2228,4.2169,4.2086,4.2061,4.2002,4.1931,4.1611,4.0902,4.021,3.985,3.9017,3.7858,3.7468,3.7577,3.7667,3.7649,3.7559,3.7449,3.7449,3.7394,3.7394,3.7339,3.7358,3.7358,3.7321,3.7193,3.7066,3.6735,3.6186,3.5461,3.4536,3.3867,3.3204,3.2077,3.077,3.0158,2.9343,2.8744,2.8121,2.6705,2.5392,2.4377,2.3804,2.3458,2.2665,2.1782,2.1054,1.1878,1.1765,1.2226,1.3278,1.4638,1.5013,1.5298,1.5576,1.5947,1.6129,1.6331,1.6438,1.6438,1.6518,1.656,1.7008,1.7331,1.7864,1.8935,2.0005,2.128,2.2563,2.4052,2.5705,2.7364,2.9012,3.0626,3.2414,3.4226,3.5507,3.7367,3.9652,4.1896,4.3737,4.4482,4.5215,4.5414,4.5362,4.5103,4.4895,4.4635,4.4361,4.4024,4.3719,4.3351,4.2978,4.2544,4.2115,4.1813,4.1525,4.1408,4.1391,4.1418,4.1534,4.1727,4.1934,4.2163,4.2369,4.245,4.2468,4.2486,4.2667,4.2727,4.2768,4.2729,4.2729,4.2691,4.2652,4.267,4.2634,4.2516,4.2476,4.2454,4.2432,4.2149,4.1543,4.0881,4.0399,3.9517,3.8222,3.7916,3.7931,3.7984,3.8054,3.7933,3.7845,3.7827,3.7827,3.7827,3.7808,3.7807,3.7767,3.7731,3.7388,3.7244,3.6962,3.6663,3.5864,3.5031,3.4339,3.3626,3.2708,3.1564,3.1095,3.0708,3.0146,2.9603,2.9157,2.8184,2.6835,2.6103,2.5674,2.4795,2.3735,2.3014,1.0212,1.001,0.9402,1.0275,1.2139,1.2619,1.2904,1.3199,1.3476,1.3669,1.3861,1.389,1.389,1.3884,1.4106,1.4298,1.4721,1.5184,1.594,1.6937,1.8018,1.9191,2.0606,2.2157,2.3808,2.5459,2.7046,2.8724,3.0694,3.2249,3.3893,3.597,3.8522,4.0552,4.3216,4.4467,4.5172,4.5311,4.5377,4.5297,4.504,4.4882,4.4706,4.4386,4.4046,4.3708,4.3302,4.2922,4.2513,4.2275,4.2068,4.1931,4.1948,4.199,4.211,4.2292,4.2494,4.2729,4.2786,4.2765,4.2765,4.2938,4.3087,4.3105,4.3105,4.3142,4.316,4.316,4.3124,4.3087,4.2995,4.2995,4.3014,4.3014,4.3032,4.2486,4.1359,4.063,3.9647,3.8576,3.8449,3.8267,3.8318,3.8368,3.8271,3.8186,3.8153,3.8135,3.8153,3.8162,3.8145,3.8081,3.7948,3.7552,3.7106,3.6803,3.6425,3.5714,3.4961,3.4438,3.3727,3.2909,3.2482,3.2144,3.179,3.1431,3.1089,3.0641,2.9896,2.9009,2.8297,2.7653,2.7008,2.6054,2.5448,0.892,0.8329,0.7512,0.8297,0.9998,1.0391,1.048,1.0676,1.1165,1.1361,1.1458,1.137,1.1365,1.156,1.1955,1.2145,1.2431,1.2915,1.3488,1.4232,1.5164,1.6094,1.7294,1.872,2.0303,2.1581,2.3202,2.5005,2.6929,2.8381,3.0115,3.1894,3.4163,3.7192,4.0935,4.3114,4.4259,4.4744,4.4963,4.5078,4.5099,4.5036,4.4969,4.4847,4.4595,4.4265,4.4026,4.3736,4.3379,4.3118,4.2933,4.2849,4.2776,4.274,4.2831,4.2959,4.3014,4.3177,4.3284,4.3232,4.332,4.3355,4.3511,4.3612,4.3612,4.3646,4.366,4.3675,4.3693,4.3679,4.3646,4.3646,4.3627,4.3572,4.3586,4.2996,4.1833,4.0848,3.989,3.905,3.8775,3.8634,3.8683,3.8701,3.859,3.8528,3.8496,3.8478,3.8478,3.8517,3.8523,3.8361,3.8198,3.7572,3.71,3.6675,3.6196,3.5514,3.4926,3.4421,3.3996,3.3459,3.3118,3.3014,3.2759,3.2378,3.2279,3.2196,3.1341,3.0561,3.0072,2.9454,2.8941,2.8419,2.7778,0.7733,0.7534,0.6731,0.6731,0.7428,0.8024,0.8517,0.8913,0.9308,0.9608,0.9608,0.9608,0.9608,0.9706,0.9993,1.0288,1.0489,1.0792,1.1272,1.194,1.2705,1.3369,1.4398,1.5712,1.6993,1.8247,1.974,2.1298,2.3014,2.4619,2.6192,2.7944,3.058,3.4576,3.8591,4.1144,4.2259,4.312,4.3694,4.4215,4.4461,4.4606,4.4746,4.4833,4.4715,4.4608,4.4499,4.4225,4.4039,4.3858,4.3718,4.3672,4.367,4.3621,4.3716,4.3807,4.3911,4.4093,4.4223,4.4242,4.4167,4.4069,4.4004,4.4125,4.4125,4.4143,4.4173,4.4184,4.4233,4.4204,4.4213,4.4252,4.4243,4.4093,4.383,4.2997,4.1996,4.1138,4.0308,3.9564,3.9091,3.9064,3.9091,3.9091,3.899,3.8923,3.8894,3.8826,3.8815,3.8902,3.8896,3.872,3.8441,3.772,3.7156,3.6758,3.6044,3.5262,3.4785,3.4377,3.4009,3.3778,3.3698,3.3542,3.3447,3.3321,3.3118,3.2916,3.2663,3.2098,3.1527,3.1197,3.0861,3.0448,3.0009,0.6537,0.6337,0.5839,0.5539,0.5739,0.6439,0.7036,0.7428,0.7829,0.7932,0.7928,0.7928,0.8031,0.8127,0.8425,0.8619,0.8916,0.9221,0.9521,0.9998,1.0485,1.1253,1.2022,1.2984,1.41,1.5214,1.6528,1.7926,1.9464,2.0855,2.2659,2.4838,2.7032,2.9987,3.3895,3.6489,3.9408,4.0313,4.1192,4.2128,4.2629,4.3116,4.3564,4.3879,4.4054,4.4163,4.4284,4.4308,4.4259,4.4181,4.4192,4.4182,4.4209,4.4304,4.4399,4.4442,4.4594,4.4747,4.4841,4.491,4.4802,4.471,4.4657,4.4632,4.4681,4.474,4.474,4.4759,4.4763,4.4763,4.4786,4.4851,4.4775,4.4623,4.403,4.3171,4.2382,4.1556,4.065,3.9943,3.9543,3.9519,3.947,3.947,3.9427,3.9389,3.9331,3.9227,3.9165,3.9192,3.9152,3.8887,3.8627,3.7989,3.7376,3.6906,3.6096,3.5079,3.4866,3.482,3.4293,3.413,3.408,3.4049,3.3902,3.3778,3.3743,3.357,3.3335,3.3178,3.2892,3.2698,3.267,3.2262,3.1688,0.5233,0.4834,0.4732,0.4734,0.4935,0.5627,0.6027,0.6334,0.6334,0.6434,0.6334,0.6434,0.6537,0.6742,0.7039,0.7235,0.7531,0.7836,0.8134,0.8428,0.8817,0.9304,0.9895,1.0569,1.1526,1.2496,1.3544,1.4772,1.5988,1.7457,1.9462,2.142,2.3028,2.5194,2.799,3.1045,3.4506,3.6324,3.801,3.8973,3.9678,4.0708,4.124,4.172,4.2127,4.2484,4.2698,4.2919,4.3137,4.3326,4.3578,4.3829,4.4079,4.4325,4.448,4.4656,4.4783,4.4857,4.4943,4.4991,4.5124,4.4994,4.5076,4.514,4.5182,4.5189,4.5205,4.5224,4.524,4.5285,4.5307,4.5307,4.5288,4.4867,4.4388,4.3605,4.2806,4.1948,4.0995,4.0348,4.0042,3.9925,3.9863,3.9842,3.9844,3.9797,3.9772,3.9683,3.959,3.9458,3.9339,3.8954,3.8625,3.8218,3.7713,3.7316,3.6807,3.6012,3.5894,3.5776,3.5162,3.4585,3.4577,3.4507,3.4325,3.4221,3.416,3.4154,3.408,3.3934,3.3704,3.3674,3.3491,3.3326,3.2951,0.4232,0.4234,0.4029,0.4033,0.4225,0.447,0.4773,0.5229,0.5233,0.5233,0.5236,0.5236,0.5325,0.5436,0.5639,0.5937,0.6237,0.6437,0.6736,0.7036,0.7229,0.763,0.8024,0.8612,0.93,1.0083,1.0956,1.1828,1.2882,1.426,1.5873,1.7497,1.897,2.0164,2.194,2.4257,2.8126,3.1537,3.3555,3.5132,3.622,3.7145,3.7925,3.8631,3.9225,3.9642,4.004,4.0318,4.0515,4.091,4.1333,4.1695,4.2269,4.2756,4.3173,4.3996,4.4191,4.4299,4.4433,4.4503,4.4537,4.4608,4.4694,4.5155,4.5328,4.5384,4.5404,4.5429,4.5468,4.5441,4.5484,4.5515,4.5538,4.5306,4.4608,4.3598,4.2772,4.1842,4.0963,4.061,4.0314,4.0296,4.0249,4.0241,4.0241,4.021,4.0157,4.0101,4.0002,3.9857,3.9694,3.9321,3.9058,3.874,3.8359,3.7961,3.7504,3.7068,3.6972,3.6668,3.5885,3.5388,3.5176,3.4908,3.462,3.4545,3.4548,3.4524,3.4476,3.4473,3.432,3.4344,3.4277,3.3996,3.3952,0.3328,0.3325,0.33,0.3378,0.3644,0.3506,0.361,0.3939,0.4141,0.4239,0.4143,0.4171,0.4287,0.4388,0.4514,0.4734,0.5035,0.5233,0.5534,0.5632,0.5922,0.6134,0.6534,0.6828,0.7425,0.8021,0.8715,0.9493,1.036,1.1711,1.3233,1.4088,1.5006,1.6026,1.7423,1.9027,2.1194,2.4927,2.7989,3.0286,3.1788,3.2956,3.3824,3.4664,3.531,3.5831,3.6259,3.65,3.6837,3.73,3.7752,3.8477,3.9303,4.0203,4.1163,4.1897,4.2259,4.2413,4.2583,4.2858,4.3071,4.327,4.3494,4.3809,4.4427,4.4701,4.503,4.5291,4.5411,4.5514,4.5598,4.5662,4.5723,4.5761,4.4624,4.3466,4.2529,4.1622,4.113,4.0782,4.0654,4.0635,4.0632,4.0614,4.0604,4.0552,4.05,4.0463,4.0329,4.0176,4.0082,3.9872,3.9662,3.9414,3.9033,3.8766,3.8518,3.8232,3.808,3.7605,3.673,3.6027,3.5666,3.5249,3.487,3.4832,3.4832,3.4812,3.4791,3.4771,3.4751,3.4686,3.4556,3.43,3.4454,0.2522,0.2417,0.267,0.2912,0.2953,0.2851,0.2754,0.275,0.3225,0.3328,0.316,0.3206,0.3326,0.3529,0.3561,0.3586,0.3778,0.3973,0.4267,0.4307,0.4674,0.4978,0.5202,0.5422,0.6009,0.6423,0.6933,0.7819,0.851,0.9579,1.0547,1.1239,1.1803,1.2646,1.3683,1.4716,1.6544,1.8351,2.2063,2.5092,2.6945,2.8142,2.915,2.9941,3.0481,3.0977,3.1336,3.1674,3.2047,3.2593,3.322,3.3952,3.5521,3.6987,3.8094,3.886,3.9241,3.9628,3.9913,4.0192,4.0581,4.0933,4.1466,4.1702,4.2233,4.3725,4.4309,4.4583,4.4636,4.4802,4.4911,4.5079,4.52,4.5064,4.4328,4.3669,4.3168,4.2298,4.1634,4.1328,4.1158,4.1101,4.074,4.0713,4.0708,4.0738,4.0766,4.0733,4.0641,4.048,4.0385,4.0323,4.0161,4.0024,4.0005,3.9791,3.9663,3.9454,3.9188,3.858,3.7704,3.6889,3.6073,3.5579,3.5083,3.5102,3.5102,3.5053,3.5018,3.5037,3.4982,3.4926,3.481,3.4595,3.4619,0.1818,0.1814,0.2278,0.2408,0.2429,0.2424,0.231,0.2368,0.2459,0.2504,0.2664,0.2683,0.269,0.2597,0.2612,0.2623,0.2617,0.2822,0.2996,0.3294,0.3686,0.3929,0.4241,0.4557,0.4976,0.5418,0.5937,0.6434,0.7126,0.772,0.8014,0.8609,0.919,0.987,1.0551,1.1696,1.2748,1.3796,1.6037,1.9474,2.1815,2.3158,2.4138,2.4809,2.5385,2.579,2.6086,2.6244,2.6511,2.6884,2.7648,2.9083,3.1144,3.2893,3.4061,3.4827,3.5373,3.5928,3.6371,3.6794,3.7265,3.7812,3.8338,3.8971,4.0141,4.213,4.3259,4.3444,4.375,4.3937,4.4136,4.4328,4.4515,4.4269,4.403,4.3829,4.3628,4.2912,4.2112,4.1914,4.1715,4.1381,4.0969,4.08,4.08,4.0815,4.0845,4.0851,4.0847,4.0727,4.0635,4.0565,4.0578,4.0526,4.0597,4.0539,4.0308,4.0268,4.0061,3.9383,3.8628,3.7637,3.6666,3.5849,3.5336,3.5489,3.5532,3.5266,3.5235,3.5235,3.5207,3.5138,3.5105,3.4964,3.4888,0.0804,0.0895,0.1162,0.1316,0.1282,0.1278,0.1269,0.1257,0.1256,0.1181,0.13,0.1405,0.1412,0.1416,0.1519,0.1617,0.1521,0.1715,0.2008,0.2386,0.2762,0.3095,0.3407,0.3722,0.4076,0.4516,0.5031,0.5534,0.6034,0.6334,0.6631,0.6933,0.7329,0.7723,0.8315,0.9193,1.0075,1.0951,1.192,1.3969,1.6814,1.8352,1.9634,2.0305,2.0633,2.102,2.102,2.1186,2.142,2.216,2.3187,2.458,2.6503,2.8263,2.94,3.0183,3.0878,3.1792,3.2283,3.2915,3.3536,3.4207,3.5186,3.5836,3.6784,3.8664,4.0272,4.0678,4.194,4.2302,4.2598,4.2816,4.3286,4.3315,4.3036,4.2772,4.2709,4.2392,4.2074,4.2082,4.1816,4.1429,4.1053,4.0692,4.0688,4.071,4.0754,4.0779,4.0812,4.082,4.0767,4.0749,4.0714,4.0757,4.0768,4.076,4.0703,4.0733,4.0742,4.004,3.9174,3.8183,3.7232,3.6717,3.6327,3.6199,3.6137,3.5843,3.5495,3.5424,3.5402,3.533,3.53,3.527,3.519,-0.0399,-0.0195,-0.0189,-0.0183,-0.018,-0.0179,-0.0179,-0.0179,-0.0269,-0.0448,-0.0631,-0.0366,-0.0276,-0.0186,0.0187,0.0283,0.0472,0.0842,0.1128,0.1506,0.1789,0.2183,0.2594,0.302,0.3461,0.3904,0.4533,0.4836,0.5236,0.5436,0.5634,0.5839,0.6042,0.6242,0.6839,0.7434,0.812,0.9011,0.9792,1.0288,1.2109,1.4017,1.5591,1.6341,1.6441,1.6621,1.6621,1.6707,1.6986,1.7873,1.9265,2.0731,2.2092,2.3782,2.4719,2.5613,2.6587,2.7321,2.8004,2.8824,2.964,3.0532,3.1768,3.2861,3.3796,3.51,3.6759,3.8105,3.9342,4.0509,4.0806,4.1248,4.1743,4.2321,4.201,4.1995,4.1994,4.2032,4.2157,4.2231,4.193,4.1551,4.1075,4.0703,4.061,4.0609,4.0593,4.0616,4.0641,4.0655,4.0643,4.0656,4.0656,4.0742,4.086,4.0863,4.0836,4.0877,4.0783,4.0324,3.9754,3.891,3.8291,3.7974,3.7626,3.7268,3.6842,3.6512,3.6151,3.5828,3.5558,3.5509,3.5483,3.5438,3.5416,-0.1287,-0.115,-0.1141,-0.1114,-0.108,-0.1077,-0.1166,-0.1166,-0.1525,-0.1795,-0.1797,-0.1888,-0.1895,-0.1716,-0.1267,-0.091,-0.055,-0.0183,0.0273,0.0635,0.1007,0.1386,0.188,0.2601,0.3236,0.3781,0.4228,0.4535,0.4836,0.4935,0.4933,0.5135,0.5338,0.5539,0.5937,0.6434,0.6933,0.763,0.8131,0.8722,0.9608,1.1346,1.2614,1.3188,1.3375,1.3471,1.3573,1.3573,1.3759,1.4417,1.5718,1.7186,1.8446,1.9766,2.0722,2.1577,2.2515,2.3222,2.4021,2.4941,2.5906,2.7047,2.8354,2.977,3.0777,3.1918,3.3389,3.4549,3.5966,3.7871,3.852,3.9176,3.9759,4.0676,4.0873,4.1511,4.185,4.213,4.2387,4.237,4.2221,4.1637,4.0953,4.0672,4.0515,4.0502,4.04,4.0444,4.0631,4.059,4.0525,4.0565,4.0597,4.0714,4.0851,4.0848,4.0855,4.0917,4.0878,4.0502,4.0135,3.9754,3.9277,3.9023,3.8611,3.8183,3.7746,3.7374,3.6887,3.653,3.5941,3.5678,3.5637,3.5604,3.557]},{"header":{"parameterUnit":"m.s-1","parameterCategory":1,"la1":31.0,"la2":29.5877,"lo1":-88.7671,"lo2":-86.6584,"dy":0.0162,"dx":0.0185,"nx":115,"ny":88,"refTime":"2023-05-16T06:00:00:Z","depth":0,"parameterNumber":3,"parameterNumberName":"V-component_of_WINDS"},"data":[0.0,0.0,0.0,0.0,0.0,0.0,0.0,0.0,0.0,0.0,0.0,0.0,0.0,0.0,0.0,0.0,0.0,0.0,0.0,0.0,0.0,0.0,0.0,0.0,0.0,0.0,0.0,0.0,0.0,0.0,0.0,0.0,0.0,0.0,0.0,0.0,0.0,0.0,0.0,0.0,0.0,0.0,0.0,0.0,0.0,0.0,0.0,0.0,0.0,0.0,0.0,0.0,0.0,0.0,0.0,0.0,0.0,0.0,0.0,0.0,0.0,0.0,0.0,0.0,0.0,0.0,0.0,0.0,0.0,0.0,0.0,0.0,0.0,0.0,0.0,0.0,0.0,0.0,0.0,0.0,0.0,0.0,0.0,0.0,0.0,0.0,0.0,0.0,0.0,0.0,0.0,0.0,0.0,0.0,0.0,0.0,0.0,0.0,0.0,0.0,0.0,0.0,0.0,0.0,0.0,0.0,0.0,0.0,0.0,0.0,0.0,0.0,0.0,0.0,0.0,0.0,0.0,0.0,0.0,0.0,0.0,0.0,0.0,0.0,0.0,0.0,0.0,0.0,0.0,0.0,0.0,0.0,0.0,0.0,0.0,0.0,0.0,0.0,0.0,0.0,0.0,0.0,0.0,0.0,0.0,0.0,0.0,0.0,0.0,0.0,0.0,0.0,0.0,0.0,0.0,0.0,0.0,0.0,0.0,0.0,0.0,0.0,0.0,0.0,0.0,0.0,0.0,0.0,0.0,0.0,0.0,0.0,0.0,0.0,0.0,0.0,0.0,0.0,0.0,0.0,0.0,0.0,0.0,0.0,0.0,0.0,0.0,0.0,0.0,0.0,0.0,0.0,0.0,0.0,0.0,0.0,0.0,0.0,0.0,0.0,0.0,0.0,0.0,0.0,0.0,0.0,0.0,0.0,0.0,0.0,0.0,0.0,0.0,0.0,0.0,0.0,0.0,0.0,0.0,0.0,0.0,0.0,0.0,0.0,0.0,0.0,0.0,0.0,0.0,0.0,0.0,0.0,0.0,0.0,0.0,0.0,0.0,0.0,0.0,0.0,0.0,0.0,0.0,0.0,0.0,0.0,0.0,0.0,0.0,0.0,0.0,0.0,0.0,0.0,0.0,0.0,0.0,0.0,0.0,0.0,0.0,0.0,0.0,0.0,0.0,0.0,0.0,0.0,0.0,0.0,0.0,0.0,0.0,0.0,0.0,0.0,0.0,0.0,0.0,0.0,0.0,0.0,0.0,0.0,0.0,0.0,0.0,0.0,0.0,0.0,0.0,0.0,0.0,0.0,0.0,0.0,0.0,0.0,0.0,0.0,0.0,0.0,0.0,0.0,0.0,0.0,0.0,0.0,0.0,0.0,0.0,0.0,0.0,0.0,0.0,0.0,0.0,0.0,0.0,0.0,0.0,0.0,0.0,0.0,0.0,0.0,0.0,0.0,0.0,0.0,0.0,0.0,0.0,0.0,0.0,0.0,0.0,0.0,0.0,0.0,0.0,0.0,0.0,0.0,0.0,0.0,0.0,0.0,0.0,0.0,0.0,0.0,0.0,0.0,0.0,0.0,0.0,0.0,0.0,0.0,0.0,0.0,0.0,0.0,0.0,0.0,0.0,0.0,0.0,0.0,0.0,0.0,0.0,0.0,0.0,0.0,0.0,0.0,0.0,0.0,0.0,0.0,0.0,0.0,0.0,0.0,0.0,0.0,0.0,0.0,0.0,0.0,0.0,0.0,0.0,0.0,0.0,0.0,0.0,0.0,0.0,0.0,0.0,0.0,0.0,0.0,0.0,0.0,0.0,0.0,0.0,0.0,0.0,0.0,0.0,0.0,0.0,0.0,0.0,0.0,0.0,0.0,0.0,0.0,0.0,0.0,0.0,0.0,0.0,0.0,0.0,0.0,0.0,0.0,0.0,0.0,0.0,0.0,0.0,0.0,0.0,0.0,0.0,0.0,0.0,0.0,0.0,0.0,0.0,0.0,0.0,0.0,0.0,0.0,0.0,0.0,0.0,0.0,0.0,0.0,0.0,0.0,0.0,0.0,0.0,0.0,0.0,0.0,0.0,0.0,0.0,0.0,0.0,0.0,0.0,0.0,0.0,0.0,0.0,0.0,0.0,0.0,0.0,0.0,0.0,0.0,0.0,0.0,0.0,0.0,0.0,0.0,0.0,0.0,0.0,0.0,0.0,0.0,0.0,0.0,0.0,0.0,0.0,0.0,0.0,0.0,0.0,0.0,0.0,0.0,0.0,0.0,0.0,0.0,0.0,0.0,0.0,0.0,0.0,0.0,0.0,0.0,0.0,0.0,0.0,0.0,0.0,0.0,0.0,0.0,0.0,0.0,0.0,0.0,0.0,0.0,0.0,0.0,0.0,0.0,0.0,0.0,0.0,0.0,0.0,0.0,0.0,0.0,0.0,0.0,0.0,0.0,0.0,0.0,0.0,0.0,0.0,0.0,0.0,0.0,0.0,0.0,0.0,0.0,0.0,0.0,0.0,0.0,0.0,0.0,0.0,0.0,0.0,0.0,0.0,0.0,0.0,0.0,0.0,0.0,0.0,0.0,0.0,0.0,0.0,0.0,0.0,0.0,0.0,0.0,0.0,0.0,0.0,0.0,0.0,0.0,0.0,0.0,0.0,0.0,0.0,0.0,0.0,0.0,0.0,0.0,0.0,0.0,0.0,0.0,0.0,0.0,0.0,0.0,0.0,0.0,0.0,0.0,0.0,0.0,0.0,0.0,0.0,0.0,0.0,0.0,0.0,0.0,0.0,0.0,0.0,0.0,0.0,0.0,0.0,0.0,0.0,0.0,0.0,0.0,0.0,0.0,0.0,0.0,0.0,0.0,0.0,0.0,0.0,0.0,0.0,0.0,0.0,0.0,0.0,0.0,0.0,0.0,0.0,0.0,0.0,0.0,0.0,0.0,0.0,0.0,0.0,0.0,0.0,0.0,0.0,0.0,0.0,0.0,0.0,0.0,0.0,0.0,0.0,0.0,0.0,0.0,0.0,0.0,0.0,0.0,0.0,0.0,0.0,0.0,0.0,0.0,0.0,0.0,0.0,0.0,0.0,0.0,0.0,0.0,0.0,0.0,0.0,0.0,0.0,0.0,0.0,0.0,0.0,0.0,0.0,0.0,0.0,0.0,0.0,0.0,0.0,0.0,0.0,0.0,0.0,0.0,0.0,0.0,0.0,0.0,0.0,0.0,0.0,0.0,0.0,0.0,0.0,0.0,0.0,0.0,0.0,0.0,0.0,0.0,0.0,0.0,0.0,0.0,0.0,0.0,0.0,0.0,0.0,0.0,0.0,0.0,0.0,0.0,0.0,0.0,0.0,0.0,0.0,0.0,0.0,0.0,0.0,0.0,0.0,0.0,0.0,0.0,0.0,0.0,0.0,0.0,0.0,0.0,0.0,0.0,0.0,0.0,0.0,0.0,0.0,0.0,0.0,0.0,0.0,0.0,0.0,0.0,0.0,0.0,0.0,0.0,0.0,0.0,0.0,0.0,0.0,0.0,0.0,0.0,0.0,0.0,0.0,0.0,0.0,0.0,0.0,0.0,0.0,0.0,0.0,0.0,0.0,0.0,0.0,0.0,0.0,0.0,0.0,0.0,0.0,0.0,0.0,0.0,0.0,0.0,0.0,0.0,0.0,0.0,0.0,0.0,0.0,0.0,0.0,0.0,0.0,0.0,0.0,0.0,0.0,0.0,0.0,0.0,0.0,0.0,0.0,0.0,0.0,0.0,0.0,0.0,0.0,0.0,0.0,0.0,0.0,0.0,0.0,0.0,0.0,0.0,0.0,0.0,0.0,0.0,0.0,0.0,0.0,0.0,0.0,0.0,0.0,0.0,0.0,0.0,0.0,0.0,0.0,0.0,0.0,0.0,0.0,0.0,0.0,0.0,0.0,0.0,0.0,0.0,0.0,0.0,0.0,0.0,0.0,0.0,0.0,0.0,0.0,0.0,0.0,0.0,0.0,0.0,0.0,0.0,0.0,0.0,0.0,0.0,0.0,0.0,0.0,0.0,0.0,0.0,0.0,0.0,0.0,0.0,0.0,0.0,0.0,0.0,0.0,0.0,0.0,0.0,0.0,0.0,0.0,0.0,0.0,0.0,0.0,0.0,0.0,0.0,0.0,0.0,0.0,0.0,0.0,0.0,0.0,0.0,0.0,0.0,0.0,0.0,0.0,0.0,0.0,0.0,0.0,0.0,0.0,0.0,0.0,0.0,0.0,0.0,0.0,0.0,0.0,0.0,2.5012,0.0,0.0,0.0,0.0,0.0,0.0,0.0,0.0,0.0,0.0,0.0,0.0,0.0,0.0,0.0,0.0,0.0,0.0,0.0,0.0,0.0,0.0,0.0,0.0,0.0,0.0,0.0,0.0,0.0,0.0,0.0,0.0,0.0,0.0,0.0,0.0,0.0,0.0,0.0,0.0,0.0,0.0,0.0,0.0,0.0,0.0,0.0,0.0,0.0,0.0,0.0,0.0,0.0,0.0,0.0,0.0,0.0,0.0,0.0,0.0,0.0,0.0,0.0,0.0,0.0,0.0,0.0,0.0,0.0,0.0,0.0,0.0,0.0,0.0,0.0,0.0,0.0,0.0,0.0,0.0,0.0,0.0,0.0,0.0,0.0,0.0,0.0,0.0,0.0,0.0,0.0,0.0,0.0,0.0,0.0,0.0,0.0,0.0,0.0,0.0,0.0,0.0,0.0,0.0,0.0,0.0,0.0,0.0,0.0,0.0,2.4768,2.4783,2.4865,2.4894,2.4889,0.0,0.0,0.0,0.0,0.0,0.0,0.0,0.0,0.0,0.0,0.0,0.0,0.0,0.0,0.0,0.0,0.0,0.0,0.0,0.0,0.0,0.0,0.0,0.0,0.0,0.0,0.0,0.0,0.0,0.0,0.0,0.0,0.0,0.0,0.0,0.0,0.0,0.0,0.0,0.0,0.0,0.0,0.0,0.0,0.0,0.0,0.0,0.0,0.0,0.0,0.0,0.0,0.0,0.0,0.0,0.0,0.0,0.0,0.0,0.0,0.0,0.0,0.0,0.0,0.0,0.0,0.0,0.0,0.0,0.0,0.0,0.0,0.0,0.0,0.0,0.0,0.0,0.0,0.0,0.0,0.0,0.0,0.0,0.0,0.0,0.0,0.0,0.0,0.0,0.0,0.0,0.0,0.0,0.0,0.0,0.0,0.0,0.0,0.0,0.0,0.0,0.0,0.0,0.0,0.0,0.0,0.0,0.0,0.0,0.0,0.0,0.0,2.4711,2.4776,2.4791,0.0,0.0,0.0,0.0,0.0,0.0,0.0,0.0,0.0,0.0,0.0,0.0,0.0,0.0,0.0,0.0,0.0,0.0,0.0,0.0,0.0,0.0,0.0,0.0,0.0,0.0,0.0,0.0,0.0,0.0,0.0,0.0,0.0,0.0,0.0,0.0,0.0,0.0,0.0,0.0,0.0,0.0,0.0,0.0,0.0,0.0,0.0,0.0,0.0,0.0,0.0,0.0,0.0,0.0,0.0,0.0,0.0,0.0,0.0,0.0,0.0,0.0,0.0,0.0,0.0,0.0,0.0,0.0,0.0,0.0,0.0,0.0,0.0,0.0,0.0,0.0,0.0,0.0,0.0,0.0,0.0,0.0,0.0,0.0,0.0,0.0,0.0,0.0,0.0,0.0,0.0,0.0,0.0,0.0,0.0,0.0,0.0,0.0,0.0,0.0,0.0,0.0,0.0,0.0,0.0,0.0,0.0,0.0,0.0,0.0,2.4424,2.4442,2.4545,0.0,2.4707,0.0,0.0,0.0,0.0,0.0,0.0,0.0,0.0,0.0,0.0,0.0,0.0,0.0,0.0,0.0,0.0,0.0,0.0,0.0,0.0,0.0,0.0,0.0,0.0,0.0,0.0,0.0,0.0,0.0,0.0,0.0,0.0,0.0,0.0,0.0,0.0,0.0,0.0,0.0,0.0,0.0,0.0,0.0,0.0,0.0,0.0,0.0,0.0,0.0,0.0,0.0,0.0,0.0,0.0,0.0,0.0,0.0,0.0,0.0,0.0,0.0,0.0,0.0,0.0,0.0,0.0,0.0,0.0,0.0,0.0,0.0,0.0,0.0,0.0,0.0,0.0,0.0,0.0,0.0,0.0,0.0,0.0,0.0,0.0,0.0,0.0,0.0,0.0,0.0,0.0,0.0,0.0,0.0,0.0,0.0,0.0,0.0,0.0,0.0,0.0,0.0,0.0,0.0,0.0,0.0,0.0,0.0,0.0,0.0,0.0,2.4266,2.4284,2.441,2.4515,0.0,0.0,0.0,0.0,0.0,0.0,0.0,0.0,0.0,0.0,0.0,0.0,0.0,0.0,0.0,0.0,0.0,0.0,0.0,0.0,0.0,0.0,0.0,0.0,0.0,0.0,0.0,0.0,0.0,0.0,0.0,0.0,0.0,0.0,0.0,0.0,0.0,0.0,0.0,0.0,0.0,0.0,0.0,0.0,0.0,0.0,0.0,0.0,0.0,0.0,0.0,0.0,0.0,0.0,0.0,0.0,0.0,0.0,0.0,0.0,0.0,0.0,0.0,0.0,0.0,0.0,0.0,0.0,0.0,0.0,0.0,0.0,0.0,0.0,0.0,0.0,0.0,0.0,0.0,0.0,0.0,0.0,0.0,0.0,0.0,0.0,0.0,0.0,0.0,0.0,0.0,0.0,0.0,0.0,0.0,0.0,0.0,0.0,0.0,0.0,0.0,0.0,0.0,0.0,0.0,0.0,0.0,0.0,0.0,0.0,2.4151,2.4152,2.4191,2.4284,2.4375,2.4391,0.0,0.0,0.0,0.0,0.0,0.0,0.0,0.0,0.0,0.0,0.0,0.0,0.0,0.0,0.0,0.0,0.0,0.0,0.0,0.0,0.0,0.0,0.0,0.0,0.0,0.0,0.0,0.0,0.0,0.0,0.0,0.0,0.0,0.0,0.0,0.0,0.0,0.0,0.0,0.0,0.0,0.0,0.0,0.0,0.0,0.0,0.0,0.0,0.0,0.0,0.0,0.0,0.0,0.0,0.0,0.0,0.0,0.0,0.0,0.0,0.0,0.0,0.0,0.0,0.0,0.0,0.0,0.0,0.0,0.0,0.0,0.0,0.0,0.0,0.0,0.0,0.0,0.0,0.0,0.0,0.0,0.0,0.0,0.0,0.0,0.0,0.0,0.0,0.0,0.0,0.0,0.0,0.0,0.0,0.0,0.0,0.0,0.0,0.0,0.0,0.0,0.0,0.0,0.0,0.0,0.0,0.0,0.0,2.4016,2.3996,2.4036,2.4094,2.417,2.4209,0.0,0.0,0.0,0.0,0.0,0.0,0.0,0.0,0.0,0.0,0.0,0.0,0.0,0.0,0.0,0.0,0.0,0.0,0.0,0.0,0.0,0.0,0.0,0.0,0.0,0.0,0.0,0.0,0.0,0.0,0.0,0.0,0.0,0.0,0.0,0.0,0.0,0.0,0.0,0.0,0.0,0.0,0.0,0.0,0.0,0.0,0.0,0.0,0.0,0.0,0.0,0.0,0.0,0.0,0.0,0.0,0.0,0.0,0.0,0.0,0.0,0.0,0.0,0.0,0.0,0.0,0.0,0.0,0.0,0.0,0.0,0.0,0.0,0.0,0.0,0.0,0.0,0.0,0.0,0.0,0.0,0.0,0.0,0.0,0.0,0.0,0.0,0.0,0.0,0.0,0.0,0.0,0.0,0.0,0.0,0.0,0.0,0.0,0.0,0.0,0.0,0.0,0.0,0.0,0.0,0.0,0.0,0.0,0.0,2.3858,2.3899,2.3955,2.3976,2.4036,2.4113,0.0,0.0,0.0,0.0,0.0,0.0,0.0,0.0,0.0,0.0,0.0,0.0,0.0,0.0,0.0,0.0,0.0,0.0,0.0,0.0,0.0,0.0,0.0,0.0,0.0,0.0,0.0,0.0,0.0,0.0,0.0,0.0,0.0,0.0,0.0,0.0,0.0,0.0,0.0,0.0,0.0,0.0,0.0,0.0,0.0,0.0,0.0,0.0,0.0,0.0,0.0,0.0,0.0,0.0,0.0,0.0,0.0,0.0,0.0,0.0,0.0,0.0,0.0,0.0,0.0,0.0,0.0,0.0,0.0,0.0,0.0,0.0,0.0,0.0,0.0,0.0,0.0,0.0,0.0,0.0,0.0,0.0,0.0,0.0,0.0,0.0,0.0,0.0,0.0,0.0,0.0,0.0,0.0,0.0,0.0,0.0,0.0,0.0,0.0,0.0,0.0,0.0,0.0,0.0,0.0,0.0,0.0,0.0,0.0,2.3795,0.0,2.3858,2.3858,2.3917,2.4016,0.0,0.0,0.0,0.0,0.0,0.0,0.0,0.0,0.0,0.0,0.0,0.0,0.0,0.0,0.0,0.0,0.0,0.0,0.0,0.0,0.0,0.0,0.0,0.0,0.0,0.0,0.0,0.0,0.0,0.0,0.0,0.0,0.0,0.0,0.0,0.0,0.0,0.0,0.0,0.0,0.0,0.0,0.0,0.0,0.0,0.0,0.0,0.0,0.0,0.0,0.0,0.0,0.0,0.0,0.0,0.0,0.0,0.0,0.0,0.0,0.0,0.0,0.0,0.0,0.0,0.0,0.0,0.0,0.0,0.0,0.0,0.0,0.0,0.0,0.0,0.0,0.0,0.0,0.0,0.0,0.0,0.0,0.0,0.0,0.0,0.0,0.0,0.0,0.0,0.0,0.0,0.0,0.0,0.0,0.0,0.0,0.0,0.0,0.0,0.0,0.0,0.0,0.0,0.0,0.0,0.0,0.0,0.0,2.3831,2.3831,2.3831,2.385,2.3813,2.3912,2.3915,0.0,0.0,0.0,0.0,0.0,0.0,0.0,0.0,0.0,0.0,0.0,0.0,0.0,0.0,0.0,0.0,0.0,0.0,0.0,0.0,0.0,0.0,0.0,0.0,0.0,0.0,0.0,0.0,0.0,0.0,0.0,0.0,0.0,0.0,0.0,0.0,0.0,0.0,0.0,0.0,0.0,0.0,0.0,0.0,0.0,0.0,0.0,0.0,0.0,0.0,0.0,0.0,0.0,0.0,0.0,0.0,0.0,0.0,0.0,0.0,0.0,0.0,0.0,0.0,0.0,0.0,0.0,0.0,0.0,0.0,0.0,0.0,0.0,0.0,0.0,0.0,0.0,0.0,0.0,0.0,0.0,0.0,0.0,0.0,0.0,0.0,0.0,0.0,0.0,0.0,0.0,0.0,0.0,0.0,0.0,0.0,0.0,0.0,0.0,0.0,0.0,0.0,0.0,0.0,0.0,0.0,0.0,0.0,0.0,2.4559,2.4559,2.4559,2.4559,2.4581,2.4371,0.0,0.0,0.0,0.0,0.0,0.0,0.0,0.0,0.0,0.0,0.0,0.0,0.0,0.0,0.0,0.0,0.0,0.0,0.0,0.0,0.0,0.0,0.0,0.0,0.0,0.0,0.0,0.0,0.0,0.0,0.0,0.0,0.0,0.0,0.0,0.0,0.0,0.0,0.0,0.0,0.0,0.0,0.0,0.0,0.0,0.0,0.0,0.0,0.0,0.0,0.0,0.0,0.0,0.0,0.0,0.0,0.0,0.0,0.0,0.0,0.0,0.0,0.0,0.0,0.0,0.0,0.0,0.0,0.0,0.0,0.0,0.0,0.0,0.0,0.0,0.0,0.0,0.0,0.0,0.0,0.0,0.0,0.0,0.0,0.0,0.0,0.0,0.0,0.0,0.0,0.0,0.0,0.0,0.0,0.0,0.0,0.0,0.0,0.0,0.0,0.0,0.0,0.0,0.0,0.0,0.0,0.0,0.0,0.0,2.6105,2.5607,2.5301,2.5283,2.533,2.4996,2.4324,0.0,0.0,0.0,0.0,0.0,0.0,0.0,0.0,0.0,0.0,0.0,0.0,0.0,0.0,0.0,0.0,0.0,0.0,0.0,0.0,0.0,0.0,0.0,0.0,0.0,0.0,0.0,0.0,0.0,0.0,0.0,0.0,0.0,0.0,0.0,0.0,0.0,0.0,0.0,0.0,0.0,0.0,0.0,0.0,0.0,0.0,0.0,0.0,0.0,0.0,0.0,0.0,0.0,0.0,0.0,0.0,0.0,0.0,0.0,0.0,0.0,0.0,0.0,0.0,0.0,0.0,0.0,0.0,0.0,0.0,0.0,0.0,0.0,0.0,0.0,0.0,0.0,0.0,0.0,0.0,0.0,0.0,0.0,0.0,0.0,0.0,0.0,0.0,0.0,0.0,0.0,0.0,0.0,0.0,0.0,0.0,0.0,0.0,0.0,0.0,0.0,0.0,0.0,0.0,0.0,0.0,0.0,0.0,2.8318,2.6964,2.6242,2.6135,2.6207,2.5834,0.0,0.0,0.0,0.0,0.0,0.0,0.0,0.0,0.0,0.0,0.0,0.0,0.0,0.0,0.0,0.0,0.0,0.0,0.0,0.0,0.0,0.0,0.0,0.0,0.0,0.0,0.0,0.0,0.0,0.0,0.0,0.0,0.0,0.0,0.0,0.0,0.0,0.0,0.0,0.0,0.0,0.0,0.0,0.0,0.0,0.0,0.0,0.0,0.0,0.0,0.0,0.0,0.0,0.0,0.0,0.0,0.0,0.0,0.0,0.0,0.0,0.0,0.0,0.0,0.0,0.0,0.0,0.0,0.0,0.0,0.0,0.0,0.0,0.0,0.0,0.0,0.0,0.0,0.0,0.0,0.0,0.0,0.0,0.0,0.0,0.0,0.0,0.0,0.0,0.0,0.0,0.0,0.0,0.0,0.0,0.0,0.0,0.0,0.0,0.0,0.0,0.0,0.0,0.0,0.0,0.0,0.0,0.0,0.0,2.9088,2.9265,2.88,2.7753,2.7751,2.718,0.0,0.0,0.0,0.0,0.0,0.0,0.0,0.0,0.0,0.0,0.0,0.0,0.0,0.0,0.0,0.0,0.0,0.0,0.0,0.0,0.0,0.0,0.0,0.0,0.0,0.0,0.0,0.0,0.0,0.0,0.0,0.0,0.0,0.0,0.0,0.0,0.0,0.0,0.0,0.0,0.0,0.0,0.0,0.0,0.0,0.0,0.0,0.0,0.0,0.0,0.0,0.0,0.0,0.0,0.0,0.0,0.0,0.0,0.0,0.0,0.0,0.0,0.0,0.0,0.0,0.0,0.0,0.0,0.0,0.0,0.0,0.0,0.0,0.0,0.0,0.0,0.0,0.0,0.0,0.0,0.0,0.0,0.0,0.0,0.0,0.0,0.0,0.0,0.0,0.0,0.0,0.0,0.0,0.0,0.0,0.0,0.0,0.0,0.0,0.0,0.0,0.0,0.0,0.0,0.0,0.0,0.0,0.0,2.8398,2.9901,3.063,3.0594,2.973,2.9197,2.8334,0.0,0.0,0.0,0.0,0.0,0.0,0.0,0.0,0.0,0.0,0.0,0.0,0.0,0.0,0.0,0.0,0.0,0.0,0.0,0.0,0.0,0.0,0.0,0.0,0.0,0.0,0.0,0.0,0.0,0.0,0.0,0.0,0.0,0.0,0.0,0.0,0.0,0.0,0.0,0.0,0.0,0.0,0.0,0.0,0.0,0.0,0.0,0.0,0.0,0.0,0.0,0.0,0.0,0.0,0.0,0.0,0.0,0.0,0.0,0.0,0.0,0.0,0.0,0.0,0.0,0.0,0.0,0.0,0.0,0.0,0.0,0.0,0.0,0.0,0.0,0.0,0.0,0.0,0.0,0.0,0.0,0.0,0.0,0.0,0.0,0.0,0.0,0.0,0.0,0.0,0.0,0.0,0.0,0.0,0.0,0.0,0.0,0.0,0.0,0.0,0.0,0.0,0.0,0.0,0.0,0.0,0.0,0.0,2.9122,3.06,3.1403,3.1813,3.1778,3.0449,2.9332,0.0,0.0,0.0,0.0,0.0,0.0,0.0,0.0,0.0,0.0,0.0,0.0,0.0,0.0,0.0,0.0,0.0,0.0,0.0,0.0,0.0,0.0,0.0,0.0,0.0,0.0,0.0,0.0,0.0,0.0,0.0,0.0,0.0,0.0,0.0,0.0,0.0,0.0,0.0,0.0,0.0,0.0,0.0,0.0,0.0,0.0,0.0,0.0,0.0,0.0,0.0,0.0,0.0,0.0,0.0,0.0,0.0,0.0,0.0,0.0,0.0,0.0,0.0,0.0,0.0,0.0,0.0,0.0,0.0,0.0,0.0,0.0,0.0,0.0,0.0,0.0,0.0,0.0,0.0,0.0,0.0,0.0,0.0,0.0,0.0,0.0,0.0,0.0,0.0,0.0,0.0,0.0,0.0,0.0,0.0,0.0,0.0,0.0,0.0,0.0,0.0,0.0,0.0,0.0,0.0,0.0,0.0,0.0,2.9951,3.1329,3.2192,3.2602,3.2538,3.1213,3.0119,0.0,0.0,0.0,0.0,0.0,0.0,0.0,0.0,0.0,0.0,0.0,0.0,0.0,0.0,0.0,0.0,0.0,0.0,0.0,0.0,0.0,0.0,0.0,0.0,0.0,0.0,0.0,0.0,0.0,0.0,0.0,0.0,0.0,0.0,0.0,0.0,0.0,0.0,0.0,0.0,0.0,0.0,0.0,0.0,0.0,0.0,0.0,0.0,2.2405,0.0,0.0,0.0,0.0,0.0,0.0,0.0,0.0,0.0,0.0,0.0,0.0,0.0,0.0,0.0,0.0,0.0,0.0,0.0,0.0,0.0,0.0,0.0,0.0,0.0,0.0,0.0,0.0,0.0,0.0,0.0,0.0,0.0,0.0,0.0,0.0,0.0,0.0,0.0,0.0,0.0,0.0,0.0,0.0,0.0,0.0,0.0,0.0,0.0,0.0,0.0,0.0,0.0,0.0,0.0,0.0,0.0,0.0,0.0,3.0469,3.1564,3.2428,3.2838,3.277,3.1385,3.0467,0.0,0.0,0.0,0.0,0.0,0.0,0.0,0.0,0.0,0.0,0.0,0.0,0.0,0.0,0.0,0.0,0.0,0.0,0.0,0.0,0.0,0.0,0.0,0.0,0.0,0.0,0.0,0.0,0.0,0.0,0.0,0.0,0.0,0.0,0.0,0.0,0.0,0.0,0.0,0.0,0.0,0.0,0.0,0.0,0.0,0.0,0.0,0.0,0.0,0.0,0.0,0.0,0.0,0.0,0.0,0.0,0.0,0.0,0.0,0.0,0.0,0.0,0.0,0.0,0.0,0.0,0.0,0.0,0.0,0.0,0.0,0.0,0.0,0.0,0.0,0.0,0.0,0.0,0.0,0.0,0.0,0.0,0.0,0.0,0.0,0.0,0.0,0.0,0.0,0.0,0.0,0.0,0.0,0.0,0.0,0.0,0.0,0.0,0.0,0.0,0.0,0.0,0.0,0.0,0.0,0.0,0.0,2.9343,3.0823,3.171,3.2435,3.2773,3.2755,3.1288,3.0588,3.0733,0.0,0.0,0.0,0.0,0.0,0.0,0.0,0.0,0.0,0.0,0.0,0.0,0.0,0.0,0.0,0.0,0.0,0.0,0.0,0.0,0.0,0.0,0.0,0.0,0.0,0.0,0.0,0.0,0.0,0.0,0.0,0.0,0.0,0.0,0.0,0.0,0.0,0.0,2.2394,2.2545,0.0,0.0,0.0,0.0,0.0,0.0,0.0,0.0,2.4567,0.0,0.0,0.0,0.0,0.0,0.0,0.0,0.0,0.0,0.0,0.0,0.0,0.0,0.0,0.0,0.0,0.0,0.0,0.0,0.0,0.0,0.0,0.0,0.0,0.0,0.0,0.0,0.0,0.0,0.0,0.0,0.0,0.0,0.0,0.0,0.0,0.0,0.0,0.0,0.0,0.0,0.0,0.0,0.0,0.0,0.0,0.0,0.0,0.0,0.0,0.0,0.0,0.0,0.0,0.0,0.0,2.8723,2.9786,3.0977,3.2294,3.2519,3.2639,3.2603,3.1195,3.0517,3.0592,0.0,0.0,0.0,0.0,0.0,0.0,0.0,0.0,0.0,0.0,0.0,0.0,0.0,0.0,0.0,0.0,0.0,0.0,0.0,0.0,0.0,0.0,0.0,0.0,0.0,0.0,0.0,0.0,0.0,0.0,0.0,0.0,0.0,0.0,0.0,0.0,0.0,0.0,0.0,2.2932,2.3351,0.0,0.0,0.0,0.0,0.0,0.0,0.0,0.0,2.4654,0.0,0.0,0.0,0.0,0.0,0.0,0.0,0.0,0.0,0.0,0.0,0.0,0.0,0.0,0.0,0.0,0.0,0.0,0.0,0.0,0.0,0.0,0.0,0.0,0.0,0.0,0.0,0.0,0.0,0.0,0.0,0.0,0.0,0.0,0.0,0.0,0.0,0.0,0.0,0.0,0.0,0.0,0.0,0.0,0.0,0.0,0.0,0.0,0.0,0.0,0.0,0.0,0.0,0.0,0.0,2.8946,3.0082,3.121,3.2318,3.2422,3.2507,3.2472,3.1119,3.0427,0.0,0.0,0.0,0.0,0.0,0.0,0.0,0.0,0.0,0.0,0.0,0.0,0.0,0.0,0.0,0.0,0.0,0.0,0.0,0.0,0.0,0.0,0.0,0.0,0.0,0.0,0.0,0.0,0.0,0.0,0.0,0.0,0.0,0.0,0.0,0.0,0.0,0.0,0.0,0.0,2.3289,2.3675,2.4154,0.0,0.0,0.0,0.0,0.0,0.0,2.6287,2.6239,0.0,0.0,0.0,0.0,0.0,0.0,0.0,0.0,0.0,0.0,0.0,0.0,0.0,0.0,0.0,0.0,0.0,0.0,0.0,0.0,0.0,0.0,0.0,0.0,0.0,0.0,0.0,0.0,0.0,0.0,0.0,0.0,0.0,0.0,0.0,0.0,0.0,0.0,0.0,0.0,0.0,0.0,0.0,0.0,0.0,0.0,0.0,0.0,0.0,0.0,0.0,0.0,0.0,0.0,0.0,2.9029,3.026,3.1307,3.2073,3.2232,3.2319,3.2318,3.0991,3.0318,0.0,0.0,0.0,0.0,0.0,0.0,0.0,0.0,0.0,0.0,0.0,0.0,0.0,0.0,0.0,0.0,0.0,0.0,0.0,0.0,0.0,0.0,0.0,0.0,0.0,0.0,0.0,0.0,0.0,0.0,0.0,0.0,0.0,0.0,0.0,0.0,0.0,0.0,0.0,0.0,0.0,2.4249,2.4966,2.5326,0.0,0.0,0.0,0.0,2.7581,2.8048,0.0,0.0,0.0,0.0,0.0,0.0,0.0,0.0,0.0,0.0,0.0,0.0,0.0,0.0,0.0,0.0,0.0,0.0,0.0,0.0,0.0,0.0,0.0,0.0,0.0,0.0,0.0,0.0,0.0,0.0,0.0,0.0,0.0,0.0,0.0,0.0,0.0,0.0,0.0,0.0,0.0,0.0,0.0,0.0,0.0,0.0,0.0,0.0,0.0,0.0,0.0,0.0,0.0,0.0,0.0,0.0,2.9402,3.0231,3.1025,3.1821,3.1912,3.2037,3.2108,3.0777,3.0099,0.0,0.0,0.0,0.0,0.0,0.0,0.0,0.0,0.0,0.0,0.0,0.0,0.0,0.0,0.0,0.0,0.0,0.0,0.0,0.0,0.0,0.0,0.0,0.0,0.0,0.0,0.0,0.0,0.0,0.0,0.0,0.0,0.0,0.0,0.0,0.0,0.0,0.0,0.0,0.0,0.0,2.5702,2.5928,2.7129,2.8008,0.0,0.0,2.9196,2.9196,2.9282,0.0,0.0,0.0,0.0,0.0,0.0,0.0,0.0,0.0,0.0,0.0,0.0,0.0,0.0,0.0,0.0,0.0,0.0,0.0,0.0,0.0,0.0,0.0,0.0,0.0,0.0,0.0,0.0,0.0,0.0,0.0,0.0,0.0,0.0,0.0,0.0,0.0,0.0,0.0,0.0,0.0,0.0,0.0,0.0,0.0,0.0,0.0,0.0,0.0,0.0,0.0,0.0,0.0,0.0,0.0,2.8066,2.9158,3.0353,3.1103,3.1445,3.1596,3.1746,3.1802,3.0508,2.9857,0.0,0.0,0.0,0.0,0.0,0.0,0.0,0.0,0.0,0.0,0.0,0.0,0.0,0.0,0.0,0.0,0.0,0.0,0.0,0.0,0.0,0.0,0.0,0.0,0.0,0.0,0.0,0.0,0.0,0.0,0.0,0.0,0.0,0.0,0.0,0.0,0.0,0.0,0.0,0.0,0.0,0.0,2.725,2.8036,0.0,0.0,0.0,3.011,2.9678,0.0,0.0,0.0,0.0,0.0,0.0,0.0,0.0,0.0,0.0,0.0,0.0,0.0,0.0,0.0,0.0,0.0,0.0,0.0,0.0,0.0,0.0,0.0,0.0,0.0,0.0,0.0,0.0,0.0,0.0,0.0,0.0,0.0,0.0,0.0,0.0,0.0,0.0,0.0,0.0,0.0,0.0,0.0,0.0,0.0,0.0,0.0,0.0,0.0,0.0,0.0,0.0,0.0,0.0,0.0,0.0,0.0,2.8831,3.0258,3.1032,3.1072,3.1235,3.1372,3.1487,3.0229,0.0,0.0,0.0,0.0,0.0,0.0,0.0,0.0,0.0,0.0,0.0,0.0,0.0,0.0,0.0,0.0,0.0,0.0,0.0,0.0,0.0,0.0,0.0,0.0,0.0,0.0,0.0,2.2327,0.0,0.0,0.0,0.0,0.0,0.0,0.0,0.0,0.0,0.0,0.0,0.0,0.0,0.0,2.7046,2.8263,2.8795,2.9311,0.0,0.0,3.0942,3.0404,3.0733,3.0594,0.0,0.0,0.0,0.0,0.0,0.0,0.0,0.0,0.0,0.0,0.0,0.0,0.0,0.0,0.0,0.0,0.0,0.0,0.0,0.0,0.0,0.0,0.0,0.0,0.0,0.0,0.0,0.0,0.0,0.0,0.0,0.0,0.0,0.0,0.0,0.0,0.0,0.0,0.0,0.0,0.0,0.0,0.0,0.0,0.0,0.0,0.0,0.0,0.0,0.0,0.0,0.0,0.0,0.0,2.846,2.856,2.9862,3.0609,3.0733,3.0804,3.0982,3.1213,3.0014,2.9386,0.0,0.0,0.0,0.0,0.0,0.0,0.0,0.0,0.0,0.0,0.0,0.0,0.0,0.0,0.0,0.0,0.0,0.0,0.0,0.0,0.0,0.0,0.0,0.0,0.0,0.0,0.0,0.0,0.0,0.0,0.0,0.0,0.0,0.0,0.0,0.0,0.0,0.0,0.0,0.0,0.0,2.8232,2.8449,2.9711,3.0682,0.0,3.1481,3.1986,3.1933,3.1951,3.1707,3.0751,0.0,0.0,0.0,0.0,0.0,0.0,0.0,0.0,0.0,0.0,0.0,0.0,0.0,0.0,0.0,0.0,0.0,0.0,0.0,0.0,0.0,0.0,0.0,0.0,0.0,0.0,0.0,0.0,0.0,0.0,0.0,0.0,0.0,0.0,0.0,0.0,0.0,0.0,0.0,0.0,0.0,0.0,0.0,0.0,0.0,0.0,0.0,0.0,0.0,0.0,0.0,0.0,0.0,2.8256,2.8155,2.9493,3.0231,3.0274,3.0393,3.0617,3.0895,3.0142,2.96,0.0,0.0,0.0,0.0,0.0,0.0,0.0,0.0,0.0,0.0,0.0,0.0,0.0,0.0,0.0,0.0,0.0,0.0,0.0,0.0,0.0,0.0,0.0,0.0,0.0,0.0,0.0,0.0,2.3376,2.3477,2.3021,0.0,0.0,0.0,0.0,0.0,0.0,0.0,0.0,0.0,0.0,2.8812,2.9813,3.0541,0.0,0.0,3.1952,3.2144,3.2144,3.2126,3.1812,3.0994,3.0595,0.0,0.0,0.0,0.0,0.0,0.0,0.0,0.0,0.0,0.0,0.0,0.0,0.0,0.0,0.0,0.0,0.0,0.0,0.0,0.0,0.0,0.0,0.0,0.0,0.0,0.0,0.0,0.0,0.0,0.0,0.0,0.0,0.0,0.0,0.0,0.0,0.0,0.0,0.0,0.0,0.0,0.0,0.0,0.0,0.0,0.0,0.0,0.0,0.0,0.0,0.0,0.0,2.8134,2.8184,2.9329,2.9886,2.9902,3.007,3.0267,3.0576,3.0157,2.9685,0.0,0.0,0.0,0.0,0.0,0.0,0.0,0.0,0.0,0.0,0.0,0.0,0.0,0.0,0.0,0.0,0.0,0.0,0.0,0.0,0.0,0.0,0.0,0.0,0.0,0.0,0.0,0.0,2.4279,2.4397,2.3871,0.0,0.0,0.0,0.0,0.0,0.0,0.0,0.0,0.0,0.0,2.9655,3.0784,3.1236,3.162,3.2197,3.2267,3.2267,3.2267,3.2249,3.1952,3.1394,0.0,0.0,0.0,0.0,0.0,0.0,0.0,0.0,0.0,0.0,0.0,0.0,0.0,0.0,0.0,0.0,0.0,0.0,0.0,0.0,0.0,0.0,0.0,0.0,0.0,0.0,0.0,2.1855,0.0,0.0,2.1118,0.0,0.0,0.0,0.0,0.0,0.0,0.0,0.0,0.0,0.0,0.0,0.0,0.0,0.0,0.0,0.0,0.0,0.0,0.0,0.0,0.0,0.0,2.8217,2.8757,2.9355,2.9697,2.9697,2.9766,2.9968,3.0276,2.9902,2.9513,2.9153,0.0,0.0,0.0,0.0,0.0,0.0,0.0,0.0,0.0,0.0,0.0,0.0,0.0,0.0,0.0,0.0,0.0,0.0,0.0,0.0,0.0,0.0,0.0,0.0,0.0,0.0,2.4598,2.4722,2.4787,0.0,0.0,0.0,0.0,0.0,0.0,0.0,0.0,0.0,0.0,2.9814,3.0889,3.1095,3.1725,3.2214,3.2388,3.2388,3.2388,3.2388,3.2388,3.2354,0.0,0.0,0.0,0.0,0.0,0.0,0.0,0.0,0.0,0.0,0.0,0.0,0.0,0.0,0.0,0.0,0.0,0.0,0.0,0.0,0.0,0.0,0.0,0.0,0.0,0.0,0.0,2.1068,2.1234,0.0,0.0,0.0,0.0,0.0,0.0,0.0,0.0,0.0,0.0,0.0,2.1883,2.2031,0.0,0.0,0.0,0.0,0.0,0.0,0.0,0.0,0.0,0.0,0.0,0.0,2.8378,2.8446,2.9,2.935,2.9457,2.956,2.9782,3.007,3.0261,3.0269,2.9975,0.0,0.0,0.0,0.0,0.0,0.0,0.0,0.0,0.0,0.0,0.0,0.0,0.0,0.0,0.0,0.0,0.0,0.0,0.0,0.0,0.0,0.0,0.0,0.0,0.0,2.563,0.0,0.0,0.0,0.0,0.0,0.0,0.0,0.0,0.0,0.0,0.0,2.8717,3.0101,3.0762,3.1336,3.198,3.2296,3.2489,0.0,0.0,0.0,0.0,0.0,0.0,0.0,0.0,0.0,0.0,0.0,0.0,0.0,0.0,3.2579,3.039,3.0475,3.0858,3.0858,0.0,0.0,0.0,0.0,0.0,0.0,0.0,0.0,0.0,0.0,0.0,0.0,0.0,0.0,2.0824,0.0,2.1095,0.0,0.0,0.0,0.0,0.0,0.0,0.0,0.0,2.1486,2.1663,2.1924,2.2339,2.2678,0.0,2.3342,2.3452,0.0,0.0,0.0,0.0,0.0,0.0,0.0,0.0,2.8411,2.8487,2.8839,2.9059,2.9167,2.9335,2.9576,2.9886,3.0195,3.0314,3.0258,2.9655,2.9128,0.0,0.0,0.0,0.0,0.0,0.0,0.0,0.0,0.0,0.0,0.0,0.0,0.0,0.0,0.0,0.0,0.0,0.0,0.0,0.0,0.0,0.0,0.0,2.6556,0.0,0.0,0.0,0.0,0.0,0.0,0.0,0.0,0.0,2.7983,2.8914,3.0042,3.1105,3.1489,3.1908,3.2535,0.0,0.0,0.0,0.0,0.0,0.0,0.0,3.342,3.3438,3.3863,3.4234,3.4234,3.4641,3.5031,3.5101,0.0,0.0,3.2223,3.2258,3.2679,3.2694,3.3168,3.3695,3.4013,3.4082,3.4296,0.0,0.0,0.0,0.0,0.0,0.0,0.0,0.0,2.0442,2.0718,0.0,2.1326,0.0,0.0,0.0,0.0,2.0859,2.1437,0.0,0.0,2.1517,2.168,2.1629,2.2419,2.3082,2.3499,2.3817,2.4319,2.4844,2.5258,0.0,0.0,0.0,0.0,0.0,0.0,2.8304,2.8873,2.8904,2.8904,2.892,2.9152,2.9396,2.971,2.9766,2.9878,3.0019,2.9598,2.9279,2.9228,2.8631,0.0,0.0,0.0,0.0,0.0,0.0,0.0,0.0,0.0,0.0,0.0,0.0,0.0,0.0,0.0,0.0,0.0,0.0,0.0,0.0,2.6774,0.0,0.0,0.0,0.0,0.0,0.0,0.0,0.0,0.0,0.0,2.9043,3.0328,3.1411,3.1429,0.0,0.0,0.0,0.0,3.2641,3.2641,3.333,3.3844,3.3844,3.4499,3.4996,3.4996,0.0,0.0,3.5102,3.512,3.5244,3.5382,3.5523,3.5364,3.5226,3.5084,3.5066,3.5154,3.5364,3.5754,3.6502,3.6716,3.7,1.9294,0.0,0.0,0.0,0.0,2.0293,2.0361,2.0359,2.058,2.0778,2.0916,2.1145,0.0,0.0,0.0,0.0,0.0,0.0,2.1198,2.1087,2.1251,2.1327,2.1327,2.178,2.2198,2.2684,2.3134,2.3927,2.4901,2.5348,2.5759,2.6108,0.0,0.0,0.0,0.0,2.8561,2.8811,2.8716,2.8716,2.8826,2.892,2.9319,3.0017,3.0286,3.0537,3.0852,3.0747,3.0486,3.0099,2.9877,0.0,0.0,0.0,0.0,0.0,0.0,0.0,0.0,0.0,0.0,0.0,0.0,0.0,0.0,0.0,0.0,0.0,0.0,0.0,2.8539,2.8895,2.9082,0.0,0.0,0.0,0.0,0.0,0.0,0.0,0.0,0.0,3.0836,3.1176,3.1703,0.0,0.0,3.2755,3.282,3.3301,3.3675,3.3692,3.4316,0.0,3.4918,3.5148,3.5291,3.5357,3.584,3.6379,3.6987,3.7094,3.7273,3.7864,3.8008,3.8169,3.8617,3.7811,3.7165,3.7182,3.8008,3.8887,3.9175,3.9265,3.9337,1.8213,1.8744,1.9461,1.9745,1.9673,1.9865,1.9841,1.9707,1.99,2.0029,2.0087,2.0272,2.0322,2.0336,2.0588,0.0,0.0,0.0,2.0507,2.0517,2.0662,2.0863,2.0991,2.1547,2.2051,2.266,2.3194,2.3973,2.4927,2.5424,2.5798,2.6086,0.0,0.0,2.7622,2.8069,2.8348,2.846,2.8444,2.8493,2.8652,2.8889,2.9425,3.0103,3.0443,3.0773,3.1072,3.1213,3.1087,3.0717,3.0486,2.989,0.0,0.0,0.0,0.0,0.0,0.0,0.0,0.0,0.0,0.0,0.0,2.5316,2.5527,0.0,0.0,0.0,2.839,2.9023,2.9708,2.9841,0.0,0.0,0.0,0.0,0.0,0.0,0.0,3.0827,3.1533,3.2094,3.2125,3.2346,3.2613,3.282,3.3123,3.3318,3.3366,0.0,3.4628,3.4595,3.5272,3.584,3.591,3.6161,3.6411,3.6443,3.682,3.7306,3.7791,3.7917,3.8079,3.8492,3.8671,3.8941,3.9788,3.9373,3.8905,3.8923,3.9644,4.0419,4.0744,4.0889,4.0943,1.7176,1.7324,1.8466,1.8955,1.8948,1.8992,1.8846,1.8648,1.8681,1.8824,1.8934,1.8994,1.9213,1.9654,1.9854,0.0,1.9807,1.9878,1.9736,1.9531,2.0034,2.0396,2.0711,2.1649,2.2445,2.3142,2.3863,2.4424,2.5013,2.5535,2.5951,2.6304,2.7053,2.7542,2.7755,2.7801,2.7916,2.8046,2.8179,2.8296,2.846,2.8998,2.9515,2.9973,3.0316,3.0651,3.0912,3.1095,3.123,3.1196,3.0628,3.0275,3.0173,0.0,0.0,0.0,0.0,0.0,0.0,0.0,0.0,0.0,0.0,0.0,0.0,0.0,0.0,0.0,2.9886,0.0,3.0256,3.0372,0.0,0.0,0.0,3.069,3.0659,3.1331,3.1806,3.1866,0.0,0.0,3.308,3.3723,3.3901,3.3169,3.3723,3.4187,3.4187,3.4932,3.55,3.55,3.6213,3.6784,3.6802,3.7341,3.779,3.779,3.7934,3.7916,3.7916,3.7952,3.7951,3.8308,3.8253,3.8596,3.955,4.0329,4.0673,4.0619,4.0655,4.0871,4.1614,4.1814,4.2013,1.6868,1.6791,1.7254,1.7516,1.775,1.8093,1.8195,1.8055,1.8373,1.8572,1.8647,1.8768,1.8902,1.8992,1.894,1.8984,1.92,1.9386,1.9596,1.9843,2.0006,2.0518,2.1212,2.1717,2.2492,2.3535,2.4254,2.4758,2.5123,2.5754,2.6194,2.6455,2.7157,2.7463,2.738,2.7825,2.8234,2.8595,2.8682,2.874,2.8715,2.8998,2.938,2.9853,3.0241,3.0634,3.0975,3.1157,3.1329,3.1423,3.127,3.095,3.0407,3.0103,0.0,0.0,0.0,0.0,0.0,0.0,0.0,0.0,0.0,2.8113,2.8785,0.0,2.9678,0.0,3.2541,3.342,3.3546,3.3635,0.0,0.0,3.388,3.3897,3.3965,3.4125,3.4266,3.4349,3.451,3.4634,3.465,3.4829,3.4882,3.4686,3.4829,3.4972,3.5109,3.5805,3.6341,3.6463,3.7072,3.7628,3.7679,3.7928,3.8124,3.8106,3.8124,3.8124,3.8106,3.8124,3.8468,3.9606,3.9913,4.0456,4.1705,4.223,4.2322,4.2431,4.2394,4.2338,4.2574,4.2703,4.2813,1.6123,1.6123,1.6202,1.6419,1.6656,1.7244,1.7484,1.7456,1.7678,1.7833,1.7969,1.8162,1.8378,1.8475,1.8413,1.8508,1.8671,1.8866,1.9183,1.9578,1.9769,2.0293,2.1098,2.1553,2.224,2.3246,2.3923,2.4474,2.4951,2.5558,2.603,2.6364,2.6922,2.7179,2.7252,2.7926,2.8498,2.8821,2.9124,2.9388,2.9617,2.9862,3.029,3.0781,3.1227,3.1632,3.1942,3.2188,3.2315,3.2332,3.2389,3.2071,3.13,3.1018,3.0543,0.0,0.0,0.0,0.0,0.0,0.0,0.0,0.0,0.0,0.0,0.0,3.1145,3.2812,3.3885,3.4579,3.4744,3.4816,3.4942,3.5049,3.5084,3.5101,3.5118,3.517,3.5153,3.5169,3.5204,3.5204,3.5204,3.5525,3.5757,3.5844,3.6112,3.6219,3.6055,3.6645,3.7217,3.732,3.7715,3.8038,3.8088,3.814,3.8192,3.8192,3.8192,3.8192,3.8192,3.8192,3.8642,3.9783,4.0073,4.0581,4.2123,4.2505,4.2614,4.3014,4.3068,4.305,4.305,4.3105,4.316,1.5133,1.5284,1.5355,1.5417,1.5692,1.6342,1.6691,1.676,1.6769,1.6899,1.7097,1.7442,1.7647,1.7803,1.8066,1.8134,1.8134,1.8299,1.8674,1.9074,1.9344,1.9889,2.0688,2.1236,2.1878,2.2697,2.3391,2.4141,2.48,2.5307,2.5818,2.6258,2.6658,2.7026,2.7363,2.8237,2.8769,2.8937,2.953,3.0023,3.0552,3.0958,3.1404,3.1948,3.2442,3.2785,3.3081,3.3381,3.3532,3.3448,3.3532,3.3284,3.2523,3.1936,3.1385,0.0,3.0292,0.0,0.0,0.0,0.0,0.0,0.0,0.0,0.0,3.2216,3.2934,3.4422,3.4711,3.4914,3.5098,3.5243,3.5332,3.5403,3.5455,3.5507,3.5525,3.5525,3.5525,3.5525,3.5525,3.5525,3.5596,3.6131,3.663,3.6772,3.722,3.738,3.6968,3.7397,3.7879,3.8018,3.8122,3.8174,3.8192,3.8192,3.8192,3.8192,3.8192,3.8192,3.8207,3.8225,3.8549,3.9452,3.9777,4.032,4.1865,4.2193,4.243,4.3087,4.3233,4.3214,4.3196,4.3214,4.3214,1.4201,1.4122,1.441,1.4561,1.4625,1.4911,1.5488,1.6272,1.6272,1.6342,1.6473,1.6682,1.6811,1.689,1.7107,1.7176,1.7194,1.7792,1.8123,1.828,1.8913,1.974,2.0538,2.099,2.1764,2.2926,2.3746,2.4472,2.522,2.5647,2.6113,2.6642,2.7157,2.7628,2.8093,0.0,0.0,0.0,3.0078,3.0307,3.0204,3.0639,3.1142,3.1646,3.2134,0.0,3.3004,3.3262,3.349,3.3622,3.368,0.0,0.0,0.0,0.0,0.0,0.0,0.0,0.0,0.0,0.0,0.0,3.3348,3.3373,3.3727,3.4471,3.5091,3.5427,3.6103,3.657,3.665,3.6761,3.6891,3.6948,3.7058,3.7131,3.7148,3.7113,3.7131,3.7131,3.7131,3.7113,3.7113,3.7327,3.7435,3.7453,3.7721,3.7827,3.7716,3.7859,3.8036,3.814,3.8192,3.8192,3.8192,3.8192,3.8192,3.8192,3.8192,3.8225,3.8274,3.8274,3.8852,4.0209,4.0555,4.1028,4.2631,4.2977,4.3013,4.3304,4.3359,4.334,4.3214,4.3305,4.334,1.311,1.3319,1.3404,1.3645,0.0,1.3915,1.4447,1.5307,1.543,1.5647,1.5921,1.5982,1.6123,1.6193,1.6466,1.6634,1.6795,1.7388,1.7899,1.8249,1.8816,1.9599,2.0407,2.0929,2.1655,2.2553,2.3372,2.4105,2.4754,2.5312,2.5873,2.6333,2.6947,2.7364,2.7696,2.8444,2.9261,3.0029,3.0499,3.0866,3.1034,3.1542,3.2049,3.2622,3.3064,0.0,0.0,0.0,0.0,0.0,0.0,0.0,0.0,3.3964,0.0,3.349,3.3473,3.3498,3.3581,3.368,3.3915,3.4415,3.5013,3.5203,3.4805,3.568,3.6252,3.6252,3.672,3.7066,3.7203,3.7259,3.7334,3.7466,3.754,3.7577,3.7577,3.7577,3.7577,3.7613,3.7613,3.7631,3.7649,3.7721,3.7792,3.7845,3.7898,3.7985,3.8088,3.8036,3.8036,3.8192,3.8192,3.8192,3.8192,3.8192,3.8192,3.8192,3.8225,3.8274,3.8307,3.8322,3.8897,4.0458,4.0912,4.1405,4.2937,4.3358,4.3375,4.3446,4.3446,4.3446,4.3358,4.3393,4.3428,1.2168,1.2485,1.2536,1.2797,1.3341,1.3166,1.3575,1.4389,1.4796,0.0,0.0,1.5555,1.5618,1.5842,1.6139,1.6365,1.6547,1.7133,1.7635,1.8261,1.8702,1.9291,2.0098,2.0731,2.1272,2.1949,2.2777,2.3434,2.4032,2.4743,2.5312,2.5758,2.6427,2.6824,2.704,2.7973,2.8944,2.9931,3.0539,3.1204,3.1811,3.2327,3.2857,3.3471,3.3899,3.43,3.4707,3.4994,3.5152,3.5198,3.5258,3.5036,3.4363,3.4313,3.4074,3.3544,3.352,3.3607,3.3761,3.3863,3.4261,3.5153,3.626,3.6522,3.5734,3.6382,3.6811,3.6829,3.693,3.7066,3.7259,3.7297,3.7372,3.7558,3.7594,3.7577,3.7577,3.7577,3.7577,3.7631,3.7667,3.7703,3.7739,3.7846,3.7951,3.8002,3.8036,3.8088,3.8174,3.8088,3.8088,3.8174,3.8192,3.8192,3.8192,3.8192,3.8192,3.8225,3.8274,3.8307,3.8322,3.8496,3.9268,4.0705,4.1104,4.1889,4.313,4.3479,4.3479,4.3479,4.3479,4.3479,4.3479,4.3532,4.3532,1.16,1.1706,1.2061,1.2203,1.2324,1.2693,1.325,1.3896,1.5019,1.5547,1.5547,1.5631,1.5699,1.591,1.5959,1.6144,1.6413,1.6918,1.7346,1.764,1.8197,1.885,1.946,1.9863,2.0479,2.1165,2.209,2.2745,2.3231,2.3936,2.4611,2.5087,2.5594,2.622,2.6973,2.759,2.817,2.861,2.9808,3.0673,3.1146,3.161,3.216,3.2765,3.3224,3.3607,3.405,3.4399,3.4691,3.4787,3.4899,3.4944,3.4814,3.4781,3.4748,3.4678,3.4788,3.4835,3.4864,3.5138,3.5528,3.6121,3.7064,3.7352,3.6661,3.6838,3.6987,3.697,3.6987,3.7048,3.7108,3.7259,3.7334,3.7411,3.7522,3.7577,3.7613,3.7613,3.7613,3.7667,3.7703,3.7757,3.7846,3.7933,3.8002,3.8036,3.8088,3.8192,3.8192,3.8174,3.8192,3.8192,3.8192,3.8192,3.8192,3.8192,3.8207,3.8292,3.8307,3.8372,3.8433,3.899,3.9772,4.0914,4.1519,4.2326,4.3314,4.3479,4.3479,4.3479,4.3479,4.3479,4.3479,4.3548,4.3582,1.0468,1.0651,1.093,1.1254,1.1472,1.2207,1.2781,1.336,1.4163,1.4765,1.5095,1.5072,1.5142,1.5459,1.5646,1.5897,1.6086,1.6652,1.7056,1.7304,1.7785,1.8264,1.8825,1.9301,1.9932,2.0634,2.1492,2.209,2.2585,2.3361,2.3959,2.4455,2.5028,2.5664,2.6371,2.6688,2.7162,2.7749,2.9044,2.9931,3.0358,3.0896,3.1465,3.1962,3.2351,3.2803,3.3282,3.3491,3.3697,3.4002,3.4052,3.4118,3.425,3.43,3.4513,3.4871,3.5136,3.5514,3.5993,3.6572,3.7036,3.7411,3.8044,3.8328,3.8087,3.7749,3.7426,3.7079,3.7048,3.7087,3.7203,3.7279,3.741,3.7503,3.7594,3.7613,3.7631,3.7649,3.7685,3.781,3.7863,3.7898,3.7933,3.8036,3.8088,3.8088,3.8174,3.8192,3.8192,3.8192,3.8192,3.8192,3.8192,3.8192,3.8225,3.8241,3.8274,3.8307,3.8354,3.8433,3.8528,3.898,3.969,4.0804,4.1442,4.2139,4.3204,4.3479,4.3479,4.3479,4.3479,4.3513,4.3548,4.3649,4.3734,0.9498,0.97,0.9911,1.0258,1.0716,1.1556,1.2147,1.2677,1.3197,1.3831,1.4408,1.4453,1.4648,1.508,1.5416,1.569,1.5905,1.6445,1.681,1.6976,1.7376,1.7792,1.8201,1.8825,1.946,2.0117,2.0976,2.1645,2.2116,2.2972,2.363,2.4129,2.4676,2.5278,2.58,2.584,2.6183,2.6973,2.8065,2.898,2.9546,3.0222,3.0748,3.113,3.1492,3.1946,3.2477,3.2571,3.2788,3.3124,3.323,3.3282,3.3487,3.3802,3.421,3.4691,3.5195,3.5899,3.675,3.7515,3.8057,3.8385,3.8945,3.9181,3.9083,3.866,3.8058,3.7413,3.7193,3.7147,3.7279,3.7372,3.7466,3.7613,3.7631,3.7649,3.7703,3.7739,3.7792,3.7916,3.7967,3.8002,3.8036,3.814,3.8192,3.8192,3.8192,3.8192,3.8192,3.8225,3.8225,3.8225,3.8225,3.8207,3.8207,3.8256,3.8322,3.834,3.8415,3.8478,3.8596,3.8786,3.9368,4.0561,4.102,4.168,4.2873,4.3204,4.3293,4.3422,4.3513,4.3566,4.3649,4.38,4.3883,0.8956,0.9043,0.9222,0.9579,0.9995,1.0514,1.1112,1.1843,1.2348,1.3055,1.3812,1.4264,1.465,1.5079,1.5357,1.5538,1.5733,1.6308,1.6553,1.657,1.6972,1.7381,1.7613,1.8129,1.8736,1.9534,2.0639,2.1382,2.1888,2.3039,2.4043,2.4781,2.4922,2.514,2.5474,2.5266,2.5382,2.6037,2.6427,2.7404,2.8789,2.9435,2.9903,3.0389,3.0689,3.1131,3.158,3.1834,3.213,3.2437,3.2617,3.278,3.2935,3.363,3.4187,3.439,3.5218,3.6071,3.69,3.7368,3.7936,3.842,3.9403,3.9739,3.9215,3.9151,3.8866,3.8093,3.7453,3.7164,3.7279,3.7372,3.7485,3.7667,3.7685,3.7757,3.7846,3.7864,3.7916,3.7984,3.8036,3.8036,3.814,3.8192,3.8192,3.8192,3.8192,3.8192,3.8225,3.8259,3.8274,3.8307,3.8307,3.8289,3.8289,3.8336,3.8401,3.8446,3.851,3.8559,3.875,3.9203,3.99,4.0084,4.0616,4.135,4.2029,4.2433,4.2742,4.3287,4.3505,4.3667,4.38,4.3897,4.3915,0.7661,0.7746,0.8021,0.8548,0.9069,0.9414,1.0095,1.0833,1.1384,1.2042,1.2866,1.3212,1.4057,1.512,1.528,1.5453,1.5634,1.6191,1.6364,1.641,1.6812,1.7243,1.7621,1.7943,1.8607,1.9348,2.0246,2.0999,2.1784,2.2909,2.3785,2.4252,2.4459,2.4835,2.5173,2.4791,2.492,2.5648,2.561,2.6057,2.7082,2.8012,2.8725,2.9107,2.9546,2.9993,3.0387,3.0979,3.1499,3.1857,3.2407,3.2869,3.2987,3.348,3.4051,3.4685,3.598,3.7006,3.7726,3.8259,3.8723,3.9289,3.9932,4.0233,4.0169,3.946,3.8893,3.866,3.7809,3.7241,3.7354,3.7503,3.7577,3.7703,3.7757,3.7881,3.7984,3.8018,3.807,3.8138,3.8189,3.8174,3.8192,3.8192,3.8192,3.8192,3.8192,3.8207,3.8241,3.8274,3.8322,3.8336,3.8382,3.8401,3.8387,3.8433,3.8478,3.851,3.8559,3.8658,3.8713,3.8891,3.9313,3.9772,4.0139,4.0703,4.1489,4.2077,4.2533,4.3004,4.3545,4.38,4.3865,4.3929,4.3961,0.6337,0.6517,0.6962,0.7425,0.7993,0.8344,0.8978,0.9786,1.04,1.1161,1.2037,1.239,1.3344,1.4611,1.4843,1.5122,1.5486,1.5927,1.6174,1.6205,1.664,1.7002,1.7358,1.7612,1.8205,1.9076,1.9839,2.0723,2.1683,2.2699,2.3433,2.3761,2.3981,2.4389,2.4722,2.4393,2.4534,2.5246,2.511,2.5299,2.6043,2.6785,2.7439,2.7973,2.843,2.8949,2.9561,3.0171,3.0828,3.1458,3.2066,3.2553,3.2771,3.317,3.3946,3.4951,3.626,3.7342,3.8042,3.8645,3.9152,3.9661,4.007,4.0402,4.0391,3.9571,3.8943,3.885,3.8058,3.7408,3.7372,3.7559,3.7703,3.7774,3.7916,3.8002,3.8153,3.8168,3.8219,3.8322,3.8307,3.8274,3.8207,3.8192,3.8192,3.8192,3.8225,3.8241,3.8307,3.8322,3.8387,3.8433,3.851,3.851,3.8446,3.8496,3.8541,3.8559,3.8658,3.8707,3.8707,3.8707,3.8775,3.9307,3.9509,3.989,4.0651,4.1401,4.2134,4.2548,4.3087,4.3651,4.3873,4.3955,4.4005,0.5191,0.5549,0.5994,0.6323,0.6709,0.7158,0.7879,0.8683,0.9424,1.0274,1.1162,1.1732,1.2608,1.3515,1.3921,1.4411,1.5003,1.5531,1.5693,1.5756,1.6154,1.6389,1.6374,1.6815,1.7461,1.8335,1.9196,2.0545,2.2133,2.2669,2.3153,2.373,2.3581,2.3805,2.4238,2.3998,2.4151,2.4926,2.4992,2.5313,2.5978,2.5929,2.6306,2.7156,2.7497,2.8173,2.9253,2.9428,3.0033,3.1264,3.1429,3.1575,3.1946,3.2657,3.3696,3.4961,3.5755,3.6554,3.731,3.7921,3.8502,3.9119,3.9454,3.9868,3.9902,3.9291,3.8819,3.8701,3.8001,3.7487,3.7397,3.7539,3.7774,3.7949,3.8052,3.8168,3.8332,3.8382,3.8382,3.8401,3.8354,3.8274,3.8225,3.8192,3.8192,3.8225,3.8259,3.8307,3.8322,3.8401,3.8478,3.8528,3.859,3.8658,3.8559,3.8559,3.8658,3.8676,3.8658,3.8707,3.8707,3.8707,3.8805,3.8835,3.8994,3.9319,3.9896,4.0535,4.128,4.1829,4.2446,4.299,4.3287,4.3788,4.3875,0.3939,0.4385,0.4563,0.4853,0.5162,0.586,0.6608,0.7308,0.8122,0.9022,0.9896,1.0462,1.1184,1.2052,1.2565,1.3537,1.4678,1.5155,1.5411,1.5511,1.5985,1.6344,1.6544,1.6813,1.7469,1.8222,1.8656,1.9587,2.0979,2.1793,2.2315,2.2668,2.2901,2.3342,2.3859,2.3753,2.3927,2.4535,2.4527,2.4747,2.5383,2.5333,2.5594,2.6371,2.6976,2.7754,2.8672,2.9377,3.0033,3.0432,3.1219,3.1648,3.1887,3.2444,3.3196,3.3998,3.4647,3.5305,3.6056,3.6737,3.7322,3.7774,3.8206,3.8525,3.8668,3.8249,3.7965,3.8083,3.7373,3.6953,3.7311,3.7527,3.7774,3.7984,3.8138,3.8271,3.8415,3.8478,3.8478,3.8465,3.8387,3.8274,3.8225,3.8192,3.8192,3.8192,3.8225,3.8274,3.8336,3.8433,3.8478,3.859,3.8658,3.8689,3.8658,3.8658,3.8707,3.8707,3.8707,3.8719,3.875,3.878,3.8829,3.8888,3.8881,3.8966,3.9597,4.0026,4.0685,4.1438,4.2017,4.2166,4.2407,4.2927,4.3169,0.2417,0.2862,0.3221,0.3595,0.3893,0.4491,0.5241,0.604,0.6801,0.769,0.8598,0.9213,1.0006,1.0699,1.1091,1.2063,1.3619,1.419,1.4765,1.5159,1.5534,1.5913,1.6305,1.6494,1.7073,1.7822,1.8172,1.8804,1.982,2.0619,2.1168,2.1526,2.1989,2.252,2.3163,2.3186,2.3473,2.3991,2.4084,2.4335,2.4949,2.4897,2.5216,2.5915,2.6411,2.7115,2.8027,2.891,2.9561,2.9902,3.0624,3.1057,3.1119,3.1649,3.216,3.2635,3.3185,3.3876,3.4618,3.518,3.5728,3.6292,3.6538,3.6826,3.7105,3.6785,3.6797,3.6815,3.6446,3.6025,3.648,3.6728,3.7099,3.7721,3.807,3.8271,3.8465,3.846,3.8446,3.8382,3.8303,3.8274,3.8174,3.8192,3.8192,3.8192,3.8207,3.8274,3.8368,3.8415,3.8496,3.8676,3.8707,3.8707,3.8658,3.8689,3.8719,3.8719,3.875,3.8762,3.8792,3.8822,3.8851,3.891,3.8968,3.8979,3.9174,3.963,4.0253,4.1014,4.1237,4.1349,4.1683,4.2073,4.2296,0.0626,0.0805,0.1879,0.2352,0.257,0.304,0.3868,0.476,0.5475,0.632,0.7214,0.8131,0.8821,0.941,0.9505,1.0199,1.1282,1.2538,1.3709,1.449,1.4688,1.5064,1.573,1.5737,1.6211,1.6979,1.7714,1.8257,1.8796,1.9355,1.9911,2.0283,2.0817,2.1436,2.2138,2.2375,2.2843,2.3501,2.371,2.4255,2.4967,2.4628,2.4927,2.5832,2.5713,2.6109,2.74,2.7859,2.8488,2.9217,2.9381,2.9484,2.9781,3.0075,3.0456,3.0957,3.1476,3.2191,3.3017,3.3378,3.3883,3.442,3.4604,3.4771,3.5001,3.5085,3.5007,3.4973,3.4787,3.4794,3.4926,3.4936,3.5676,3.734,3.7756,3.7982,3.8234,3.8382,3.8318,3.8153,3.8171,3.8171,3.807,3.8054,3.8106,3.814,3.8207,3.8238,3.8336,3.8415,3.8528,3.864,3.8658,3.8658,3.8658,3.8707,3.875,3.8792,3.8792,3.8822,3.8881,3.891,3.8921,3.8979,3.9007,3.9036,3.9045,3.9435,3.9602,4.0178,4.0327,4.0531,4.0828,4.1144,4.146,-0.1967,-0.161,-0.0268,0.0269,0.0453,0.1284,0.2156,0.2978,0.3599,0.4449,0.552,0.6437,0.6933,0.7223,0.7819,0.8418,0.9114,1.0092,1.1565,1.3136,1.3715,1.4196,1.4682,1.4968,1.5452,1.6116,1.6662,1.703,1.7505,1.8164,1.8819,1.9263,1.9812,2.0456,2.1257,2.1704,2.2236,2.2794,2.3319,2.3841,2.4176,2.4224,2.4565,2.4978,2.5041,2.529,2.5777,2.6852,2.7669,2.8075,2.8211,2.8371,2.8609,2.8688,2.9069,2.9614,2.9884,3.0392,3.104,3.1443,3.178,3.2126,3.2313,3.2441,3.2695,3.2695,3.2848,3.3001,3.2803,3.2635,3.2915,3.2865,3.3836,3.6435,3.6985,3.725,3.7596,3.7861,3.7931,3.788,3.7845,3.7845,3.781,3.7828,3.7863,3.7969,3.8054,3.8086,3.8186,3.8303,3.8382,3.8528,3.8559,3.8609,3.864,3.8689,3.8701,3.8792,3.8822,3.8881,3.8921,3.8979,3.9007,3.9017,3.9064,3.9092,3.9101,3.9175,3.938,3.9398,3.9584,3.977,3.99,4.0215,4.0634,-0.4196,-0.3844,-0.2591,-0.1878,-0.1522,-0.0816,0.0093,0.095,0.154,0.2455,0.3507,0.4732,0.5233,0.5429,0.5724,0.6224,0.6822,0.772,0.9103,1.0974,1.2355,1.313,1.3806,1.4394,1.4879,1.535,1.5717,1.5988,1.6292,1.7138,1.7792,1.8156,1.8719,1.9455,2.0275,2.0808,2.1347,2.198,2.253,2.3057,2.3406,2.358,2.3754,2.3993,2.4262,2.4433,2.4519,2.5432,2.6185,2.661,2.6764,2.6905,2.6987,2.7069,2.7383,2.7775,2.806,2.8342,2.8983,2.9269,2.9578,2.9872,2.991,2.9961,3.0099,3.0099,3.0274,3.0529,3.0336,3.0207,3.0609,3.0587,3.1539,3.3419,3.4767,3.5753,3.6434,3.6876,3.7044,3.7041,3.719,3.7321,3.7321,3.7431,3.7504,3.7685,3.7739,3.788,3.7984,3.8088,3.8204,3.8318,3.8401,3.8483,3.859,3.864,3.8701,3.8762,3.8851,3.8921,3.9007,3.9017,3.9045,3.9073,3.9073,3.9073,3.9101,3.9101,3.9194,3.9101,3.9101,3.9268,3.951,3.963,3.9956,-0.6236,-0.5794,-0.4921,-0.422,-0.3592,-0.3151,-0.2397,-0.133,-0.0573,0.0097,0.11,0.2717,0.3725,0.3721,0.3013,0.3313,0.4622,0.562,0.6515,0.7902,0.9784,1.1565,1.2834,1.3619,1.4202,1.4586,1.486,1.5146,1.5425,1.6103,1.6676,1.7037,1.7792,1.845,1.918,1.9646,2.0374,2.1275,2.1633,2.2087,2.2715,2.2803,2.2882,2.3135,2.3319,2.3493,2.3657,2.3917,2.4262,2.502,2.5263,2.5263,2.5189,2.5326,2.5568,2.5808,2.5953,2.6356,2.6849,2.7082,2.7337,2.782,2.7544,2.7313,2.7532,2.7509,2.7589,2.7862,2.7693,2.7763,2.8172,2.8244,2.8583,2.9351,3.1828,3.3649,3.4664,3.526,3.5547,3.5805,3.6229,3.6551,3.6435,3.6689,3.6921,3.717,3.7246,3.7413,3.7631,3.7739,3.7951,3.807,3.8171,3.8289,3.8368,3.8415,3.8478,3.8621,3.8743,3.8862,3.8989,3.9045,3.9073,3.9101,3.9101,3.9101,3.9101,3.9101,3.9101,3.9101,3.9101,3.9101,3.9203,3.9361,3.9508,-0.9323,-0.8736,-0.7974,-0.7397,-0.6725,-0.5563,-0.4624,-0.3964,-0.3388,-0.2844,-0.2002,0.0,0.0703,0.0201,-0.0502,-0.0,0.1506,0.2911,0.4014,0.4812,0.6515,0.9099,1.1375,1.2554,1.3136,1.3619,1.3811,1.4184,1.4555,1.514,1.5812,1.6379,1.6943,1.7692,1.8527,1.9096,1.9828,2.0555,2.1006,2.1454,2.1909,2.2185,2.2353,2.252,2.2706,2.2706,2.2794,2.2784,2.3222,2.4059,2.4145,2.4145,2.4145,2.4221,2.4382,2.4553,2.4638,2.4882,2.5231,2.5316,2.54,2.5568,2.5462,2.5294,2.5305,2.5305,2.5294,2.5441,2.5467,2.5595,2.5701,2.5784,2.6118,2.6979,2.9514,3.1821,3.2525,3.3067,3.3549,3.3942,3.4167,3.4549,3.5031,3.5385,3.5744,3.6104,3.6429,3.6706,3.6904,3.7226,3.7339,3.765,3.7792,3.7984,3.8104,3.8186,3.8285,3.8465,3.859,3.8695,3.8873,3.9045,3.9073,3.9101,3.9101,3.9101,3.9101,3.9101,3.9101,3.9101,3.9101,3.9101,3.9156,3.9303,3.9349,-1.2891,-1.2201,-1.1382,-1.0635,-0.9866,-0.8225,-0.7406,-0.7161,-0.6506,-0.5894,-0.5187,-0.3801,-0.3102,-0.3407,-0.4112,-0.3613,-0.2208,-0.0702,0.0602,0.2005,0.4012,0.681,0.9497,1.0886,1.1668,1.2252,1.2549,1.3028,1.3607,1.4184,1.4854,1.5527,1.6096,1.6842,1.7777,1.8442,1.9096,1.9828,2.0374,2.0916,2.1284,2.1544,2.1731,2.1909,2.2097,2.2176,2.2264,2.2274,2.2608,2.3115,2.3202,2.3202,2.3202,2.3193,2.329,2.3367,2.3367,2.3551,2.381,2.382,2.3907,2.3993,2.3907,2.382,2.381,2.3734,2.3637,2.38,2.3907,2.3921,2.3888,2.3951,2.4149,2.4683,2.6736,2.8739,2.9928,3.0641,3.1125,3.1616,3.2029,3.2541,3.3211,3.3695,3.425,3.4805,3.5222,3.5657,3.6036,3.6364,3.6666,3.6847,3.7135,3.7248,3.7414,3.7524,3.7703,3.7929,3.8183,3.8378,3.8707,3.8913,3.9017,3.9045,3.9073,3.9101,3.9101,3.9101,3.9101,3.9101,3.9101,3.9129,3.9202,3.9256,3.9328,-1.6775,-1.6015,-1.5157,-1.418,-1.3176,-1.1582,-1.1091,-1.0702,-1.0364,-0.9485,-0.8721,-0.796,-0.7359,-0.7084,-0.7793,-0.7319,-0.6213,-0.4698,-0.3004,-0.1001,0.1502,0.4401,0.6799,0.8898,0.9792,1.0485,1.1086,1.1775,1.2457,1.3033,1.3709,1.4484,1.5057,1.5906,1.685,1.7606,1.8357,1.9096,1.9745,2.0283,2.0645,2.0916,2.1096,2.1383,2.1651,2.183,2.2008,2.2097,2.2185,2.2353,2.2353,2.2353,2.2344,2.2344,2.2344,2.2432,2.2432,2.252,2.2715,2.2794,2.2794,2.296,2.2882,2.2706,2.2706,2.2608,2.252,2.2794,2.2706,2.2843,2.2934,2.2788,2.2856,2.3113,2.3615,2.4945,2.6649,2.7951,2.8657,2.9044,2.976,3.0412,3.1076,3.1723,3.2422,3.3002,3.3544,3.4105,3.457,3.5006,3.5402,3.5788,3.6104,3.6429,3.6631,3.6808,3.7079,3.7323,3.7667,3.7946,3.8392,3.8658,3.8844,3.8979,3.8989,3.9045,3.9073,3.9073,3.9101,3.9101,3.9101,3.9156,3.9229,3.9301,3.9373,-2.0893,-2.0015,-1.9179,-1.8311,-1.7573,-1.6591,-1.5756,-1.5065,-1.5558,-1.4502,-1.2975,-1.2198,-1.1525,-1.0964,-1.1711,-1.1258,-0.9441,-0.8041,-0.6372,-0.4205,-0.1702,0.03,0.27,0.5395,0.7707,0.8506,0.9308,1.0199,1.1082,1.1668,1.2457,1.3414,1.4196,1.5057,1.6015,1.6857,1.7692,1.8434,1.9004,1.9563,2.0201,2.0374,2.0645,2.1006,2.1383,2.1562,2.1741,2.183,2.183,2.183,2.1909,2.1909,2.1909,2.1909,2.1909,2.182,2.183,2.1998,2.2176,2.2097,2.2097,2.2264,2.2097,2.1919,2.1909,2.1909,2.1909,2.2008,2.2087,2.2339,2.2549,2.269,2.2514,2.2422,2.264,2.3015,2.357,2.4838,2.604,2.6637,2.7157,2.7746,2.8705,2.9374,3.0145,3.1036,3.1744,3.2392,3.2993,3.3558,3.3958,3.433,3.4758,3.5019,3.5279,3.5606,3.6128,3.6435,3.6833,3.7305,3.7754,3.8245,3.8423,3.8676,3.895,3.8979,3.9007,3.9045,3.9055,3.9055,3.9101,3.9175,3.9248,3.932,3.9418,-2.4968,-2.4044,-2.3172,-2.2332,-2.1571,-2.0926,-2.015,-1.9495,-1.9977,-1.9023,-1.7291,-1.6501,-1.5858,-1.523,-1.5396,-1.4722,-1.3166,-1.1317,-0.9583,-0.7638,-0.5466,-0.3589,-0.1999,0.0898,0.3394,0.5708,0.7117,0.8209,0.9197,0.9989,1.0974,1.215,1.3028,1.3998,1.5064,1.6008,1.685,1.7692,1.835,1.9004,1.9471,1.9845,2.0201,2.0736,2.1114,2.1491,2.1571,2.1642,2.1731,2.1731,2.1731,2.1651,2.1562,2.1571,2.1472,2.1365,2.1365,2.1463,2.1553,2.1454,2.1454,2.1553,2.1553,2.1571,2.1562,2.1651,2.1731,2.1731,2.1882,2.2017,2.215,2.2415,2.2247,2.1859,2.1938,2.1971,2.1911,2.2872,2.3879,2.4411,2.4732,2.5399,2.6133,2.7063,2.7916,2.8823,2.959,3.0249,3.1168,3.1688,3.223,3.2645,3.3133,3.3508,3.3841,3.4348,3.5011,3.5419,3.5814,3.6336,3.6833,3.738,3.791,3.8277,3.8695,3.8892,3.895,3.8989,3.8989,3.9007,3.9036,3.912,3.9175,3.9229,3.9328,-2.8892,-2.7968,-2.7082,-2.6192,-2.5485,-2.4987,-2.426,-2.3519,-2.379,-2.3008,-2.1544,-2.0882,-2.0217,-1.9642,-1.9077,-1.8352,-1.6963,-1.5191,-1.3277,-1.1485,-0.9656,-0.7811,-0.6049,-0.3975,-0.1593,0.23,0.4209,0.5608,0.6907,0.7908,0.9091,1.0574,1.1556,1.263,1.3902,1.4962,1.5913,1.6763,1.7692,1.8342,1.8819,1.9296,1.9754,2.0382,2.0925,2.1302,2.1482,2.166,2.1731,2.1731,2.1741,2.166,2.1482,2.1392,2.1383,2.1186,2.1177,2.1275,2.1275,2.1177,2.1186,2.1096,2.1203,2.1302,2.1383,2.1472,2.1562,2.1642,2.1704,2.1799,2.1881,2.215,2.2032,2.1689,2.1578,2.1362,2.1192,2.1706,2.222,2.2606,2.3158,2.37,2.4184,2.485,2.5733,2.6553,2.7328,2.8096,2.9059,2.975,3.0189,3.0632,3.1051,3.1744,3.209,3.2591,3.3323,3.3958,3.4459,3.5098,3.565,3.6301,3.6917,3.7962,3.841,3.8585,3.8773,3.8851,3.8851,3.8881,3.891,3.8968,3.9036,3.9101,3.9229,-3.2317,-3.1649,-3.069,-2.9945,-2.9288,-2.8762,-2.8126,-2.7493,-2.7232,-2.6678,-2.576,-2.5193,-2.4567,-2.3988,-2.3413,-2.2361,-2.0977,-1.9239,-1.7545,-1.581,-1.402,-1.2321,-1.0228,-0.8582,-0.6429,-0.3975,-0.0796,0.2097,0.4205,0.5508,0.6901,0.8396,0.9792,1.117,1.2538,1.3703,1.4867,1.6008,1.685,1.7692,1.8342,1.8819,1.9387,2.0201,2.0736,2.1105,2.1482,2.175,2.1919,2.1741,2.1919,2.175,2.1571,2.1562,2.1562,2.1463,2.1454,2.1374,2.1374,2.1383,2.1293,2.1293,2.1203,2.1096,2.1105,2.1293,2.1482,2.1482,2.1651,2.1872,2.2268,2.228,2.2361,2.2184,2.1894,2.1553,2.1232,2.1036,2.1195,2.1568,2.1863,2.2155,2.2638,2.3114,2.38,2.4554,2.5247,2.5984,2.6783,2.7459,2.7929,2.8379,2.8899,2.9629,3.0366,3.0821,3.1479,3.209,3.2667,3.346,3.4104,3.499,3.5831,3.671,3.7648,3.8198,3.8396,3.8528,3.864,3.859,3.8701,3.878,3.8851,3.8873,3.9017,-3.5202,-3.4507,-3.3696,-3.3014,-3.2471,-3.1949,-3.1433,-3.1083,-3.0616,-3.0157,-2.9631,-2.9162,-2.8611,-2.8065,-2.7751,-2.6657,-2.5146,-2.3811,-2.2236,-2.0474,-1.8807,-1.7004,-1.4871,-1.3171,-1.1384,-0.9348,-0.641,-0.2481,0.09,0.2602,0.4301,0.6307,0.8107,0.9797,1.1263,1.263,1.389,1.514,1.619,1.7138,1.7878,1.845,1.9196,1.9837,2.0555,2.0916,2.1186,2.1651,2.183,2.1741,2.182,2.166,2.1571,2.1482,2.1472,2.1365,2.1365,2.1284,2.1195,2.1114,2.0934,2.0843,2.0835,2.0826,2.0916,2.1015,2.1203,2.1392,2.175,2.2008,2.2255,2.2353,2.232,2.2121,2.1794,2.138,2.0947,2.0534,2.0508,2.0751,2.0876,2.1098,2.1175,2.1669,2.2038,2.2616,2.3187,2.3895,2.4649,2.5131,2.5664,2.6226,2.6796,2.7459,2.8211,2.8781,2.9341,2.9995,3.0777,3.1531,3.2322,3.3096,3.4136,3.5161,3.6162,3.6896,3.7861,3.7982,3.8135,3.8285,3.8318,3.8382,3.8528,3.8652,3.8707,-3.7737,-3.7042,-3.6428,-3.5859,-3.5277,-3.4877,-3.4537,-3.4222,-3.383,-3.3411,-3.3,-3.264,-3.2205,-3.1694,-3.132,-3.0624,-2.9404,-2.8191,-2.6714,-2.5163,-2.3507,-2.1708,-1.98,-1.8115,-1.626,-1.4202,-1.2326,-0.8668,-0.3185,-0.0899,0.13,0.3501,0.5805,0.7908,0.9383,1.1058,1.2711,1.4172,1.5527,1.648,1.7326,1.8265,1.9012,1.9479,2.0201,2.0736,2.0997,2.1463,2.1741,2.1731,2.1741,2.166,2.1491,2.1401,2.1293,2.1087,2.0997,2.0916,2.0744,2.0654,2.0572,2.0382,2.0382,2.0473,2.0564,2.0654,2.1006,2.1293,2.1562,2.183,2.1919,2.2087,2.2114,2.1842,2.1514,2.107,2.0702,2.0335,1.9944,2.0017,1.997,2.0098,2.0323,2.0401,2.0827,2.1038,2.1618,2.1985,2.2689,2.2996,2.3486,2.4089,2.4708,2.5329,2.5984,2.6515,2.709,2.7668,2.8502,2.9332,3.0207,3.1039,3.2058,3.293,3.3865,3.4643,3.602,3.7305,3.7451,3.7596,3.7774,3.7931,3.8016,3.815,3.8281,-3.9733,-3.9287,-3.8904,-3.8439,-3.7883,-3.7623,-3.7292,-3.6864,-3.6533,-3.6291,-3.5891,-3.5518,-3.5235,-3.4951,-3.4469,-3.3848,-3.305,-3.1956,-3.0659,-2.9264,-2.7825,-2.6107,-2.4357,-2.2705,-2.0835,-1.8864,-1.7103,-1.2601,-0.7879,-0.5154,-0.2395,0.01,0.2397,0.4598,0.6892,0.8973,1.0863,1.2522,1.4172,1.571,1.7138,1.8164,1.8819,1.9279,1.992,2.0555,2.0997,2.1365,2.1741,2.1731,2.1919,2.183,2.1482,2.1401,2.1284,2.1087,2.0997,2.0916,2.0645,2.0473,2.0209,2.0027,1.9945,1.977,1.9945,2.0209,2.0555,2.0997,2.1087,2.1284,2.1472,2.1642,2.1695,2.1609,2.1286,2.107,2.069,1.9843,1.9542,1.9304,1.9231,1.939,1.9548,1.9539,1.9529,1.9756,2.0051,2.042,2.0787,2.1161,2.1466,2.2039,2.2563,2.3183,2.3682,2.4234,2.472,2.535,2.6118,2.6973,2.7642,2.8391,2.9363,3.0262,3.1177,3.2494,3.3985,3.5215,3.6244,3.679,3.6851,3.7135,3.745,3.7578,3.7703,-4.1662,-4.0851,-4.047,-4.0146,-3.9816,-3.9564,-3.9289,-3.901,-3.8797,-3.8532,-3.8335,-3.8066,-3.7866,-3.7608,-3.7377,-3.6936,-3.6226,-3.5321,-3.4386,-3.3154,-3.1775,-3.0354,-2.8785,-2.7156,-2.5295,-2.3412,-2.1553,-1.9142,-1.4173,-0.9707,-0.6246,-0.3482,-0.1195,0.1296,0.3992,0.658,0.8765,1.0835,1.3086,1.5127,1.6466,1.7412,1.8064,1.8711,1.9463,2.0192,2.0736,2.1365,2.1741,2.1919,2.2097,2.1919,2.1562,2.1383,2.1096,2.0826,2.0555,2.0374,2.0382,2.0201,1.9936,1.9762,1.9679,1.9679,1.9671,1.9845,2.011,2.0374,2.0546,2.0736,2.0934,2.1105,2.1186,2.1167,2.0864,2.0539,2.0144,1.9573,1.8945,1.8716,1.8425,1.8505,1.8585,1.8505,1.8585,1.8736,1.8966,1.9186,1.9413,1.964,1.9875,2.011,2.0556,2.1008,2.1435,2.1858,2.2349,2.2926,2.3322,2.4141,2.4762,2.5586,2.6454,2.7349,2.8195,2.9766,3.1668,3.3268,3.4477,3.5186,3.5908,3.6104,3.6377,3.6825,3.6964,-4.323,-4.2375,-4.189,-4.1637,-4.1446,-4.1198,-4.1018,-4.0863,-4.0676,-4.05,-4.0323,-4.0209,-4.0029,-3.9881,-3.98,-3.9428,-3.8966,-3.8281,-3.7496,-3.6507,-3.543,-3.4097,-3.2607,-3.1182,-2.9553,-2.7765,-2.6049,-2.3678,-2.0474,-1.638,-1.1926,-0.7407,-0.5147,-0.2382,0.0796,0.3783,0.6468,1.0066,1.241,1.4256,1.5419,1.6278,1.703,1.787,1.8711,1.9546,2.0365,2.1006,2.1553,2.183,2.1919,2.182,2.1454,2.1186,2.0826,2.0564,2.011,1.9845,1.9837,1.9654,1.9571,1.9396,1.9212,1.9112,1.9296,1.9471,1.9563,1.9563,1.9737,2.0011,2.0283,2.0292,2.0283,2.0296,2.0052,1.9729,1.9342,1.8769,1.8296,1.7924,1.761,1.7448,1.7448,1.7465,1.7546,1.7789,1.787,1.7942,1.8095,1.8318,1.839,1.8541,1.878,1.907,1.9279,1.9662,2.011,2.0463,2.0892,2.1373,2.2033,2.2707,2.3446,2.4293,2.511,2.6176,2.758,3.0143,3.2675,3.3372,3.4082,3.4772,3.5222,3.5701,3.618,-4.4207,-4.4076,-4.3348,-4.296,-4.2775,-4.268,-4.2546,-4.2336,-4.219,-4.2073,-4.1973,-4.1949,-4.1813,-4.1771,-4.1558,-4.1402,-4.1182,-4.0585,-3.9844,-3.9125,-3.8248,-3.7132,-3.5904,-3.4648,-3.3317,-3.1619,-2.996,-2.7927,-2.5747,-2.3028,-1.7768,-1.2395,-0.9774,-0.651,-0.2976,0.0397,0.4672,0.8255,1.1025,1.2506,1.3771,1.4734,1.5684,1.6648,1.7598,1.8635,1.9538,2.0266,2.0916,2.1293,2.1472,2.1454,2.1087,2.0907,2.0555,2.011,1.9654,1.9296,1.9104,1.9012,1.8835,1.8566,1.8465,1.8365,1.8542,1.8542,1.8635,1.8827,1.8912,1.8996,1.918,1.9279,1.9363,1.933,1.9183,1.8856,1.8537,1.8056,1.7576,1.7153,1.6878,1.6632,1.6476,1.6566,1.6722,1.6968,1.6968,1.7041,1.7041,1.7115,1.7025,1.7025,1.7107,1.7245,1.7284,1.762,1.7943,1.8166,1.846,1.887,1.9364,1.9947,2.0463,2.1117,2.1911,2.266,2.3701,2.6243,2.87,3.0922,3.217,3.2736,3.3761,3.4523,3.504,-4.4719,-4.4688,-4.4463,-4.4119,-4.3749,-4.3601,-4.3502,-4.3382,-4.3226,-4.3138,-4.3104,-4.3105,-4.3105,-4.3032,-4.3142,-4.2904,-4.2627,-4.2343,-4.1789,-4.1244,-4.0447,-3.9678,-3.8678,-3.7576,-3.6313,-3.4883,-3.3422,-3.1439,-2.8975,-2.7741,-2.5562,-2.0862,-1.5769,-1.1311,-0.7544,-0.2964,0.1784,0.5068,0.7851,0.9543,1.1025,1.2302,1.3459,1.4417,1.5778,1.6821,1.784,1.8972,1.972,2.0365,2.0645,2.0637,2.0538,2.0257,1.9903,1.9554,1.9104,1.8643,1.8458,1.8465,1.8473,1.8001,1.7807,1.7606,1.7699,1.7699,1.7792,1.7885,1.7893,1.7878,1.8156,1.8249,1.835,1.845,1.8218,1.7848,1.7458,1.7045,1.6672,1.6126,1.5997,1.5809,1.5733,1.5665,1.5906,1.6064,1.6057,1.6057,1.6057,1.5951,1.5854,1.5644,1.5629,1.5487,1.5427,1.5594,1.5847,1.5968,1.6149,1.6563,1.6949,1.7027,1.7586,1.8134,1.8818,1.9671,2.0921,2.2575,2.4826,2.7547,2.9375,3.0597,3.1736,3.297,3.3643,-4.5129,-4.5154,-4.5204,-4.4954,-4.4527,-4.4373,-4.4271,-4.4204,-4.408,-4.402,-4.396,-4.4053,-4.4053,-4.4035,-4.4067,-4.4005,-4.368,-4.348,-4.3208,-4.2722,-4.2192,-4.1629,-4.0882,-3.9973,-3.8852,-3.7744,-3.655,-3.4691,-3.2344,-3.1553,-2.9986,-2.7105,-2.2918,-1.8161,-1.2188,-0.6646,-0.1972,0.0395,0.3173,0.5461,0.7033,0.9029,1.0219,1.1376,1.2838,1.4201,1.5334,1.6369,1.7609,1.8272,1.884,1.933,1.9338,1.9247,1.908,1.8719,1.8257,1.7699,1.7613,1.7714,1.7714,1.7239,1.6864,1.6763,1.6763,1.6669,1.6567,1.6567,1.6662,1.6756,1.6936,1.6936,1.6943,1.6943,1.6842,1.6522,1.6188,1.58,1.5418,1.5098,1.5049,1.4977,1.4901,1.4824,1.5075,1.5235,1.5318,1.5311,1.5318,1.5032,1.4643,1.4428,1.4283,1.3947,1.3689,1.3943,1.4165,1.4158,1.4303,1.4441,1.4665,1.4824,1.5147,1.5939,1.6549,1.6977,1.7949,1.9333,2.182,2.4558,2.6387,2.814,2.9346,3.0505,3.1566,-4.5362,-4.5494,-4.5497,-4.5321,-4.5096,-4.5007,-4.4947,-4.49,-4.4781,-4.4732,-4.4707,-4.477,-4.4751,-4.4701,-4.4617,-4.4546,-4.4447,-4.4308,-4.4117,-4.3801,-4.3424,-4.3047,-4.2537,-4.18,-4.0946,-4.0375,-3.9194,-3.7601,-3.5736,-3.5047,-3.4039,-3.2598,-2.9049,-2.4384,-1.8119,-1.1754,-0.7804,-0.5791,-0.2258,0.0197,0.2265,0.4436,0.5721,0.7003,0.8769,1.0219,1.1284,1.2644,1.3886,1.5269,1.5839,1.6341,1.7066,1.7051,1.698,1.6922,1.6727,1.6358,1.6183,1.6379,1.6089,1.5994,1.5622,1.5337,1.5337,1.5242,1.514,1.5038,1.5045,1.5146,1.5242,1.5242,1.5235,1.5216,1.5114,1.491,1.4507,1.4365,1.4028,1.3828,1.4017,1.4062,1.3984,1.399,1.4237,1.4405,1.4489,1.4482,1.4482,1.421,1.3736,1.349,1.3246,1.2845,1.2594,1.2449,1.2463,1.2402,1.254,1.2784,1.3135,1.3433,1.3803,1.4099,1.4585,1.5184,1.5483,1.5877,1.837,2.0808,2.3814,2.5717,2.687,2.7927,2.889,-4.5599,-4.5632,-4.5718,-4.5718,-4.561,-4.5509,-4.5399,-4.5323,-4.5244,-4.5201,-4.5201,-4.5201,-4.5201,-4.518,-4.5077,-4.5011,-4.4985,-4.4953,-4.4795,-4.4561,-4.4308,-4.4071,-4.3664,-4.3167,-4.2595,-4.1966,-4.1155,-4.0481,-3.9463,-3.8274,-3.7406,-3.6091,-3.3226,-2.8124,-2.1945,-1.6623,-1.3731,-1.1353,-0.8493,-0.5919,-0.4085,-0.1948,-0.0195,0.0978,0.3127,0.459,0.5858,0.7302,0.906,1.0833,1.1306,1.2009,1.3143,1.344,1.3261,1.3498,1.3425,1.2956,1.2576,1.2582,1.3188,1.3578,1.398,1.3596,1.3596,1.3601,1.3505,1.3403,1.3102,1.3199,1.3307,1.3108,1.3,1.2956,1.2879,1.2736,1.2539,1.2675,1.2516,1.2475,1.2607,1.2693,1.2607,1.2607,1.2857,1.3118,1.3203,1.3464,1.3555,1.33,1.3014,1.2675,1.2398,1.1893,1.1537,1.1502,1.1365,1.1372,1.1386,1.1502,1.1793,1.2211,1.2432,1.2792,1.3091,1.3462,1.3803,1.4227,1.4799,1.6888,1.9796,2.2253,2.3467,2.4657,2.5972,-4.5786,-4.5814,-4.5899,-4.5937,-4.5912,-4.5819,-4.5712,-4.561,-4.5563,-4.5565,-4.5545,-4.5545,-4.5547,-4.551,-4.5456,-4.54,-4.5342,-4.5321,-4.5279,-4.5096,-4.4966,-4.4719,-4.4478,-4.4186,-4.372,-4.3262,-4.2777,-4.2232,-4.174,-4.0711,-3.9645,-3.8248,-3.6366,-3.2869,-2.7693,-2.3924,-1.9971,-1.7738,-1.5197,-1.298,-1.1223,-0.9361,-0.7583,-0.6069,-0.4436,-0.3185,-0.1063,0.087,0.261,0.4351,0.5328,0.6013,0.7398,0.8211,0.8129,0.884,0.9073,0.8496,0.821,0.7818,0.8203,0.8792,1.0515,1.1439,1.1244,1.0844,1.0844,1.0849,1.0747,1.0747,1.0649,1.0458,1.044,1.0405,1.0368,1.0265,1.0371,1.0457,1.0608,1.0609,1.0966,1.1052,1.1225,1.1225,1.1305,1.1574,1.1837,1.218,1.2443,1.2357,1.2157,1.1889,1.1534,1.1073,1.0806,1.067,1.0521,1.0308,1.041,1.0562,1.0812,1.1254,1.1403,1.1558,1.1922,1.2211,1.2365,1.2718,1.3215,1.3912,1.5513,1.7754,1.9727,2.1252,2.2707,-4.5933,-4.5997,-4.5988,-4.6007,-4.5986,-4.5828,-4.5777,-4.5794,-4.5794,-4.578,-4.5794,-4.578,-4.5786,-4.5795,-4.5731,-4.568,-4.5613,-4.5601,-4.5549,-4.5475,-4.5362,-4.5225,-4.5099,-4.4886,-4.4569,-4.4307,-4.3957,-4.3518,-4.3336,-4.2407,-4.1266,-4.0284,-3.9093,-3.7003,-3.4106,-3.091,-2.6959,-2.4385,-2.2056,-1.9965,-1.8292,-1.6862,-1.501,-1.3556,-1.2579,-1.1086,-0.9173,-0.7182,-0.5871,-0.4458,-0.3143,-0.1818,-0.0481,0.0967,0.2137,0.3123,0.3525,0.3333,0.2946,0.2456,0.2167,0.2752,0.5335,0.715,0.7967,0.7461,0.7362,0.7365,0.7267,0.7477,0.7582,0.7582,0.7579,0.7609,0.7627,0.7689,0.7934,0.8059,0.8247,0.8576,0.9061,0.9309,0.957,0.9657,0.9566,0.9923,1.0101,1.0448,1.0794,1.1408,1.1187,1.0895,1.0621,1.033,1.0105,0.9999,0.9862,0.9734,0.987,1.0006,1.0165,1.0327,1.0489,1.0715,1.0905,1.1037,1.1099,1.118,1.1403,1.2183,1.3022,1.4294,1.6607,1.7907,1.9216,-4.6056,-4.6075,-4.6054,-4.6093,-4.5978,-4.5386,-4.5414,-4.5894,-4.5933,-4.5933,-4.5953,-4.5953,-4.5844,-4.5929,-4.5925,-4.5867,-4.5827,-4.58,-4.5757,-4.5712,-4.5642,-4.5596,-4.5509,-4.5361,-4.5206,-4.5017,-4.4773,-4.453,-4.4196,-4.3565,-4.3025,-4.2242,-4.1387,-4.0666,-3.9378,-3.7531,-3.3968,-3.0856,-2.8407,-2.6594,-2.5127,-2.3664,-2.2007,-2.0866,-1.9771,-1.8275,-1.679,-1.5578,-1.4546,-1.3887,-1.244,-1.1465,-1.2021,-0.8991,-0.6452,-0.4236,-0.3575,-0.3195,-0.3497,-0.36,-0.3896,-0.4197,-0.2538,0.0296,0.1979,0.3074,0.3075,0.3276,0.3279,0.3377,0.358,0.3682,0.3884,0.4063,0.4197,0.4486,0.4684,0.523,0.5484,0.616,0.6656,0.7105,0.7369,0.7731,0.7731,0.8089,0.8444,0.8707,0.9235,0.9845,1.0173,0.9895,0.9738,0.948,0.9475,0.9377,0.9351,0.9242,0.9304,0.9312,0.9531,0.9648,0.9755,0.9845,0.9927,0.9906,0.9825,0.9981,1.0212,1.0293,1.0986,1.2078,1.3329,1.4782,1.6013,-4.615,-4.6111,-4.576,-4.546,-4.5048,-4.455,-4.462,-4.5023,-4.5064,-4.5055,-4.5083,-4.5395,-4.556,-4.557,-4.5833,-4.6007,-4.5975,-4.5933,-4.5898,-4.5866,-4.5751,-4.5822,-4.5766,-4.5684,-4.5591,-4.549,-4.5362,-4.5145,-4.4874,-4.448,-4.397,-4.3683,-4.3273,-4.2864,-4.2062,-4.1038,-3.9652,-3.6783,-3.441,-3.262,-3.1102,-2.9804,-2.8634,-2.7327,-2.6128,-2.5206,-2.4342,-2.3477,-2.3018,-2.2412,-2.0926,-2.003,-1.9703,-1.655,-1.4174,-1.2113,-1.1323,-1.0969,-1.1013,-1.0885,-1.0839,-1.0688,-1.0342,-0.8615,-0.5652,-0.3813,-0.2458,-0.1384,-0.1288,-0.1092,-0.0796,-0.0398,-0.0,0.03,0.0682,0.0948,0.1578,0.2181,0.2876,0.3568,0.4094,0.463,0.4989,0.5437,0.5797,0.588,0.6233,0.659,0.7474,0.8448,0.8794,0.8839,0.8793,0.8738,0.8743,0.8594,0.8539,0.8476,0.8529,0.8682,0.8818,0.8816,0.881,0.887,0.8856,0.8846,0.8765,0.9003,0.916,0.9236,0.9311,1.0192,1.1145,1.2146,1.314,-4.6201,-4.6128,-4.5273,-4.4436,-4.3591,-4.35,-4.3467,-4.3409,-4.3396,-4.3506,-4.3812,-4.4455,-4.4759,-4.4842,-4.5251,-4.5562,-4.5468,-4.5412,-4.5346,-4.5774,-4.5424,-4.5451,-4.5662,-4.5813,-4.5641,-4.5703,-4.5708,-4.5505,-4.5361,-4.5067,-4.4791,-4.4662,-4.4436,-4.4102,-4.3729,-4.3352,-4.2268,-4.1217,-3.8996,-3.7025,-3.5919,-3.5064,-3.4282,-3.3253,-3.2544,-3.1937,-3.1336,-3.0855,-3.0411,-2.9476,-2.8499,-2.725,-2.5104,-2.3,-2.1116,-2.0014,-1.9033,-1.8584,-1.8295,-1.8105,-1.7856,-1.7586,-1.7176,-1.6113,-1.362,-0.9594,-0.7514,-0.6663,-0.6571,-0.6097,-0.5713,-0.5136,-0.4751,-0.4141,-0.3586,-0.2958,-0.2168,-0.1477,-0.0727,0.009,0.1078,0.1615,0.2224,0.2668,0.3025,0.3385,0.3746,0.4281,0.508,0.6231,0.6939,0.7291,0.7625,0.7508,0.7505,0.7375,0.753,0.758,0.7617,0.7674,0.7671,0.7757,0.7832,0.7806,0.7698,0.7702,0.7702,0.8012,0.8165,0.8169,0.8318,0.8546,0.9165,1.0084,1.075,-4.6273,-4.6175,-4.5353,-4.4114,-4.2783,-4.2685,-4.232,-4.171,-4.1705,-4.2465,-4.3551,-4.3863,-4.398,-4.4044,-4.4298,-4.4473,-4.4376,-4.454,-4.4234,-4.4331,-4.4359,-4.4906,-4.5074,-4.5259,-4.5431,-4.5774,-4.5867,-4.578,-4.5638,-4.5522,-4.5451,-4.5342,-4.5168,-4.4985,-4.481,-4.4424,-4.4093,-4.3755,-4.2609,-4.0828,-3.9559,-3.8925,-3.8256,-3.766,-3.7109,-3.6662,-3.6235,-3.6121,-3.5828,-3.5354,-3.4759,-3.3309,-3.128,-2.923,-2.7953,-2.7088,-2.6174,-2.5509,-2.5114,-2.4701,-2.42,-2.3743,-2.315,-2.25,-2.0123,-1.5647,-1.3019,-1.2457,-1.1723,-1.1159,-1.0596,-1.0031,-0.936,-0.8605,-0.7863,-0.6942,-0.6034,-0.5174,-0.4426,-0.3391,-0.2277,-0.1445,-0.0805,-0.0178,0.0267,0.0623,0.107,0.1516,0.2051,0.3027,0.4271,0.4891,0.5974,0.6057,0.5977,0.5968,0.5934,0.6198,0.6256,0.6414,0.6551,0.6552,0.6548,0.6563,0.6549,0.6578,0.6666,0.7015,0.7169,0.7169,0.7403,0.7629,0.7783,0.8475,0.8941,-4.6067,-4.5597,-4.436,-4.3066,-4.1953,-4.1816,-4.1523,-4.1153,-4.1114,-4.1624,-4.2558,-4.2926,-4.3121,-4.3258,-4.3489,-4.3583,-4.3548,-4.3658,-4.3802,-4.3704,-4.3604,-4.4267,-4.4538,-4.4787,-4.5442,-4.5852,-4.5936,-4.5898,-4.5835,-4.5794,-4.5733,-4.5708,-4.5626,-4.5541,-4.5417,-4.5187,-4.4979,-4.4754,-4.4485,-4.3639,-4.2414,-4.1707,-4.1163,-4.0726,-4.0495,-4.0164,-4.0164,-4.0055,-3.9864,-3.9367,-3.8589,-3.767,-3.598,-3.4438,-3.3524,-3.2795,-3.2115,-3.1516,-3.104,-3.0427,-2.98,-2.9087,-2.824,-2.725,-2.6359,-2.2211,-1.986,-1.8968,-1.6945,-1.6132,-1.5504,-1.4952,-1.3856,-1.3036,-1.2036,-1.1062,-0.9664,-0.8432,-0.7703,-0.6854,-0.5877,-0.4904,-0.4224,-0.3471,-0.3024,-0.2401,-0.1958,-0.1335,-0.0801,-0.0178,0.1068,0.2046,0.2936,0.3835,0.3926,0.4014,0.4188,0.4461,0.4732,0.5005,0.5157,0.5196,0.5233,0.5242,0.5348,0.541,0.5562,0.5918,0.6099,0.6167,0.6402,0.6788,0.6942,0.7096,0.748,-4.5721,-4.4648,-4.3242,-4.2011,-4.1171,-4.1113,-4.1132,-4.1113,-4.1112,-4.1111,-4.1304,-4.199,-4.2206,-4.2519,-4.2929,-4.3202,-4.324,-4.2882,-4.3091,-4.3138,-4.3127,-4.3461,-4.3986,-4.4585,-4.5239,-4.5771,-4.6027,-4.6016,-4.5953,-4.5929,-4.5886,-4.5899,-4.5893,-4.5866,-4.5761,-4.5648,-4.5472,-4.5304,-4.5101,-4.5011,-4.4414,-4.3788,-4.3128,-4.2849,-4.2832,-4.2741,-4.2741,-4.2687,-4.2576,-4.2106,-4.1315,-4.0468,-3.9651,-3.8432,-3.7883,-3.7094,-3.6427,-3.5929,-3.5523,-3.4811,-3.4248,-3.3613,-3.2611,-3.1595,-3.0564,-2.8934,-2.6462,-2.4628,-2.26,-2.0864,-2.0234,-1.9454,-1.8367,-1.7099,-1.6021,-1.4871,-1.3341,-1.1854,-1.1099,-1.0334,-0.9392,-0.8454,-0.752,-0.6811,-0.616,-0.5617,-0.4984,-0.4448,-0.3824,-0.32,-0.2219,-0.1509,-0.0798,0.0089,0.1248,0.1695,0.1872,0.2232,0.2494,0.3174,0.3653,0.3661,0.3771,0.3991,0.4121,0.4164,0.4442,0.4726,0.492,0.5115,0.5473,0.5783,0.5938,0.6089,0.6325,-4.5372,-4.3911,-4.3559,-4.2544,-4.1255,-4.1119,-4.1116,-4.1116,-4.1104,-4.1113,-4.1152,-4.1187,-4.1343,-4.1371,-4.1465,-4.1709,-4.2028,-4.1894,-4.1679,-4.1577,-4.1941,-4.2341,-4.3064,-4.4103,-4.4864,-4.5507,-4.6017,-4.6047,-4.6016,-4.5986,-4.5966,-4.5964,-4.596,-4.5937,-4.5867,-4.578,-4.5708,-4.5596,-4.553,-4.54,-4.5201,-4.4675,-4.4354,-4.4167,-4.409,-4.4061,-4.405,-4.405,-4.3972,-4.3719,-4.3185,-4.2538,-4.1922,-4.1208,-4.0669,-4.0156,-3.9593,-3.9228,-3.8629,-3.8041,-3.7343,-3.6719,-3.5645,-3.4703,-3.3734,-3.2765,-3.0864,-2.9769,-2.7722,-2.5304,-2.4304,-2.3423,-2.238,-2.0838,-1.9605,-1.8265,-1.6803,-1.5647,-1.4699,-1.3767,-1.2808,-1.1743,-1.0686,-1.0046,-0.9447,-0.8794,-0.8036,-0.7496,-0.689,-0.6157,-0.5515,-0.4891,-0.4267,-0.2936,-0.1516,-0.098,-0.0624,-0.0268,0.0178,0.0707,0.1314,0.1996,0.2144,0.2472,0.2785,0.3005,0.3302,0.3516,0.3877,0.4081,0.4413,0.4776,0.4929,0.5162,0.5395]}]]